[[{"header":{"parameterUnit":"m.s-1","parameterCategory":1,"la1":31.0,"la2":29.5877,"lo1":-88.7671,"lo2":-86.6584,"dy":0.0162,"dx":0.0185,"nx":115,"ny":88,"refTime":"2024-08-07T06:00:00:Z","depth":0,"parameterNumber":2,"parameterNumberName":"U-component_of_WINDS"},"data":[0.0,0.0,0.0,0.0,0.0,0.0,0.0,0.0,0.0,0.0,0.0,0.0,0.0,0.0,0.0,0.0,0.0,0.0,0.0,0.0,0.0,0.0,0.0,0.0,0.0,0.0,0.0,0.0,0.0,0.0,0.0,0.0,0.0,0.0,0.0,0.0,0.0,0.0,0.0,0.0,0.0,0.0,0.0,0.0,0.0,0.0,0.0,0.0,0.0,0.0,0.0,0.0,0.0,0.0,0.0,0.0,0.0,0.0,0.0,0.0,0.0,0.0,0.0,0.0,0.0,0.0,0.0,0.0,0.0,0.0,0.0,0.0,0.0,0.0,0.0,0.0,0.0,0.0,0.0,0.0,0.0,0.0,0.0,0.0,0.0,0.0,0.0,0.0,0.0,0.0,0.0,0.0,0.0,0.0,0.0,0.0,0.0,0.0,0.0,0.0,0.0,0.0,0.0,0.0,0.0,0.0,0.0,0.0,0.0,0.0,0.0,0.0,0.0,0.0,0.0,0.0,0.0,0.0,0.0,0.0,0.0,0.0,0.0,0.0,0.0,0.0,0.0,0.0,0.0,0.0,0.0,0.0,0.0,0.0,0.0,0.0,0.0,0.0,0.0,0.0,0.0,0.0,0.0,0.0,0.0,0.0,0.0,0.0,0.0,0.0,0.0,0.0,0.0,0.0,0.0,0.0,0.0,0.0,0.0,0.0,0.0,0.0,0.0,0.0,0.0,0.0,0.0,0.0,0.0,0.0,0.0,0.0,0.0,0.0,0.0,0.0,0.0,0.0,0.0,0.0,0.0,0.0,0.0,0.0,0.0,0.0,0.0,0.0,0.0,0.0,0.0,0.0,0.0,0.0,0.0,0.0,0.0,0.0,0.0,0.0,0.0,0.0,0.0,0.0,0.0,0.0,0.0,0.0,0.0,0.0,0.0,0.0,0.0,0.0,0.0,0.0,0.0,0.0,0.0,0.0,0.0,0.0,0.0,0.0,0.0,0.0,0.0,0.0,0.0,0.0,0.0,0.0,0.0,0.0,0.0,0.0,0.0,0.0,0.0,0.0,0.0,0.0,0.0,0.0,0.0,0.0,0.0,0.0,0.0,0.0,0.0,0.0,0.0,0.0,0.0,0.0,0.0,0.0,0.0,0.0,0.0,0.0,0.0,0.0,0.0,0.0,0.0,0.0,0.0,0.0,0.0,0.0,0.0,0.0,0.0,0.0,0.0,0.0,0.0,0.0,0.0,0.0,0.0,0.0,0.0,0.0,0.0,0.0,0.0,0.0,0.0,0.0,0.0,0.0,0.0,0.0,0.0,0.0,0.0,0.0,0.0,0.0,0.0,0.0,0.0,0.0,0.0,0.0,0.0,0.0,0.0,0.0,0.0,0.0,0.0,0.0,0.0,0.0,0.0,0.0,0.0,0.0,0.0,0.0,0.0,0.0,0.0,0.0,0.0,0.0,0.0,0.0,0.0,0.0,0.0,0.0,0.0,0.0,0.0,0.0,0.0,0.0,0.0,0.0,0.0,0.0,0.0,0.0,0.0,0.0,0.0,0.0,0.0,0.0,0.0,0.0,0.0,0.0,0.0,0.0,0.0,0.0,0.0,0.0,0.0,0.0,0.0,0.0,0.0,0.0,0.0,0.0,0.0,0.0,0.0,0.0,0.0,0.0,0.0,0.0,0.0,0.0,0.0,0.0,0.0,0.0,0.0,0.0,0.0,0.0,0.0,0.0,0.0,0.0,0.0,0.0,0.0,0.0,0.0,0.0,0.0,0.0,0.0,0.0,0.0,0.0,0.0,0.0,0.0,0.0,0.0,0.0,0.0,0.0,0.0,0.0,0.0,0.0,0.0,0.0,0.0,0.0,0.0,0.0,0.0,0.0,0.0,0.0,0.0,0.0,0.0,0.0,0.0,0.0,0.0,0.0,0.0,0.0,0.0,0.0,0.0,0.0,0.0,0.0,0.0,0.0,0.0,0.0,0.0,0.0,0.0,0.0,0.0,0.0,0.0,0.0,0.0,0.0,0.0,0.0,0.0,0.0,0.0,0.0,0.0,0.0,0.0,0.0,0.0,0.0,0.0,0.0,0.0,0.0,0.0,0.0,0.0,0.0,0.0,0.0,0.0,0.0,0.0,0.0,0.0,0.0,0.0,0.0,0.0,0.0,0.0,0.0,0.0,0.0,0.0,0.0,0.0,0.0,0.0,0.0,0.0,0.0,0.0,0.0,0.0,0.0,0.0,0.0,0.0,0.0,0.0,0.0,0.0,0.0,0.0,0.0,0.0,0.0,0.0,0.0,0.0,0.0,0.0,0.0,0.0,0.0,0.0,0.0,0.0,0.0,0.0,0.0,0.0,0.0,0.0,0.0,0.0,0.0,0.0,0.0,0.0,0.0,0.0,0.0,0.0,0.0,0.0,0.0,0.0,0.0,0.0,0.0,0.0,0.0,0.0,0.0,0.0,0.0,0.0,0.0,0.0,0.0,0.0,0.0,0.0,0.0,0.0,0.0,0.0,0.0,0.0,0.0,0.0,0.0,0.0,0.0,0.0,0.0,0.0,0.0,0.0,0.0,0.0,0.0,0.0,0.0,0.0,0.0,0.0,0.0,0.0,0.0,0.0,0.0,0.0,0.0,0.0,0.0,0.0,0.0,0.0,0.0,0.0,0.0,0.0,0.0,0.0,0.0,0.0,0.0,0.0,0.0,0.0,0.0,0.0,0.0,0.0,0.0,0.0,0.0,0.0,0.0,0.0,0.0,0.0,0.0,0.0,0.0,0.0,0.0,0.0,0.0,0.0,0.0,0.0,0.0,0.0,0.0,0.0,0.0,0.0,0.0,0.0,0.0,0.0,0.0,0.0,0.0,0.0,0.0,0.0,0.0,0.0,0.0,0.0,0.0,0.0,0.0,0.0,0.0,0.0,0.0,0.0,0.0,0.0,0.0,0.0,0.0,0.0,0.0,0.0,0.0,0.0,0.0,0.0,0.0,0.0,0.0,0.0,0.0,0.0,0.0,0.0,0.0,0.0,0.0,0.0,0.0,0.0,0.0,0.0,0.0,0.0,0.0,0.0,0.0,0.0,0.0,0.0,0.0,0.0,0.0,0.0,0.0,0.0,0.0,0.0,0.0,0.0,0.0,0.0,0.0,0.0,0.0,0.0,0.0,0.0,0.0,0.0,0.0,0.0,0.0,0.0,0.0,0.0,0.0,0.0,0.0,0.0,0.0,0.0,0.0,0.0,0.0,0.0,0.0,0.0,0.0,0.0,0.0,0.0,0.0,0.0,0.0,0.0,0.0,0.0,0.0,0.0,0.0,0.0,0.0,0.0,0.0,0.0,0.0,0.0,0.0,0.0,0.0,0.0,0.0,0.0,0.0,0.0,0.0,0.0,0.0,0.0,0.0,0.0,0.0,0.0,0.0,0.0,0.0,0.0,0.0,0.0,0.0,0.0,0.0,0.0,0.0,0.0,0.0,0.0,0.0,0.0,0.0,0.0,0.0,0.0,0.0,0.0,0.0,0.0,0.0,0.0,0.0,0.0,0.0,0.0,0.0,0.0,0.0,0.0,0.0,0.0,0.0,0.0,0.0,0.0,0.0,0.0,0.0,0.0,0.0,0.0,0.0,0.0,0.0,0.0,0.0,0.0,0.0,0.0,0.0,0.0,0.0,0.0,0.0,0.0,0.0,0.0,0.0,0.0,0.0,0.0,0.0,0.0,0.0,0.0,0.0,0.0,0.0,0.0,0.0,0.0,0.0,0.0,0.0,0.0,0.0,0.0,0.0,0.0,0.0,0.0,0.0,0.0,0.0,0.0,0.0,0.0,0.0,0.0,0.0,0.0,0.0,0.0,0.0,0.0,0.0,0.0,0.0,0.0,0.0,0.0,0.0,0.0,0.0,0.0,0.0,0.0,0.0,0.0,0.0,0.0,0.0,0.0,0.0,0.0,0.0,0.0,0.0,0.0,0.0,0.0,0.0,0.0,0.0,0.0,0.0,0.0,0.0,0.0,0.0,0.0,0.0,0.0,0.0,0.0,0.0,0.0,0.0,0.0,0.0,0.0,0.0,0.0,0.0,0.0,0.0,0.0,0.0,0.0,0.0,0.0,0.0,0.0,0.0,0.0,0.0,0.0,0.0,0.0,0.0,0.0,0.0,0.0,0.0,0.0,0.0,0.0,0.0,0.0,0.0,0.0,0.0,0.0,0.0,0.0,0.0,0.0,0.0,0.0,0.0,0.0,0.0,0.0,0.0,0.0,0.0,0.0,0.0,-2.2169,0.0,0.0,0.0,0.0,0.0,0.0,0.0,0.0,0.0,0.0,0.0,0.0,0.0,0.0,0.0,0.0,0.0,0.0,0.0,0.0,0.0,0.0,0.0,0.0,0.0,0.0,0.0,0.0,0.0,0.0,0.0,0.0,0.0,0.0,0.0,0.0,0.0,0.0,0.0,0.0,0.0,0.0,0.0,0.0,0.0,0.0,0.0,0.0,0.0,0.0,0.0,0.0,0.0,0.0,0.0,0.0,0.0,0.0,0.0,0.0,0.0,0.0,0.0,0.0,0.0,0.0,0.0,0.0,0.0,0.0,0.0,0.0,0.0,0.0,0.0,0.0,0.0,0.0,0.0,0.0,0.0,0.0,0.0,0.0,0.0,0.0,0.0,0.0,0.0,0.0,0.0,0.0,0.0,0.0,0.0,0.0,0.0,0.0,0.0,0.0,0.0,0.0,0.0,0.0,0.0,0.0,0.0,0.0,0.0,0.0,-0.9492,-1.3846,-1.7488,-2.0259,-2.1969,0.0,0.0,0.0,0.0,0.0,0.0,0.0,0.0,0.0,0.0,0.0,0.0,0.0,0.0,0.0,0.0,0.0,0.0,0.0,0.0,0.0,0.0,0.0,0.0,0.0,0.0,0.0,0.0,0.0,0.0,0.0,0.0,0.0,0.0,0.0,0.0,0.0,0.0,0.0,0.0,0.0,0.0,0.0,0.0,0.0,0.0,0.0,0.0,0.0,0.0,0.0,0.0,0.0,0.0,0.0,0.0,0.0,0.0,0.0,0.0,0.0,0.0,0.0,0.0,0.0,0.0,0.0,0.0,0.0,0.0,0.0,0.0,0.0,0.0,0.0,0.0,0.0,0.0,0.0,0.0,0.0,0.0,0.0,0.0,0.0,0.0,0.0,0.0,0.0,0.0,0.0,0.0,0.0,0.0,0.0,0.0,0.0,0.0,0.0,0.0,0.0,0.0,0.0,0.0,0.0,0.0,0.0,0.0,0.0,0.0,0.0,0.0,-1.8588,-2.0541,-2.1599,0.0,0.0,0.0,0.0,0.0,0.0,0.0,0.0,0.0,0.0,0.0,0.0,0.0,0.0,0.0,0.0,0.0,0.0,0.0,0.0,0.0,0.0,0.0,0.0,0.0,0.0,0.0,0.0,0.0,0.0,0.0,0.0,0.0,0.0,0.0,0.0,0.0,0.0,0.0,0.0,0.0,0.0,0.0,0.0,0.0,0.0,0.0,0.0,0.0,0.0,0.0,0.0,0.0,0.0,0.0,0.0,0.0,0.0,0.0,0.0,0.0,0.0,0.0,0.0,0.0,0.0,0.0,0.0,0.0,0.0,0.0,0.0,0.0,0.0,0.0,0.0,0.0,0.0,0.0,0.0,0.0,0.0,0.0,0.0,0.0,0.0,0.0,0.0,0.0,0.0,0.0,0.0,0.0,0.0,0.0,0.0,0.0,0.0,0.0,0.0,0.0,0.0,0.0,0.0,0.0,0.0,0.0,0.0,0.0,0.0,-1.4338,-2.2482,-2.2034,0.0,-2.1601,0.0,0.0,0.0,0.0,0.0,0.0,0.0,0.0,0.0,0.0,0.0,0.0,0.0,0.0,0.0,0.0,0.0,0.0,0.0,0.0,0.0,0.0,0.0,0.0,0.0,0.0,0.0,0.0,0.0,0.0,0.0,0.0,0.0,0.0,0.0,0.0,0.0,0.0,0.0,0.0,0.0,0.0,0.0,0.0,0.0,0.0,0.0,0.0,0.0,0.0,0.0,0.0,0.0,0.0,0.0,0.0,0.0,0.0,0.0,0.0,0.0,0.0,0.0,0.0,0.0,0.0,0.0,0.0,0.0,0.0,0.0,0.0,0.0,0.0,0.0,0.0,0.0,0.0,0.0,0.0,0.0,0.0,0.0,0.0,0.0,0.0,0.0,0.0,0.0,0.0,0.0,0.0,0.0,0.0,0.0,0.0,0.0,0.0,0.0,0.0,0.0,0.0,0.0,0.0,0.0,0.0,0.0,0.0,0.0,0.0,0.0,-1.773,-2.0558,-2.1632,0.0,0.0,0.0,0.0,0.0,0.0,0.0,0.0,0.0,0.0,0.0,0.0,0.0,0.0,0.0,0.0,0.0,0.0,0.0,0.0,0.0,0.0,0.0,0.0,0.0,0.0,0.0,0.0,0.0,0.0,0.0,0.0,0.0,0.0,0.0,0.0,0.0,0.0,0.0,0.0,0.0,0.0,0.0,0.0,0.0,0.0,0.0,0.0,0.0,0.0,0.0,0.0,0.0,0.0,0.0,0.0,0.0,0.0,0.0,0.0,0.0,0.0,0.0,0.0,0.0,0.0,0.0,0.0,0.0,0.0,0.0,0.0,0.0,0.0,0.0,0.0,0.0,0.0,0.0,0.0,0.0,0.0,0.0,0.0,0.0,0.0,0.0,0.0,0.0,0.0,0.0,0.0,0.0,0.0,0.0,0.0,0.0,0.0,0.0,0.0,0.0,0.0,0.0,0.0,0.0,0.0,0.0,0.0,0.0,0.0,-0.6012,0.0,-1.624,-2.0102,-2.1582,-2.0692,0.0,0.0,0.0,0.0,0.0,0.0,0.0,0.0,0.0,0.0,0.0,0.0,0.0,0.0,0.0,0.0,0.0,0.0,0.0,0.0,0.0,0.0,0.0,0.0,0.0,0.0,0.0,0.0,0.0,0.0,0.0,0.0,0.0,0.0,0.0,0.0,0.0,0.0,0.0,0.0,0.0,0.0,0.0,0.0,0.0,0.0,0.0,0.0,0.0,0.0,0.0,0.0,0.0,0.0,0.0,0.0,0.0,0.0,0.0,0.0,0.0,0.0,0.0,0.0,0.0,0.0,0.0,0.0,0.0,0.0,0.0,0.0,0.0,0.0,0.0,0.0,0.0,0.0,0.0,0.0,0.0,0.0,0.0,0.0,0.0,0.0,0.0,0.0,0.0,0.0,0.0,0.0,0.0,0.0,0.0,0.0,0.0,0.0,0.0,0.0,0.0,0.0,0.0,0.0,0.0,0.0,0.0,0.0,0.0,-0.8078,-1.2021,-2.2534,-2.2275,-2.181,0.0,0.0,0.0,0.0,0.0,0.0,0.0,0.0,0.0,0.0,0.0,0.0,0.0,0.0,0.0,0.0,0.0,0.0,0.0,0.0,0.0,0.0,0.0,0.0,0.0,0.0,0.0,0.0,0.0,0.0,0.0,0.0,0.0,0.0,0.0,0.0,0.0,0.0,0.0,0.0,0.0,0.0,0.0,0.0,0.0,0.0,0.0,0.0,0.0,0.0,0.0,0.0,0.0,0.0,0.0,0.0,0.0,0.0,0.0,0.0,0.0,0.0,0.0,0.0,0.0,0.0,0.0,0.0,0.0,0.0,0.0,0.0,0.0,0.0,0.0,0.0,0.0,0.0,0.0,0.0,0.0,0.0,0.0,0.0,0.0,0.0,0.0,0.0,0.0,0.0,0.0,0.0,0.0,0.0,0.0,0.0,0.0,0.0,0.0,0.0,0.0,0.0,0.0,0.0,0.0,0.0,0.0,0.0,0.0,-0.218,-0.8575,-1.5488,-2.2508,-2.2621,-2.2399,0.0,0.0,0.0,0.0,0.0,0.0,0.0,0.0,0.0,0.0,0.0,0.0,0.0,0.0,0.0,0.0,0.0,0.0,0.0,0.0,0.0,0.0,0.0,0.0,0.0,0.0,0.0,0.0,0.0,0.0,0.0,0.0,0.0,0.0,0.0,0.0,0.0,0.0,0.0,0.0,0.0,0.0,0.0,0.0,0.0,0.0,0.0,0.0,0.0,0.0,0.0,0.0,0.0,0.0,0.0,0.0,0.0,0.0,0.0,0.0,0.0,0.0,0.0,0.0,0.0,0.0,0.0,0.0,0.0,0.0,0.0,0.0,0.0,0.0,0.0,0.0,0.0,0.0,0.0,0.0,0.0,0.0,0.0,0.0,0.0,0.0,0.0,0.0,0.0,0.0,0.0,0.0,0.0,0.0,0.0,0.0,0.0,0.0,0.0,0.0,0.0,0.0,0.0,0.0,0.0,0.0,0.0,0.0,0.0,-0.3336,0.0,-2.026,0.0,-2.2966,-2.2558,0.0,0.0,0.0,0.0,0.0,0.0,0.0,0.0,0.0,0.0,0.0,0.0,0.0,0.0,0.0,0.0,0.0,0.0,0.0,0.0,0.0,0.0,0.0,0.0,0.0,0.0,0.0,0.0,0.0,0.0,0.0,0.0,0.0,0.0,0.0,0.0,0.0,0.0,0.0,0.0,0.0,0.0,0.0,0.0,0.0,0.0,0.0,0.0,0.0,0.0,0.0,0.0,0.0,0.0,0.0,0.0,0.0,0.0,0.0,0.0,0.0,0.0,0.0,0.0,0.0,0.0,0.0,0.0,0.0,0.0,0.0,0.0,0.0,0.0,0.0,0.0,0.0,0.0,0.0,0.0,0.0,0.0,0.0,0.0,0.0,0.0,0.0,0.0,0.0,0.0,0.0,0.0,0.0,0.0,0.0,0.0,0.0,0.0,0.0,0.0,0.0,0.0,0.0,0.0,0.0,0.0,0.0,0.0,-0.4211,-1.5564,-2.2789,-2.5804,-2.4936,-2.3438,-2.2234,0.0,0.0,0.0,0.0,0.0,0.0,0.0,0.0,0.0,0.0,0.0,0.0,0.0,0.0,0.0,0.0,0.0,0.0,0.0,0.0,0.0,0.0,0.0,0.0,0.0,0.0,0.0,0.0,0.0,0.0,0.0,0.0,0.0,0.0,0.0,0.0,0.0,0.0,0.0,0.0,0.0,0.0,0.0,0.0,0.0,0.0,0.0,0.0,0.0,0.0,0.0,0.0,0.0,0.0,0.0,0.0,0.0,0.0,0.0,0.0,0.0,0.0,0.0,0.0,0.0,0.0,0.0,0.0,0.0,0.0,0.0,0.0,0.0,0.0,0.0,0.0,0.0,0.0,0.0,0.0,0.0,0.0,0.0,0.0,0.0,0.0,0.0,0.0,0.0,0.0,0.0,0.0,0.0,0.0,0.0,0.0,0.0,0.0,0.0,0.0,0.0,0.0,0.0,0.0,0.0,0.0,0.0,0.0,0.0,-2.0481,-2.3914,-2.5846,-2.6057,-2.4206,-2.3277,0.0,0.0,0.0,0.0,0.0,0.0,0.0,0.0,0.0,0.0,0.0,0.0,0.0,0.0,0.0,0.0,0.0,0.0,0.0,0.0,0.0,0.0,0.0,0.0,0.0,0.0,0.0,0.0,0.0,0.0,0.0,0.0,0.0,0.0,0.0,0.0,0.0,0.0,0.0,0.0,0.0,0.0,0.0,0.0,0.0,0.0,0.0,0.0,0.0,0.0,0.0,0.0,0.0,0.0,0.0,0.0,0.0,0.0,0.0,0.0,0.0,0.0,0.0,0.0,0.0,0.0,0.0,0.0,0.0,0.0,0.0,0.0,0.0,0.0,0.0,0.0,0.0,0.0,0.0,0.0,0.0,0.0,0.0,0.0,0.0,0.0,0.0,0.0,0.0,0.0,0.0,0.0,0.0,0.0,0.0,0.0,0.0,0.0,0.0,0.0,0.0,0.0,0.0,0.0,0.0,0.0,0.0,0.0,0.0,-2.4068,-2.5457,-2.645,-2.6993,-2.4986,-2.3937,-2.402,0.0,0.0,0.0,0.0,0.0,0.0,0.0,0.0,0.0,0.0,0.0,0.0,0.0,0.0,0.0,0.0,0.0,0.0,0.0,0.0,0.0,0.0,0.0,0.0,0.0,0.0,0.0,0.0,0.0,0.0,0.0,0.0,0.0,0.0,0.0,0.0,0.0,0.0,0.0,0.0,0.0,0.0,0.0,0.0,0.0,0.0,0.0,0.0,0.0,0.0,0.0,0.0,0.0,0.0,0.0,0.0,0.0,0.0,0.0,0.0,0.0,0.0,0.0,0.0,0.0,0.0,0.0,0.0,0.0,0.0,0.0,0.0,0.0,0.0,0.0,0.0,0.0,0.0,0.0,0.0,0.0,0.0,0.0,0.0,0.0,0.0,0.0,0.0,0.0,0.0,0.0,0.0,0.0,0.0,0.0,0.0,0.0,0.0,0.0,0.0,0.0,0.0,0.0,0.0,0.0,0.0,0.0,0.0,-2.6375,-2.7379,-2.7786,-2.7573,-2.57,-2.4312,0.0,0.0,0.0,0.0,0.0,0.0,0.0,0.0,0.0,0.0,0.0,0.0,0.0,0.0,0.0,0.0,0.0,0.0,0.0,0.0,0.0,0.0,0.0,0.0,0.0,0.0,0.0,0.0,0.0,0.0,0.0,0.0,0.0,0.0,0.0,0.0,0.0,0.0,0.0,0.0,0.0,0.0,0.0,0.0,0.0,0.0,0.0,0.0,0.0,0.0,0.0,0.0,0.0,0.0,0.0,0.0,0.0,0.0,0.0,0.0,0.0,0.0,0.0,0.0,0.0,0.0,0.0,0.0,0.0,0.0,0.0,0.0,0.0,0.0,0.0,0.0,0.0,0.0,0.0,0.0,0.0,0.0,0.0,0.0,0.0,0.0,0.0,0.0,0.0,0.0,0.0,0.0,0.0,0.0,0.0,0.0,0.0,0.0,0.0,0.0,0.0,0.0,0.0,0.0,0.0,0.0,0.0,0.0,0.0,-2.6307,-2.7407,-2.8125,-2.8391,-2.5974,-2.4524,0.0,0.0,0.0,0.0,0.0,0.0,0.0,0.0,0.0,0.0,0.0,0.0,0.0,0.0,0.0,0.0,0.0,0.0,0.0,0.0,0.0,0.0,0.0,0.0,0.0,0.0,0.0,0.0,0.0,0.0,0.0,0.0,0.0,0.0,0.0,0.0,0.0,0.0,0.0,0.0,0.0,0.0,0.0,0.0,0.0,0.0,0.0,0.0,0.0,0.0,0.0,0.0,0.0,0.0,0.0,0.0,0.0,0.0,0.0,0.0,0.0,0.0,0.0,0.0,0.0,0.0,0.0,0.0,0.0,0.0,0.0,0.0,0.0,0.0,0.0,0.0,0.0,0.0,0.0,0.0,0.0,0.0,0.0,0.0,0.0,0.0,0.0,0.0,0.0,0.0,0.0,0.0,0.0,0.0,0.0,0.0,0.0,0.0,0.0,0.0,0.0,0.0,0.0,0.0,0.0,0.0,0.0,0.0,-2.5742,-2.7019,-2.7647,-2.8233,-2.8785,-2.6656,-2.5385,0.0,0.0,0.0,0.0,0.0,0.0,0.0,0.0,0.0,0.0,0.0,0.0,0.0,0.0,0.0,0.0,0.0,0.0,0.0,0.0,0.0,0.0,0.0,0.0,0.0,0.0,0.0,0.0,0.0,0.0,0.0,0.0,0.0,0.0,0.0,0.0,0.0,0.0,0.0,0.0,0.0,0.0,0.0,0.0,0.0,0.0,0.0,0.0,0.0,0.0,0.0,0.0,0.0,0.0,0.0,0.0,0.0,0.0,0.0,0.0,0.0,0.0,0.0,0.0,0.0,0.0,0.0,0.0,0.0,0.0,0.0,0.0,0.0,0.0,0.0,0.0,0.0,0.0,0.0,0.0,0.0,0.0,0.0,0.0,0.0,0.0,0.0,0.0,0.0,0.0,0.0,0.0,0.0,0.0,0.0,0.0,0.0,0.0,0.0,0.0,0.0,0.0,0.0,0.0,0.0,0.0,0.0,0.0,-2.6151,-2.8027,-2.7982,-2.8174,-2.8719,-2.7444,-2.643,0.0,0.0,0.0,0.0,0.0,0.0,0.0,0.0,0.0,0.0,0.0,0.0,0.0,0.0,0.0,0.0,0.0,0.0,0.0,0.0,0.0,0.0,0.0,0.0,0.0,0.0,0.0,0.0,0.0,0.0,0.0,0.0,0.0,0.0,0.0,0.0,0.0,0.0,0.0,0.0,0.0,0.0,0.0,0.0,0.0,0.0,0.0,0.0,0.0,0.0,0.0,0.0,0.0,0.0,0.0,0.0,0.0,0.0,0.0,0.0,0.0,0.0,0.0,0.0,0.0,0.0,0.0,0.0,0.0,0.0,0.0,0.0,0.0,0.0,0.0,0.0,0.0,0.0,0.0,0.0,0.0,0.0,0.0,0.0,0.0,0.0,0.0,0.0,0.0,0.0,0.0,0.0,0.0,0.0,0.0,0.0,0.0,0.0,0.0,0.0,0.0,0.0,0.0,0.0,0.0,0.0,0.0,0.0,-2.67,-2.7966,-2.794,-2.8192,-2.8767,-2.7388,-2.6403,0.0,0.0,0.0,0.0,0.0,0.0,0.0,0.0,0.0,0.0,0.0,0.0,0.0,0.0,0.0,0.0,0.0,0.0,0.0,0.0,0.0,0.0,0.0,0.0,0.0,0.0,0.0,0.0,0.0,0.0,0.0,0.0,0.0,0.0,0.0,0.0,0.0,0.0,0.0,0.0,0.0,0.0,0.0,0.0,0.0,0.0,0.0,0.0,-2.225,0.0,0.0,0.0,0.0,0.0,0.0,0.0,0.0,0.0,0.0,0.0,0.0,0.0,0.0,0.0,0.0,0.0,0.0,0.0,0.0,0.0,0.0,0.0,0.0,0.0,0.0,0.0,0.0,0.0,0.0,0.0,0.0,0.0,0.0,0.0,0.0,0.0,0.0,0.0,0.0,0.0,0.0,0.0,0.0,0.0,0.0,0.0,0.0,0.0,0.0,0.0,0.0,0.0,0.0,0.0,0.0,0.0,0.0,0.0,-2.7383,-2.8012,-2.7954,-2.8174,-2.8737,-2.7986,-2.7204,0.0,0.0,0.0,0.0,0.0,0.0,0.0,0.0,0.0,0.0,0.0,0.0,0.0,0.0,0.0,0.0,0.0,0.0,0.0,0.0,0.0,0.0,0.0,0.0,0.0,0.0,0.0,0.0,0.0,0.0,0.0,0.0,0.0,0.0,0.0,0.0,0.0,0.0,0.0,0.0,0.0,0.0,0.0,0.0,0.0,0.0,0.0,0.0,0.0,0.0,0.0,0.0,0.0,0.0,0.0,0.0,0.0,0.0,0.0,0.0,0.0,0.0,0.0,0.0,0.0,0.0,0.0,0.0,0.0,0.0,0.0,0.0,0.0,0.0,0.0,0.0,0.0,0.0,0.0,0.0,0.0,0.0,0.0,0.0,0.0,0.0,0.0,0.0,0.0,0.0,0.0,0.0,0.0,0.0,0.0,0.0,0.0,0.0,0.0,0.0,0.0,0.0,0.0,0.0,0.0,0.0,0.0,-2.7399,-2.7897,-2.8057,-2.7936,-2.8161,-2.8743,-2.8573,-2.8083,-2.7217,0.0,0.0,0.0,0.0,0.0,0.0,0.0,0.0,0.0,0.0,0.0,0.0,0.0,0.0,0.0,0.0,0.0,0.0,0.0,0.0,0.0,0.0,0.0,0.0,0.0,0.0,0.0,0.0,0.0,0.0,0.0,0.0,0.0,0.0,0.0,0.0,0.0,0.0,-2.0433,-2.1766,0.0,0.0,0.0,0.0,0.0,0.0,0.0,0.0,-2.4562,0.0,0.0,0.0,0.0,0.0,0.0,0.0,0.0,0.0,0.0,0.0,0.0,0.0,0.0,0.0,0.0,0.0,0.0,0.0,0.0,0.0,0.0,0.0,0.0,0.0,0.0,0.0,0.0,0.0,0.0,0.0,0.0,0.0,0.0,0.0,0.0,0.0,0.0,0.0,0.0,0.0,0.0,0.0,0.0,0.0,0.0,0.0,0.0,0.0,0.0,0.0,0.0,0.0,0.0,0.0,0.0,-2.7327,-2.7442,-2.7627,-2.7918,-2.7858,-2.811,-2.8663,-2.814,-2.765,-2.7223,0.0,0.0,0.0,0.0,0.0,0.0,0.0,0.0,0.0,0.0,0.0,0.0,0.0,0.0,0.0,0.0,0.0,0.0,0.0,0.0,0.0,0.0,0.0,0.0,0.0,0.0,0.0,0.0,0.0,0.0,0.0,0.0,0.0,0.0,0.0,0.0,0.0,0.0,0.0,-2.3157,-2.3378,0.0,0.0,0.0,0.0,0.0,0.0,0.0,0.0,-2.6524,0.0,0.0,0.0,0.0,0.0,0.0,0.0,0.0,0.0,0.0,0.0,0.0,0.0,0.0,0.0,0.0,0.0,0.0,0.0,0.0,0.0,0.0,0.0,0.0,0.0,0.0,0.0,0.0,0.0,0.0,0.0,0.0,0.0,0.0,0.0,0.0,0.0,0.0,0.0,0.0,0.0,0.0,0.0,0.0,0.0,0.0,0.0,0.0,0.0,0.0,0.0,0.0,0.0,0.0,0.0,-2.7535,-2.8227,-2.8358,-2.7929,-2.8017,-2.8282,-2.8663,-2.8047,-2.7558,0.0,0.0,0.0,0.0,0.0,0.0,0.0,0.0,0.0,0.0,0.0,0.0,0.0,0.0,0.0,0.0,0.0,0.0,0.0,0.0,0.0,0.0,0.0,0.0,0.0,0.0,0.0,0.0,0.0,0.0,0.0,0.0,0.0,0.0,0.0,0.0,0.0,0.0,0.0,0.0,-2.4008,-2.499,-2.5549,0.0,0.0,0.0,0.0,0.0,0.0,-2.5916,-2.6935,0.0,0.0,0.0,0.0,0.0,0.0,0.0,0.0,0.0,0.0,0.0,0.0,0.0,0.0,0.0,0.0,0.0,0.0,0.0,0.0,0.0,0.0,0.0,0.0,0.0,0.0,0.0,0.0,0.0,0.0,0.0,0.0,0.0,0.0,0.0,0.0,0.0,0.0,0.0,0.0,0.0,0.0,0.0,0.0,0.0,0.0,0.0,0.0,0.0,0.0,0.0,0.0,0.0,0.0,0.0,-2.7787,-2.8959,-2.9037,-2.7925,-2.8128,-2.8401,-2.8651,-2.7944,-2.7447,0.0,0.0,0.0,0.0,0.0,0.0,0.0,0.0,0.0,0.0,0.0,0.0,0.0,0.0,0.0,0.0,0.0,0.0,0.0,0.0,0.0,0.0,0.0,0.0,0.0,0.0,0.0,0.0,0.0,0.0,0.0,0.0,0.0,0.0,0.0,0.0,0.0,0.0,0.0,0.0,0.0,-2.6774,-2.7297,-2.7528,0.0,0.0,0.0,0.0,-2.4326,-2.6333,0.0,0.0,0.0,0.0,0.0,0.0,0.0,0.0,0.0,0.0,0.0,0.0,0.0,0.0,0.0,0.0,0.0,0.0,0.0,0.0,0.0,0.0,0.0,0.0,0.0,0.0,0.0,0.0,0.0,0.0,0.0,0.0,0.0,0.0,0.0,0.0,0.0,0.0,0.0,0.0,0.0,0.0,0.0,0.0,0.0,0.0,0.0,0.0,0.0,0.0,0.0,0.0,0.0,0.0,0.0,0.0,-2.8477,-2.9004,-2.8752,-2.7795,-2.7982,-2.8268,-2.8576,-2.7614,-2.7126,0.0,0.0,0.0,0.0,0.0,0.0,0.0,0.0,0.0,0.0,0.0,0.0,0.0,0.0,0.0,0.0,0.0,0.0,0.0,0.0,0.0,0.0,0.0,0.0,0.0,0.0,0.0,0.0,0.0,0.0,0.0,0.0,0.0,0.0,0.0,0.0,0.0,0.0,0.0,0.0,0.0,-2.7923,-2.7396,-2.7964,-2.8164,0.0,0.0,-2.7623,-2.8924,-2.9433,0.0,0.0,0.0,0.0,0.0,0.0,0.0,0.0,0.0,0.0,0.0,0.0,0.0,0.0,0.0,0.0,0.0,0.0,0.0,0.0,0.0,0.0,0.0,0.0,0.0,0.0,0.0,0.0,0.0,0.0,0.0,0.0,0.0,0.0,0.0,0.0,0.0,0.0,0.0,0.0,0.0,0.0,0.0,0.0,0.0,0.0,0.0,0.0,0.0,0.0,0.0,0.0,0.0,0.0,0.0,-2.7672,-2.7885,-2.8591,-2.8553,-2.7766,-2.8151,-2.8448,-2.86,-2.7573,-2.7058,0.0,0.0,0.0,0.0,0.0,0.0,0.0,0.0,0.0,0.0,0.0,0.0,0.0,0.0,0.0,0.0,0.0,0.0,0.0,0.0,0.0,0.0,0.0,0.0,0.0,0.0,0.0,0.0,0.0,0.0,0.0,0.0,0.0,0.0,0.0,0.0,0.0,0.0,0.0,0.0,0.0,0.0,-2.7298,-2.8844,0.0,0.0,0.0,-2.8482,-2.797,0.0,0.0,0.0,0.0,0.0,0.0,0.0,0.0,0.0,0.0,0.0,0.0,0.0,0.0,0.0,0.0,0.0,0.0,0.0,0.0,0.0,0.0,0.0,0.0,0.0,0.0,0.0,0.0,0.0,0.0,0.0,0.0,0.0,0.0,0.0,0.0,0.0,0.0,0.0,0.0,0.0,0.0,0.0,0.0,0.0,0.0,0.0,0.0,0.0,0.0,0.0,0.0,0.0,0.0,0.0,0.0,0.0,-2.7298,-2.83,-2.8458,-2.7719,-2.8268,-2.8478,-2.8311,-2.7405,0.0,0.0,0.0,0.0,0.0,0.0,0.0,0.0,0.0,0.0,0.0,0.0,0.0,0.0,0.0,0.0,0.0,0.0,0.0,0.0,0.0,0.0,0.0,0.0,0.0,0.0,0.0,-1.8963,0.0,0.0,0.0,0.0,0.0,0.0,0.0,0.0,0.0,0.0,0.0,0.0,0.0,0.0,-2.7477,-2.7484,-2.9312,-3.0663,0.0,0.0,-2.9078,-2.8001,-2.9136,-2.9561,0.0,0.0,0.0,0.0,0.0,0.0,0.0,0.0,0.0,0.0,0.0,0.0,0.0,0.0,0.0,0.0,0.0,0.0,0.0,0.0,0.0,0.0,0.0,0.0,0.0,0.0,0.0,0.0,0.0,0.0,0.0,0.0,0.0,0.0,0.0,0.0,0.0,0.0,0.0,0.0,0.0,0.0,0.0,0.0,0.0,0.0,0.0,0.0,0.0,0.0,0.0,0.0,0.0,0.0,0.0,-2.726,-2.8255,-2.8393,-2.7677,-2.8197,-2.8213,-2.7598,-2.7007,-2.6548,0.0,0.0,0.0,0.0,0.0,0.0,0.0,0.0,0.0,0.0,0.0,0.0,0.0,0.0,0.0,0.0,0.0,0.0,0.0,0.0,0.0,0.0,0.0,0.0,0.0,0.0,0.0,0.0,0.0,0.0,0.0,0.0,0.0,0.0,0.0,0.0,0.0,0.0,0.0,0.0,0.0,-2.8032,-2.8203,-2.9008,-3.0227,0.0,0.0,-2.9512,-3.1648,-3.1351,-3.09,-3.0854,0.0,0.0,0.0,0.0,0.0,0.0,0.0,0.0,0.0,0.0,0.0,0.0,0.0,0.0,0.0,0.0,0.0,0.0,0.0,0.0,0.0,0.0,0.0,0.0,0.0,0.0,0.0,0.0,0.0,0.0,0.0,0.0,0.0,0.0,0.0,0.0,0.0,0.0,0.0,0.0,0.0,0.0,0.0,0.0,0.0,0.0,0.0,0.0,0.0,0.0,0.0,0.0,0.0,-2.6453,-2.6706,-2.7076,-2.721,-2.7113,-2.7043,-2.6941,-2.6763,-2.6281,-2.6053,0.0,0.0,0.0,0.0,0.0,0.0,0.0,0.0,0.0,0.0,0.0,0.0,0.0,0.0,0.0,0.0,0.0,0.0,0.0,0.0,0.0,0.0,0.0,0.0,0.0,0.0,0.0,0.0,-2.0568,-2.0881,-2.1262,0.0,0.0,0.0,0.0,0.0,0.0,0.0,0.0,0.0,0.0,-2.7559,-2.8598,-2.958,0.0,0.0,-3.0987,-3.0626,-3.2117,-3.159,-3.0845,-3.0347,-3.0095,0.0,0.0,0.0,0.0,0.0,0.0,0.0,0.0,0.0,0.0,0.0,0.0,0.0,0.0,0.0,0.0,0.0,0.0,0.0,0.0,0.0,0.0,0.0,0.0,0.0,0.0,0.0,0.0,0.0,0.0,0.0,0.0,0.0,0.0,0.0,0.0,0.0,0.0,0.0,0.0,0.0,0.0,0.0,0.0,0.0,0.0,0.0,0.0,0.0,0.0,0.0,0.0,-2.6118,-2.6757,-2.6459,-2.6463,-2.6776,-2.632,-2.6056,-2.5979,-2.5649,-2.5547,0.0,0.0,0.0,0.0,0.0,0.0,0.0,0.0,0.0,0.0,0.0,0.0,0.0,0.0,0.0,0.0,0.0,0.0,0.0,0.0,0.0,0.0,0.0,0.0,0.0,0.0,0.0,0.0,-2.141,-2.1696,-2.1783,0.0,0.0,0.0,0.0,0.0,0.0,0.0,0.0,0.0,0.0,-2.7515,-2.8425,-2.9695,-3.0876,-3.1803,-3.1382,-3.1346,-3.242,-3.1921,-3.1167,-3.0528,0.0,0.0,0.0,0.0,0.0,0.0,0.0,0.0,0.0,0.0,0.0,0.0,0.0,0.0,0.0,0.0,0.0,0.0,0.0,0.0,0.0,0.0,0.0,0.0,0.0,0.0,0.0,0.0,0.0,0.0,-2.3164,0.0,0.0,0.0,0.0,0.0,0.0,0.0,0.0,0.0,0.0,0.0,0.0,0.0,0.0,0.0,0.0,0.0,0.0,0.0,0.0,0.0,0.0,-2.6375,-2.7524,-2.6681,-2.6417,-2.6676,-2.6231,-2.5721,-2.5251,-2.5218,-2.5088,-2.4866,0.0,0.0,0.0,0.0,0.0,0.0,0.0,0.0,0.0,0.0,0.0,0.0,0.0,0.0,0.0,0.0,0.0,0.0,0.0,0.0,0.0,0.0,0.0,0.0,0.0,0.0,-1.9977,-2.0999,-2.1801,0.0,0.0,0.0,0.0,0.0,0.0,0.0,0.0,0.0,0.0,-2.6897,-2.8155,-2.7687,-2.9062,-3.0607,-3.1671,-3.1281,-3.1438,-3.2958,-3.2635,-3.2222,0.0,0.0,0.0,0.0,0.0,0.0,0.0,0.0,0.0,0.0,0.0,0.0,0.0,0.0,0.0,0.0,0.0,0.0,0.0,0.0,0.0,0.0,0.0,0.0,0.0,0.0,0.0,-2.4403,-2.3922,0.0,0.0,0.0,0.0,0.0,0.0,0.0,0.0,0.0,0.0,0.0,-2.6651,-2.6617,0.0,0.0,0.0,0.0,0.0,0.0,0.0,0.0,0.0,0.0,0.0,0.0,-2.6082,-2.6851,-2.5862,-2.5558,-2.6064,-2.4938,-2.4372,-2.4387,-2.4397,-2.4523,-2.481,0.0,0.0,0.0,0.0,0.0,0.0,0.0,0.0,0.0,0.0,0.0,0.0,0.0,0.0,0.0,0.0,0.0,0.0,0.0,0.0,0.0,0.0,0.0,0.0,0.0,-2.1705,0.0,0.0,0.0,0.0,0.0,0.0,0.0,0.0,0.0,0.0,0.0,-2.6995,-2.7209,-2.7903,-2.8694,-2.9503,-2.9926,-3.0662,0.0,0.0,0.0,0.0,0.0,0.0,0.0,0.0,0.0,0.0,0.0,0.0,0.0,0.0,-3.0762,-2.8441,-2.6417,-2.5039,-2.5115,0.0,0.0,0.0,0.0,0.0,0.0,0.0,0.0,0.0,0.0,0.0,0.0,0.0,0.0,-2.6185,0.0,-2.5404,0.0,0.0,0.0,0.0,0.0,0.0,0.0,0.0,-2.7409,-2.7815,-2.8344,-2.8325,-2.8526,0.0,-2.7897,-2.6639,0.0,0.0,0.0,0.0,0.0,0.0,0.0,0.0,-2.6325,-2.6948,-2.557,-2.5126,-2.5709,-2.429,-2.3667,-2.3968,-2.4114,-2.4345,-2.4676,-2.4875,-2.5037,0.0,0.0,0.0,0.0,0.0,0.0,0.0,0.0,0.0,0.0,0.0,0.0,0.0,0.0,0.0,0.0,0.0,0.0,0.0,0.0,0.0,0.0,0.0,-2.1658,0.0,0.0,0.0,0.0,0.0,0.0,0.0,0.0,0.0,-2.5372,-2.7487,-2.8907,-2.8578,-2.9122,-2.9625,-2.9812,0.0,0.0,0.0,0.0,0.0,0.0,0.0,-2.9821,-2.9306,-3.0623,-3.1958,-3.2723,-3.5072,-3.6652,-3.5969,0.0,0.0,-3.1507,-2.9362,-2.7922,-2.7684,-2.8106,-2.8349,-2.7781,-2.8544,-2.901,0.0,0.0,0.0,0.0,0.0,0.0,0.0,0.0,-2.8718,-2.8344,0.0,-2.7483,0.0,0.0,0.0,0.0,0.0,0.0,0.0,0.0,-2.9761,-3.0135,-2.9282,-2.9179,-2.9161,-2.916,-2.8868,-2.837,-2.7763,-2.7121,0.0,0.0,0.0,0.0,0.0,0.0,-2.7085,-2.7714,-2.5831,-2.5129,-2.5714,-2.4278,-2.3645,-2.3968,-2.4312,-2.45,-2.4498,-2.4705,-2.4791,-2.4822,-2.5112,0.0,0.0,0.0,0.0,0.0,0.0,0.0,0.0,0.0,0.0,0.0,0.0,0.0,0.0,0.0,0.0,0.0,0.0,0.0,0.0,-2.1025,0.0,0.0,0.0,0.0,0.0,0.0,0.0,0.0,0.0,0.0,-2.5706,-2.8111,-2.9646,-2.8827,0.0,0.0,0.0,0.0,-2.8506,-2.7921,-2.7991,-2.8513,-2.9388,-3.1427,-3.294,-3.2948,0.0,0.0,-3.6813,-3.7893,-3.7801,-3.4847,-3.5566,-3.6166,-3.4464,-3.2161,-3.0339,-2.9581,-2.9539,-2.9487,-2.9498,-2.9837,-2.985,-3.0186,0.0,0.0,0.0,0.0,-2.9902,-3.0335,-3.1763,-3.0385,-2.9833,-2.982,-2.9074,0.0,0.0,0.0,0.0,0.0,0.0,-2.8522,-2.8868,-2.9403,-2.9797,-3.0104,-3.0115,-3.0376,-3.0824,-2.9732,-2.9391,-2.9644,-2.8973,-2.846,-2.8172,0.0,0.0,0.0,0.0,-2.693,-2.6874,-2.5586,-2.5076,-2.5509,-2.4005,-2.3417,-2.3855,-2.4219,-2.4447,-2.45,-2.4543,-2.4652,-2.4793,-2.4885,0.0,0.0,0.0,0.0,0.0,0.0,0.0,0.0,0.0,0.0,0.0,0.0,0.0,0.0,0.0,0.0,0.0,0.0,0.0,-2.2222,-2.2496,-2.2557,0.0,0.0,0.0,0.0,0.0,0.0,0.0,0.0,0.0,-2.669,-2.7774,-2.8308,0.0,0.0,-2.8147,-2.7495,-2.8549,-2.9588,-3.0093,0.0,0.0,0.0,-3.0227,-2.9764,-3.0389,-3.2273,-3.3559,-3.3248,-3.4525,-3.5497,-3.5138,-3.551,-3.5665,-3.52,-3.4061,-3.3054,-3.2806,-3.2799,-3.2781,-3.2829,-3.3287,-3.3522,-3.183,-3.0968,-3.0539,-3.0983,-3.1843,-3.0918,-3.1274,-3.2449,-3.1182,-3.0634,-3.0604,-2.9884,-2.9274,-2.8797,-2.8652,0.0,0.0,0.0,-2.9054,-2.9254,-2.9271,-2.9419,-2.9669,-2.9665,-3.0026,-3.0654,-2.9803,-2.9753,-3.0489,-2.9932,-2.9573,-2.9354,0.0,0.0,-2.7935,-2.7689,-2.7317,-2.6805,-2.5551,-2.5065,-2.537,-2.4067,-2.3513,-2.3888,-2.4219,-2.4421,-2.4465,-2.4472,-2.4547,-2.4666,-2.4745,-2.4626,0.0,0.0,0.0,0.0,0.0,0.0,0.0,0.0,0.0,0.0,0.0,-2.4742,-2.3202,0.0,0.0,0.0,-2.1043,-2.1633,-2.2867,-2.3148,0.0,0.0,0.0,0.0,0.0,0.0,0.0,-2.5141,-2.6189,-2.7035,-2.7211,-2.7537,-2.8026,-2.8747,-2.9124,-2.913,-2.8532,0.0,-3.0121,-3.0098,-2.96,-2.9598,-3.0528,-3.0068,-3.0177,-3.2017,-3.3057,-3.3547,-3.33,-3.4315,-3.5107,-3.5064,-3.5256,-3.5398,-3.5045,-3.4544,-3.4216,-3.4216,-3.4216,-3.4216,-3.4216,-3.4624,-3.481,-3.3305,-3.3119,-3.2129,-3.1913,-3.2259,-3.219,-3.2161,-3.2109,-3.1385,-3.1043,-3.0942,-3.023,-2.9742,-2.9499,-2.9375,0.0,-2.9437,-3.0162,-3.0091,-2.938,-2.938,-2.9052,-2.8409,-2.8426,-2.8721,-2.9314,-2.9263,-2.9593,-3.0278,-3.0106,-3.0022,-3.0032,-3.0157,-2.9576,-2.8445,-2.8323,-2.795,-2.7235,-2.5743,-2.5059,-2.5238,-2.4307,-2.3868,-2.4026,-2.434,-2.4505,-2.4496,-2.4604,-2.4677,-2.4694,-2.4749,-2.4761,-2.4702,0.0,0.0,0.0,0.0,0.0,0.0,0.0,0.0,0.0,0.0,0.0,0.0,0.0,0.0,0.0,-2.1972,0.0,-2.3088,-2.3524,0.0,0.0,0.0,-2.6012,-2.6237,-2.6893,-2.7267,-2.71,0.0,0.0,-2.7495,0.0,-2.8601,-3.137,-3.2209,-3.199,-3.0529,-3.0514,-3.0254,-2.9007,-2.8415,-2.8503,-2.9796,-3.0972,-3.2785,-3.5386,-3.6482,-3.5962,-3.538,-3.577,-3.5733,-3.4531,-3.486,-3.5175,-3.4339,-3.4234,-3.4216,-3.4216,-3.4216,-3.4216,-3.4216,-3.4253,-3.4271,-3.282,-3.2369,-3.2037,-3.223,-3.2683,-3.2139,-3.2147,-3.2502,-3.1883,-3.1667,-3.17,-3.097,-3.055,-3.0378,-3.0351,-3.0309,-3.0252,-3.0419,-3.0099,-2.9397,-2.938,-2.9036,-2.8426,-2.8409,-2.8492,-2.8641,-2.8619,-2.8662,-2.8791,-2.9317,-2.9175,-2.8441,-2.9111,-2.9266,-2.8877,-2.7928,-2.7455,-2.7583,-2.6176,-2.5033,-2.4233,-2.4309,-2.4167,-2.3649,-2.4671,-2.5263,-2.5319,-2.5931,-2.6265,-2.6293,-2.579,-2.5221,-2.4731,-2.4113,0.0,0.0,0.0,0.0,0.0,0.0,0.0,0.0,0.0,-2.4856,-2.3657,0.0,-2.327,0.0,-2.3241,-2.4508,-2.6068,-2.6095,0.0,0.0,-2.6813,-2.6973,-2.6837,-2.7793,-2.8083,-2.7058,-2.7707,-2.84,-2.8802,-2.8988,-2.978,-3.1619,-3.0427,-2.9187,-2.8868,-2.9851,-3.0535,-3.0377,-3.064,-3.142,-3.2377,-3.3204,-3.3863,-3.4661,-3.481,-3.4729,-3.4531,-3.4661,-3.4643,-3.4271,-3.4346,-3.4401,-3.4234,-3.4216,-3.4216,-3.4216,-3.4216,-3.4216,-3.4216,-3.4197,-3.4197,-3.2512,-3.2383,-3.17,-3.1587,-3.1854,-3.152,-3.1562,-3.1772,-3.1558,-3.1449,-3.1395,-3.0978,-3.079,-3.0692,-3.063,-3.0589,-3.0472,-3.0141,-2.9632,-2.8936,-2.8605,-2.8092,-2.7429,-2.7412,-2.7576,-2.7819,-2.78,-2.7943,-2.8162,-2.8596,-2.8566,-2.8141,-2.8621,-2.8919,-2.8902,-2.7697,-2.7247,-2.768,-2.6328,-2.523,-2.4493,-2.4549,-2.4317,-2.3756,-2.4219,-2.4582,-2.4722,-2.5172,-2.5614,-2.6013,-2.5623,-2.5209,-2.4806,-2.4132,-2.3337,0.0,0.0,0.0,0.0,0.0,0.0,0.0,0.0,0.0,0.0,0.0,-2.47,0.0,-2.4968,-2.5969,-2.712,-2.7078,-2.7242,-2.7894,-2.8012,-2.8202,-2.8514,-2.9194,-2.94,-2.8845,-2.9379,-2.9982,-3.0542,-3.0751,-3.1149,-3.2143,-3.1071,-3.0145,-3.0151,-3.0894,-3.1484,-3.1622,-3.1828,-3.2288,-3.3241,-3.3852,-3.4216,-3.4216,-3.4216,-3.4216,-3.4216,-3.4216,-3.4216,-3.4216,-3.4216,-3.4216,-3.4216,-3.4216,-3.4216,-3.416,-3.39,-3.3677,-3.367,-3.367,-3.3584,-3.2343,-3.2645,-3.1358,-3.0725,-3.0607,-3.0785,-3.0813,-3.073,-3.0899,-3.0866,-3.072,-3.0707,-3.0708,-3.0671,-3.0547,-3.0489,-3.0456,-2.9843,-2.9165,-2.8508,-2.7744,-2.7031,-2.6352,-2.6334,-2.6594,-2.7078,-2.7175,-2.7514,-2.8059,-2.8217,-2.8329,-2.8455,-2.8598,-2.875,-2.885,-2.7661,-2.7184,-2.7495,-2.6357,-2.5635,-2.535,-2.4938,-2.4462,-2.3924,-2.3624,-2.3535,-2.36,-2.3851,-2.4344,-2.5069,-2.5132,-2.5146,-2.5076,-2.4303,-2.3853,0.0,-2.386,0.0,0.0,0.0,0.0,0.0,0.0,0.0,0.0,-2.6229,-2.618,-2.6588,-2.6852,-2.7165,-2.7585,-2.7617,-2.7998,-2.8897,-2.9065,-2.9473,-3.0385,-3.0485,-3.0654,-3.1027,-3.1044,-3.1281,-3.1969,-3.2162,-3.2214,-3.2352,-3.2297,-3.2122,-3.2196,-3.2297,-3.2431,-3.2467,-3.2168,-3.2076,-3.2604,-3.3278,-3.3833,-3.4055,-3.4048,-3.4086,-3.4179,-3.4216,-3.4216,-3.4216,-3.4216,-3.4216,-3.4216,-3.4197,-3.4129,-3.3999,-3.3467,-3.3059,-3.3034,-3.2915,-3.26,-3.2358,-3.1953,-3.1601,-3.1075,-3.0516,-3.0677,-3.0732,-3.0718,-3.0787,-3.0817,-3.078,-3.0734,-3.0651,-3.0547,-3.0526,-3.0489,-3.0489,-3.0294,-2.9848,-2.9181,-2.8392,-2.7682,-2.7098,-2.6988,-2.6998,-2.7128,-2.7594,-2.7856,-2.7972,-2.8857,-2.8898,-2.8135,-2.9074,-2.9512,-2.9381,0.0,0.0,0.0,-2.6561,-2.6272,-2.5661,-2.5483,-2.4759,-2.3435,-2.4098,0.0,-2.3688,-2.4908,-2.5691,-2.5804,-2.587,0.0,0.0,0.0,0.0,0.0,0.0,0.0,0.0,0.0,0.0,0.0,-2.605,-2.5889,-2.6754,-2.6961,-2.7405,-2.8305,-2.8455,-2.8863,-2.9785,-2.9882,-2.9946,-3.0128,-3.0198,-3.0273,-3.0489,-3.0464,-3.0593,-3.1007,-3.0662,-3.0723,-3.1531,-3.1414,-3.1393,-3.1751,-3.1876,-3.1929,-3.1859,-3.2127,-3.2335,-3.2299,-3.1858,-3.1736,-3.2224,-3.2083,-3.2564,-3.3605,-3.3603,-3.351,-3.3974,-3.4141,-3.416,-3.4141,-3.4216,-3.416,-3.416,-3.4161,-3.3827,-3.3252,-3.2945,-3.2847,-3.2888,-3.2416,-3.1957,-3.1641,0.0,-3.1239,-3.0911,0.0,-3.0732,-3.0794,-3.0857,-3.0888,-3.0882,-3.0833,-3.067,-3.0568,-3.046,-3.0062,-2.9846,-2.9758,-2.8952,-2.861,-2.8607,-2.7827,-2.7526,-2.7643,-2.7583,-2.7525,-2.7499,-2.7784,-2.7903,-2.7835,-2.8367,-2.8533,-2.8317,-2.9314,-2.9727,-2.9526,-2.8415,-2.7388,-2.6453,-2.6637,-2.6655,-2.6498,-2.6201,-2.5499,-2.4405,0.0,0.0,0.0,0.0,0.0,0.0,0.0,0.0,0.0,0.0,0.0,-2.5955,-2.5291,-2.5192,-2.5895,-2.5589,-2.5863,-2.7041,-2.6833,-2.7013,-2.7916,-2.8494,-2.9067,-2.958,-2.9641,-2.9859,-3.0385,-3.0401,-3.038,-3.0443,-3.038,-3.0359,-3.0338,-3.0316,-3.0452,-3.0845,-3.0683,-3.0788,-3.1604,-3.1564,-3.1372,-3.1267,-3.1322,-3.12,-3.0853,-3.155,-3.2127,-3.1792,-3.1038,-3.0736,-3.1196,-3.1347,-3.1476,-3.2427,-3.2509,-3.2546,-3.2904,-3.2966,-3.2961,-3.2961,-3.2949,-3.2907,-3.2907,-3.2883,-3.2741,-3.2322,-3.191,-3.1634,-3.1621,-3.1323,-3.095,-3.0853,-3.135,-3.0737,-3.0615,-3.0737,-3.0787,-3.0884,-3.0998,0.0,0.0,0.0,-3.0612,-3.0489,-3.0431,-2.9756,-2.9399,-2.9261,-2.7935,-2.7698,-2.8286,-2.7469,-2.7485,-2.8174,-2.815,-2.8123,-2.8091,-2.82,-2.8192,-2.8077,-2.8155,-2.8447,-2.9008,-2.971,-2.9946,-2.9679,-2.8972,-2.8074,-2.7031,-2.6819,-2.6859,-2.7217,-2.6729,-2.6127,-2.5457,-2.5052,-2.5149,-2.5752,-2.5971,-2.638,-2.7024,-2.7184,-2.7277,-2.7346,-2.6676,-2.6599,-2.7199,-2.6681,-2.6483,-2.6906,-2.6933,-2.7109,-2.7473,-2.767,-2.8144,-2.9047,-2.9762,-3.0227,-3.0359,-3.0359,-3.0359,-3.0359,-3.0422,-3.0379,-3.0371,-3.0368,-3.0353,-3.0222,-3.0184,-3.0342,-3.0703,-3.0683,-3.0925,-3.1601,-3.1674,-3.1473,-3.0941,-3.0872,-3.0525,-2.992,-3.0681,-3.1272,-3.0658,-2.9895,-2.9607,-3.0045,-3.0262,-3.0719,-3.1163,-3.1339,-3.1448,-3.157,-3.1649,-3.1679,-3.1828,-3.1644,-3.167,-3.1621,-3.1713,-3.1535,-3.1394,-3.084,-3.0289,-3.0113,-3.0118,-2.9968,-3.0572,-3.0638,-3.0539,-3.0517,-3.0576,-3.0774,-3.094,-3.0984,-3.0882,-3.0763,-3.0624,-3.053,-3.0489,-3.0472,-3.0364,-3.0305,-3.0268,-2.9888,-2.9851,0.0,-2.9062,-2.8711,-2.8944,-2.882,-2.8779,-2.8802,-2.9345,-2.961,-2.9594,-2.9786,-3.0121,-3.047,-3.0881,-3.0899,-3.0506,-2.973,-2.8953,-2.8169,-2.7247,-2.6835,-2.6944,-2.6556,-2.5939,-2.5205,-2.5099,-2.474,-2.4171,-2.4908,-2.5284,-2.5356,-2.6002,-2.6529,-2.6782,-2.6712,-2.6843,-2.725,-2.7187,-2.7109,-2.7089,-2.7072,-2.7432,-2.8253,-2.8626,-2.8882,-2.909,-2.9227,-2.9538,-3.0128,-3.021,-3.0231,-3.0259,-3.0751,-3.0811,-3.0379,-3.0767,-3.0893,-3.0266,-3.0103,-3.0199,-3.0683,-3.0342,-3.0342,-3.1044,-3.112,-3.0922,-3.0486,-3.0607,-3.0421,-2.9713,-2.9679,-2.9557,-2.8987,-2.8674,-2.8746,-2.9037,-2.8644,-2.9114,-3.0615,-3.0459,-3.0467,-3.1009,-3.1268,-3.1399,-3.1559,-3.1436,-3.1443,-3.1461,-3.1555,-3.115,-3.0623,-3.0274,-2.9988,-2.9414,-2.9278,-2.9216,-3.0113,-3.0092,-2.9837,-2.9962,-3.0326,-3.0773,-3.0773,-3.0485,-3.067,-3.0708,-3.0627,-3.0526,-3.0489,-3.0448,-3.0017,-2.9766,-2.9711,-2.9069,-2.9064,-2.9465,-2.8968,-2.9021,-2.9479,-2.948,-2.9437,-2.9453,-2.974,-2.9896,-2.9918,-3.0038,-3.0326,-3.0788,-3.1315,-3.1292,-3.0713,-3.0334,-2.9592,-2.842,-2.7526,-2.709,-2.7105,-2.6943,-2.6676,-2.63,-2.6289,-2.6308,-2.6309,-2.6668,-2.6868,-2.6835,-2.7181,-2.7459,-2.7585,-2.7255,-2.7304,-2.7832,-2.736,-2.6989,-2.694,-2.7029,-2.7287,-2.7713,-2.8069,-2.8489,-2.8904,-2.9342,-2.9722,-3.0049,-3.0081,-3.0081,-3.0081,-3.037,-3.0413,-3.0114,-3.0364,-3.0413,-3.0098,-2.9973,-3.0038,-3.0236,-3.0081,-3.0103,-3.0584,-3.1098,-3.1224,-3.0806,-3.0626,-3.0089,-2.9093,-2.8869,-2.8732,-2.8421,-2.8058,-2.7879,-2.8047,-2.7935,-2.8158,-2.9026,-2.9235,-2.9428,-2.9817,-3.0075,-3.0247,-3.0252,-3.0229,-3.0176,-3.0212,-3.0152,-2.9963,-2.9768,-2.9572,-2.9335,-2.9078,-2.8987,-2.8987,-2.97,-2.9655,-2.9296,-2.955,-3.0182,-3.0617,-3.0572,-3.0262,-3.0572,-3.0671,-3.0651,-3.0547,-3.0489,-3.0419,-2.9786,-2.9499,-2.931,-2.8556,-2.8544,-2.905,-2.8958,-2.925,-2.9843,-2.9896,-2.9896,-2.9896,-2.9896,-2.9896,-2.9896,-2.9896,-3.0194,-3.0788,-3.1391,-3.1434,-3.0955,-3.0765,-3.0093,-2.8954,-2.8161,-2.7627,-2.7332,-2.7315,-2.7315,-2.7315,-2.7297,-2.7575,-2.8109,-2.8144,-2.8144,-2.8144,-2.8144,-2.8144,-2.8144,-2.7609,-2.7542,-2.7908,-2.7264,-2.6809,-2.6893,-2.7118,-2.7312,-2.7473,-2.7781,-2.8255,-2.8989,-2.9605,-2.9989,-2.9973,-2.9973,-2.9989,-3.0,-3.0119,-3.008,-3.0016,-3.0086,-3.0113,-2.9951,-2.9896,-2.9896,-2.9896,-2.9896,-2.9995,-3.0387,-3.112,-3.1412,-3.0944,-3.0568,-2.9793,-2.8664,-2.8372,-2.8458,-2.806,-2.766,-2.7384,-2.7315,-2.7467,-2.7617,-2.7612,-2.8174,-2.8551,-2.8715,-2.8882,-2.9081,-2.9195,-2.9125,-2.9157,-2.9042,-2.906,-2.9078,-2.909,-2.9097,-2.9115,-2.9317,-2.9335,-2.9189,-2.9335,-2.935,-2.9282,-2.9677,-3.0187,-3.0258,-3.0443,-3.0712,-3.0733,-3.063,-3.0506,-3.0506,-3.0489,-3.0489,-3.0393,-3.0318,-3.0294,-3.0067,-2.9972,-3.0004,-2.9848,-2.9816,-2.988,-2.9896,-2.9896,-2.9896,-2.9896,-2.9896,-2.9896,-2.9918,-3.021,-3.0784,-3.1162,-3.147,-3.1573,-3.1041,-3.0645,-3.0472,-2.9696,-2.8661,-2.7401,-2.7315,-2.7315,-2.7315,-2.7316,-2.7332,-2.7523,-2.7402,-2.7418,-2.7402,-2.7471,-2.7437,-2.7437,-2.7351,-2.7222,-2.7044,-2.6876,-2.6876,-2.7061,-2.7437,-2.7924,-2.8556,-2.8653,-2.9005,-2.9708,-2.987,-2.9902,-2.9918,-2.9918,-2.9902,-2.9951,-3.0393,-3.0457,-2.9999,-3.036,-3.0587,-3.0026,-2.9896,-2.9896,-2.9896,-2.9896,-2.9995,-3.03,-3.0854,-3.0968,-3.102,-3.0846,-3.0114,-2.8836,-2.8922,-2.875,-2.7837,-2.7333,-2.7351,-2.7332,-2.7315,-2.7376,-2.7407,-2.78,-2.8147,-2.8321,-2.8633,-2.8998,-2.9028,-2.9017,-2.8987,-2.8987,-2.8987,-2.8987,-2.9023,-2.9078,-2.9262,-2.9861,-3.0123,-2.9933,-2.8935,-2.8912,-2.8653,-2.8685,-2.8982,-2.9506,-2.9623,-2.9512,-2.9968,-3.0135,-3.0135,-3.0363,-3.0489,-3.0489,-3.0489,-3.0485,-3.0422,-3.0253,-3.0146,-3.0076,-2.9946,-2.9896,-2.9896,-2.9896,-2.9896,-2.9896,-2.9896,-2.9896,-2.9924,-3.0044,-3.0246,-3.0543,-3.1024,-3.1353,-3.147,-3.1398,-3.1145,-3.0679,-2.9903,-2.9179,-2.8678,-2.8592,-2.8592,-2.8558,-2.8178,-2.8178,-2.8506,-2.8196,-2.8144,-2.8558,-2.8592,-2.8509,-2.8323,-2.8305,-2.8185,-2.7868,-2.7671,-2.7545,-2.747,-2.8009,-2.8466,-2.879,-2.92,-2.9605,-2.9848,-2.9896,-2.9896,-2.9896,-2.9896,-2.9896,-2.9929,-3.0156,-3.0188,-2.9977,-3.0172,-3.0204,-2.9961,-2.9896,-2.9896,-2.9896,-2.9896,-2.9989,-3.0384,-3.1378,-3.2133,-3.231,-3.2222,-3.1329,-2.986,-2.9722,-2.9228,-2.8151,-2.7756,-2.7633,-2.7388,-2.7315,-2.7299,-2.7374,-2.7742,-2.8088,-2.817,-2.8596,-2.9005,-2.8987,-2.8987,-2.8987,-2.8987,-2.8987,-2.8987,-2.9097,-2.9549,-2.9988,-3.0956,-3.1157,-3.0998,-2.8574,-2.8527,-2.825,-2.8177,-2.8341,-2.8943,-2.9035,-2.8826,-2.9371,-2.9683,-2.9853,-3.0156,-3.0384,-3.0489,-3.0489,-3.048,-3.0396,-3.0253,-3.0038,-2.9842,-2.9858,-2.9814,-2.9704,-2.9836,-2.9896,-2.9896,-2.9896,-2.9896,-2.9924,-3.0087,-3.0267,-3.046,-3.0828,-3.1162,-3.143,-3.1615,-3.145,-3.1007,-3.042,-3.0127,-3.0127,-3.0127,-2.9937,-2.9506,-2.8989,-2.8972,-2.9455,-2.9006,-2.8954,-2.9472,-2.942,-2.9264,-2.9017,-2.8926,-2.8777,-2.8491,-2.8306,-2.8144,-2.8012,-2.8613,-2.9022,-2.9113,-2.9621,-2.9896,-2.9896,-2.9896,-2.9896,-2.988,-2.9836,-2.9792,-2.9896,-2.9896,-2.9896,-2.9896,-2.9896,-2.9896,-2.9896,-2.9896,-2.9896,-2.9896,-2.9896,-3.0131,-3.0728,-3.1878,-3.283,-3.3094,-3.3073,-3.2466,-3.0891,-3.0347,-3.0006,-2.8681,-2.8579,-2.8305,-2.7478,-2.7202,-2.7218,-2.7312,-2.7592,-2.789,-2.8029,-2.8533,-2.894,-2.8917,-2.8964,-2.8987,-2.8987,-2.8987,-2.9189,-2.9409,-2.9873,-3.0721,-3.1837,-3.2054,-3.2344,-2.8235,-2.8244,-2.8348,-2.8621,-2.9005,-2.8818,-2.895,-2.918,-2.9189,-2.9371,-2.9705,-2.981,-3.0054,-3.0426,-3.0384,-3.0443,-3.0359,-3.021,-2.9848,-2.9441,-2.9704,-2.9621,-2.9189,-2.9659,-2.9896,-2.9896,-2.9896,-2.9896,-2.9918,-2.9924,-3.0215,-3.0707,-3.0539,-3.0845,-3.1504,-3.1447,-3.1468,-3.1571,-3.1488,-3.1593,-3.1609,-3.1592,-3.0886,-2.9765,-2.9489,-2.9506,-2.9558,-2.9489,-2.9472,-2.9524,-2.9296,-2.9066,-2.903,-2.8807,-2.8538,-2.8264,-2.8336,-2.8517,-2.8742,-2.916,-2.9486,-2.9711,-2.9744,-2.9836,-2.9726,-2.9748,-2.9786,-2.9836,-2.9576,-2.9576,-2.9792,-2.9836,-2.9874,-2.9874,-2.988,-2.9896,-2.9896,-2.9858,-2.9896,-2.988,-2.9858,-3.0321,-3.1447,-3.205,-3.2397,-3.2566,-3.2473,-3.1893,-3.0832,-3.0819,-3.05,-2.9737,-2.9517,-2.9535,-2.7571,-2.7244,-2.7177,-2.712,-2.7353,-2.7574,-2.7922,-2.8255,-2.8583,-2.8851,-2.8929,-2.8964,-2.8975,-2.9189,-2.9519,-2.9861,-3.0331,-3.1204,-3.2731,-3.2913,-3.322,-2.8323,-2.8323,-2.8372,-2.8453,-2.8494,-2.8341,-2.8301,-2.8383,-2.8519,-2.8685,-2.888,-2.9196,-2.9409,-2.9499,-2.955,-2.9661,-2.975,-2.9711,-2.9489,-2.9205,-2.9335,-2.947,-2.9643,-2.9814,-2.9896,-2.9896,-2.9896,-2.9896,-2.9896,-2.9896,-3.0011,-3.0194,-3.0305,-3.0502,-3.0828,-3.1142,-3.1334,-3.1355,-3.1149,-3.1172,-3.1509,-3.1132,-3.0807,-3.0772,-3.0435,-3.0383,-3.0647,-3.0202,-3.0059,-3.0313,-3.0196,-3.006,-2.9822,-2.9572,-2.9377,-2.9267,-2.914,-2.9131,-2.9245,-2.9236,-2.9167,-2.902,-2.8997,-2.8928,-2.8709,-2.8842,-2.8997,-2.8997,-2.8951,-2.902,-2.9312,-2.9531,-2.9643,-2.9643,-2.9643,-2.9742,-2.9814,-2.9754,-2.9643,-2.9643,-2.9627,-3.0069,-3.1188,-3.1704,-3.1976,-3.2279,-3.233,-3.1839,-3.1162,-3.108,-3.0862,-3.0117,-2.9948,-2.9574,-2.7843,-2.7657,-2.7639,-2.7276,-2.7228,-2.7396,-2.7678,-2.8071,-2.842,-2.8718,-2.8834,-2.9099,-2.9184,-2.9696,-3.0008,-3.0638,-3.1078,-3.2073,-3.3706,-3.3791,-3.421,-2.9042,-2.9058,-2.9058,-2.887,-2.8572,-2.8448,-2.8202,-2.792,-2.8057,-2.8198,-2.8352,-2.8654,-2.8834,-2.8881,-2.8951,-2.8896,-2.8888,-2.905,-2.8966,-2.8654,-2.8756,-2.9012,-2.9341,-2.9554,-2.9748,-2.9874,-2.9896,-2.9874,-2.9792,-2.9858,-2.9902,-2.9951,-3.0108,-3.0241,-3.0398,-3.0744,-3.0861,-3.0784,-3.0668,-3.0836,-3.1172,-3.0963,-3.0986,-3.1327,-3.0987,-3.0955,-3.1355,-3.0745,-3.056,-3.0897,-3.0747,-3.0497,-3.0199,-2.9995,-2.9896,-2.9874,-2.9576,-2.9403,-2.9448,-2.9175,-2.8873,-2.8716,-2.8559,-2.8367,-2.8134,-2.8231,-2.8343,-2.8439,-2.8415,-2.855,-2.8897,-2.9129,-2.9266,-2.9382,-2.9548,-2.9649,-2.9663,-2.9656,-2.9715,-2.9756,-2.987,-3.0366,-3.1157,-3.1526,-3.1775,-3.2077,-3.2191,-3.1985,-3.1376,-3.1173,-3.1072,-3.0581,-3.0482,-3.0008,-2.8925,-2.8574,-2.7777,-2.7299,-2.6989,-2.718,-2.7532,-2.7918,-2.8264,-2.8538,-2.8858,-2.9174,-2.9605,-3.0124,-3.0736,-3.1403,-3.204,-3.2846,-3.3888,-3.4608,-3.4832,-3.034,-3.0294,-3.0386,-2.9899,-2.9367,-2.9134,-2.8697,-2.8091,-2.7896,-2.7984,-2.8183,-2.8158,-2.8343,-2.8716,-2.8606,-2.8312,-2.7932,-2.8336,-2.8264,-2.774,-2.8143,-2.8424,-2.8543,-2.9051,-2.9477,-2.988,-2.9896,-2.977,-2.9598,-2.9792,-2.9946,-2.9979,-2.9908,-3.0044,-3.0456,-3.0187,-3.0081,-3.018,-3.0447,-3.0737,-3.0828,-3.1089,-3.1278,-3.1349,-3.0934,-3.0917,-3.1485,-3.101,-3.0801,-3.1047,-3.0621,-3.0177,-2.9989,-2.9918,-2.9896,-2.9792,-2.9396,-2.9282,-2.9357,-2.8951,-2.8756,-2.8732,-2.8622,-2.8247,-2.8061,-2.7923,-2.7968,-2.8256,-2.818,-2.8253,-2.8604,-2.877,-2.8928,-2.9131,-2.9604,-2.9643,-2.954,-2.9738,-3.0093,-3.0116,-3.0286,-3.0926,-3.143,-3.1505,-3.1553,-3.166,-3.19,-3.1955,-3.1376,-3.1292,-3.1258,-3.1157,-3.1106,-3.0751,-3.0108,-2.9433,-2.8231,-2.725,-2.6961,-2.6923,-2.7396,-2.7808,-2.8129,-2.8471,-2.9338,-2.9704,-3.0271,-3.0803,-3.1317,-3.1955,-3.2715,-3.3433,-3.4175,-3.4831,-3.4973,-3.0402,-3.0402,-3.0308,-3.0097,-2.9733,-2.9188,-2.8701,-2.8377,-2.789,-2.775,-2.777,-2.7685,-2.766,-2.771,-2.7685,-2.7469,-2.7126,-2.7397,-2.7494,-2.759,-2.8061,-2.8472,-2.8873,-2.9387,-2.9748,-2.9858,-2.9896,-2.9874,-2.9792,-2.9874,-2.9924,-2.9902,-2.9732,-2.9694,-2.981,-2.9755,-2.9679,-2.9657,-2.9983,-3.0318,-3.0539,-3.0414,-3.0477,-3.072,-3.0192,-3.0091,-3.0645,-3.0414,-3.0288,-3.0347,-3.0146,-2.9989,-2.9918,-2.9896,-2.9814,-2.9643,-2.9486,-2.9198,-2.892,-2.8559,-2.8229,-2.7934,-2.7479,-2.7056,-2.689,-2.6941,-2.7195,-2.7646,-2.7558,-2.773,-2.8495,-2.8758,-2.8993,-2.9514,-2.9327,-2.9665,-3.0233,-3.0145,-3.015,-3.0335,-2.9732,-2.9758,-3.0615,-3.0858,-3.0876,-3.1237,-3.1476,-3.1481,-3.1326,-3.1546,-3.1684,-3.1343,-3.1478,-3.1413,-3.0548,-2.9719,-2.8772,-2.7757,-2.7266,-2.7096,-2.748,-2.7874,-2.817,-2.8891,-2.9744,-3.035,-3.0937,-3.1537,-3.2077,-3.2607,-3.3343,-3.4016,-3.4619,-3.4936,-3.5082,-3.1098,-3.106,-3.0991,-3.0704,-3.0342,-2.9807,-2.9388,-2.897,-2.8351,-2.801,-2.7919,-2.7567,-2.7325,-2.7207,-2.713,-2.7015,-2.6806,-2.6899,-2.7155,-2.7454,-2.7605,-2.811,-2.8826,-2.956,-2.9896,-2.9896,-2.9896,-2.9836,-2.977,-2.9852,-2.9874,-2.9732,-2.9665,-2.9538,-2.938,-2.9387,-2.9287,-2.9143,-2.9406,-2.9739,-2.9908,-2.9859,-2.993,-3.0102,-2.9623,-2.954,-2.9913,-2.9667,-2.97,-2.9951,-2.9951,-2.9896,-2.9896,-2.9896,-2.9836,-2.9665,-2.9531,-2.9335,-2.9013,-2.874,-2.8238,-2.771,-2.7163,-2.6785,-2.651,-2.6457,-2.6607,-2.7369,-2.7164,-2.7325,-2.8343,-2.8716,-2.9053,-2.9586,-2.9791,-3.0114,-3.0972,-3.0756,-3.0592,-3.0737,-3.0248,-3.008,-3.029,-3.0806,-3.0489,-3.0809,-3.1231,-3.143,-3.143,-3.1562,-3.1444,-3.1376,-3.1444,-3.1157,-3.0666,-2.9973,-2.9279,-2.845,-2.7689,-2.764,-2.7799,-2.8211,-2.8588,-2.9936,-3.0909,-3.1157,-3.1671,-3.2454,-3.3094,-3.3599,-3.3817,-3.4267,-3.4689,-3.4992,-3.5145,-3.2216,-3.2135,-3.2092,-3.1612,-3.1043,-3.0864,-3.0377,-2.9783,-2.903,-2.8621,-2.8412,-2.772,-2.7335,-2.7181,-2.7067,-2.6925,-2.682,-2.682,-2.7063,-2.7265,-2.7229,-2.7484,-2.8543,-2.947,-2.9896,-2.9896,-2.9896,-2.9748,-2.9493,-2.9665,-2.971,-2.947,-2.9576,-2.957,-2.9167,-2.9075,-2.8873,-2.8605,-2.8858,-2.9097,-2.9189,-2.9454,-2.9722,-2.9705,-2.9303,-2.9143,-2.9287,-2.9074,-2.928,-3.0032,-2.9886,-2.977,-2.9814,-2.9852,-2.9792,-2.9704,-2.9598,-2.9425,-2.935,-2.8943,-2.8527,-2.7879,-2.7403,-2.7327,-2.6852,-2.6312,-2.6424,-2.7402,-2.698,-2.7052,-2.8107,-2.8642,-2.9017,-2.9541,-3.0449,-3.1153,-3.1347,-3.1358,-3.1266,-3.1297,-3.1289,-3.105,-3.0411,-3.0999,-3.0748,-3.0571,-3.1145,-3.1399,-3.1328,-3.124,-3.1235,-3.1266,-3.1308,-3.1326,-3.0937,-3.0159,-2.9482,-2.8894,-2.8233,-2.8186,-2.8282,-2.8718,-2.9526,-3.0857,-3.1683,-3.1944,-3.2417,-3.3133,-3.3437,-3.3481,-3.3826,-3.43,-3.4666,-3.4974,-3.5138,-3.1131,-3.1276,-3.1204,-3.1318,-3.1466,-3.093,-3.0531,-3.0173,-2.9124,-2.8689,-2.8431,-2.775,-2.735,-2.7207,-2.7067,-2.691,-2.6832,-2.6794,-2.7063,-2.7378,-2.7026,-2.7645,-2.8756,-2.9538,-2.9874,-2.9852,-2.977,-2.9681,-2.9234,-2.925,-2.9182,-2.8912,-2.9005,-2.8974,-2.8803,-2.8779,-2.8653,-2.8444,-2.8517,-2.8779,-2.8997,-2.885,-2.8943,-2.9227,-2.8826,-2.8685,-2.8881,-2.8967,-2.9075,-2.9341,-2.935,-2.9305,-2.9344,-2.9328,-2.9282,-2.9167,-2.9335,-2.9152,-2.8581,-2.8334,-2.7938,-2.7316,-2.6852,-2.6365,-2.6379,-2.6084,-2.6296,-2.6836,-2.6707,-2.6936,-2.7966,-2.8505,-2.9091,-3.0048,-3.0733,-3.1263,-3.1336,-3.1424,-3.1424,-3.132,-3.0566,-3.0258,-3.0154,-3.0069,-3.008,-3.0277,-3.06,-3.0962,-3.0812,-3.1176,-3.1342,-3.1139,-3.1152,-3.1358,-3.119,-3.0395,-2.9721,-2.9218,-2.8832,-2.8733,-2.8967,-2.94,-3.0549,-3.1906,-3.2054,-3.23,-3.2923,-3.3638,-3.3579,-3.348,-3.3843,-3.4297,-3.4639,-3.4936,-3.5039,-3.0375,-3.051,-3.0703,-3.097,-3.1248,-3.102,-3.0776,-3.0342,-2.9475,-2.8846,-2.8476,-2.7812,-2.7412,-2.7258,-2.7144,-2.7015,-2.6899,-2.6806,-2.7063,-2.7439,-2.7479,-2.7839,-2.8519,-2.9143,-2.9425,-2.9143,-2.9166,-2.8966,-2.8693,-2.8638,-2.8543,-2.8456,-2.8384,-2.84,-2.8455,-2.8431,-2.8446,-2.842,-2.8411,-2.8549,-2.8748,-2.8549,-2.8414,-2.8542,-2.8259,-2.8146,-2.8076,-2.8174,-2.8479,-2.8936,-2.9114,-2.9114,-2.9114,-2.9114,-2.9013,-2.8889,-2.919,-2.9029,-2.8581,-2.8286,-2.7839,-2.7276,-2.6642,-2.6365,-2.6272,-2.6084,-2.6159,-2.6804,-2.6496,-2.6767,-2.7489,-2.7947,-2.8644,-2.9565,-3.0004,-3.0331,-3.0883,-3.1239,-3.1213,-3.0936,-3.0577,-3.0027,-2.9895,-2.9596,-2.9644,-2.9852,-3.0032,-3.0151,-3.0215,-3.0886,-3.1258,-3.0941,-3.0908,-3.1103,-3.097,-3.0247,-3.0027,-2.9553,-2.9558,-2.942,-2.9863,-3.0317,-3.1297,-3.2299,-3.2452,-3.2745,-3.3331,-3.3766,-3.3742,-3.3768,-3.4027,-3.4238,-3.454,-3.479,-3.4898,-2.9735,-2.9704,-3.0389,-3.0614,-3.0644,-3.1204,-3.1137,-3.0567,-2.9834,-2.9262,-2.8667,-2.7944,-2.7514,-2.7401,-2.7233,-2.7104,-2.6977,-2.6832,-2.7037,-2.7429,-2.779,-2.8036,-2.7615,-2.8567,-2.8732,-2.8369,-2.8152,-2.8112,-2.8055,-2.7923,-2.7874,-2.7874,-2.7824,-2.7938,-2.8052,-2.8067,-2.818,-2.8372,-2.8299,-2.8348,-2.8444,-2.8348,-2.8162,-2.7949,-2.78,-2.756,-2.7327,-2.7276,-2.768,-2.8803,-2.8936,-2.8842,-2.8865,-2.8865,-2.8865,-2.8756,-2.8732,-2.8764,-2.8708,-2.8222,-2.7938,-2.7261,-2.689,-2.6707,-2.6365,-2.6069,-2.6152,-2.6703,-2.6285,-2.6394,-2.691,-2.713,-2.7717,-2.8592,-2.845,-2.8843,-2.9798,-3.0696,-3.0922,-3.038,-3.0733,-3.0422,-2.9867,-2.9581,-2.9706,-2.9457,-2.9579,-2.9639,-2.9815,-3.0287,-3.0519,-3.0425,-3.0547,-3.0838,-3.0518,-3.0066,-3.0052,-2.9955,-3.0193,-3.0326,-3.0988,-3.1508,-3.2161,-3.2711,-3.2949,-3.319,-3.3533,-3.3762,-3.3802,-3.3825,-3.394,-3.4154,-3.4416,-3.4594,-3.473,-2.8624,-2.8821,-2.9487,-3.0056,-3.0554,-3.1175,-3.1377,-3.1123,-3.0031,-2.9433,-2.9101,-2.8124,-2.7529,-2.7376,-2.7233,-2.7144,-2.7003,-2.6873,-2.687,-2.7052,-2.7913,-2.7705,-2.7316,-2.7987,-2.8312,-2.8167,-2.8216,-2.7957,-2.76,-2.7399,-2.7287,-2.7071,-2.7236,-2.7454,-2.776,-2.7655,-2.7894,-2.825,-2.8103,-2.8063,-2.8186,-2.8039,-2.785,-2.7715,-2.7408,-2.7199,-2.7148,-2.7097,-2.7251,-2.7545,-2.7845,-2.7944,-2.778,-2.7944,-2.7959,-2.778,-2.779,-2.7715,-2.7352,-2.7312,-2.703,-2.659,-2.6351,-2.6082,-2.6056,-2.5975,-2.5975,-2.615,-2.6002,-2.6207,-2.6609,-2.6945,-2.7199,-2.7474,-2.7471,-2.7461,-2.7962,-2.8961,-2.9504,-2.9342,-2.934,-2.9205,-2.8732,-2.8777,-2.8919,-2.902,-2.912,-2.9182,-2.9416,-2.9711,-2.9886,-2.9951,-3.036,-3.071,-3.0801,-3.0317,-3.0006,-3.0209,-3.0539,-3.106,-3.1694,-3.2337,-3.2853,-3.3212,-3.3492,-3.3703,-3.3734,-3.378,-3.382,-3.3812,-3.3825,-3.4042,-3.4245,-3.4409,-3.4647,-2.7901,-2.8091,-2.8757,-2.9251,-2.9656,-3.0269,-3.0558,-3.0395,-2.9582,-2.8948,-2.8601,-2.785,-2.7397,-2.7089,-2.7155,-2.7155,-2.7067,-2.6899,-2.6779,-2.691,-2.7382,-2.728,-2.7,-2.7255,-2.7555,-2.7475,-2.7439,-2.721,-2.7004,-2.689,-2.6759,-2.6604,-2.6669,-2.6852,-2.7203,-2.7122,-2.7276,-2.762,-2.761,-2.7585,-2.771,-2.7585,-2.7331,-2.7152,-2.6774,-2.6522,-2.651,-2.6537,-2.6537,-2.6642,-2.6956,-2.7203,-2.7163,-2.7342,-2.7316,-2.7199,-2.721,-2.721,-2.6967,-2.6759,-2.6628,-2.6285,-2.6042,-2.5948,-2.5893,-2.5893,-2.6076,-2.6245,-2.6357,-2.6425,-2.6603,-2.6437,-2.6566,-2.6537,-2.6616,-2.6616,-2.6828,-2.7968,-2.8805,-2.8615,-2.8824,-2.8818,-2.8615,-2.8458,-2.8444,-2.8748,-2.8748,-2.8771,-2.8748,-2.9082,-2.9499,-2.9733,-3.0197,-3.0586,-3.0925,-3.0653,-3.0004,-3.0261,-3.0724,-3.1378,-3.2115,-3.277,-3.34,-3.3536,-3.3592,-3.3689,-3.3739,-3.378,-3.3807,-3.3807,-3.3847,-3.3947,-3.4062,-3.426,-3.4537,-2.7503,-2.7556,-2.8222,-2.8514,-2.8597,-2.9254,-2.9588,-2.9462,-2.8756,-2.8222,-2.7697,-2.7491,-2.6956,-2.6841,-2.6919,-2.7063,-2.7052,-2.6937,-2.6794,-2.6832,-2.6884,-2.6896,-2.6832,-2.6884,-2.6881,-2.6563,-2.6695,-2.6642,-2.6563,-2.6392,-2.6498,-2.6445,-2.6272,-2.6498,-2.6683,-2.6563,-2.6774,-2.7214,-2.7122,-2.7137,-2.7214,-2.7137,-2.6837,-2.651,-2.6258,-2.6096,-2.6096,-2.6111,-2.6056,-2.5961,-2.6285,-2.67,-2.6995,-2.7008,-2.6941,-2.6916,-2.6837,-2.6785,-2.6695,-2.6563,-2.6392,-2.6377,-2.6123,-2.6005,-2.6034,-2.6187,-2.6412,-2.6567,-2.6708,-2.6595,-2.6666,-2.6381,-2.6085,-2.6029,-2.6084,-2.6029,-2.625,-2.7469,-2.7899,-2.7961,-2.8142,-2.8248,-2.8409,-2.8411,-2.8411,-2.8411,-2.8411,-2.8436,-2.8436,-2.8645,-2.9182,-2.9728,-3.0255,-3.0132,-3.0376,-3.032,-2.9746,-2.9816,-3.0401,-3.12,-3.2005,-3.2638,-3.3085,-3.34,-3.3516,-3.3643,-3.3739,-3.3766,-3.3793,-3.3802,-3.3768,-3.3735,-3.3869,-3.4108,-3.4403,-2.7503,-2.7556,-2.8235,-2.8514,-2.8597,-2.9205,-2.9448,-2.9304,-2.8331,-2.7824,-2.7598,-2.662,-2.649,-2.6539,-2.6484,-2.6618,-2.6846,-2.6806,-2.6794,-2.6794,-2.6794,-2.6794,-2.6794,-2.6779,-2.6779,-2.6779,-2.6712,-2.6645,-2.6551,-2.6457,-2.6445,-2.6367,-2.6313,-2.6527,-2.6645,-2.6498,-2.6566,-2.6997,-2.6826,-2.6826,-2.7037,-2.6841,-2.6537,-2.6231,-2.6111,-2.6111,-2.6192,-2.6218,-2.6218,-2.6233,-2.6313,-2.6666,-2.6987,-2.685,-2.6599,-2.6383,-2.6272,-2.6297,-2.6258,-2.6138,-2.6015,-2.5961,-2.5975,-2.6216,-2.6525,-2.6778,-2.689,-2.6876,-2.6719,-2.6433,-2.6389,-2.6291,-2.6247,-2.6206,-2.6152,-2.6098,-2.6193,-2.6587,-2.7176,-2.7248,-2.7501,-2.7881,-2.8189,-2.8436,-2.8444,-2.8468,-2.8493,-2.8517,-2.8565,-2.8826,-2.9287,-2.9865,-3.0418,-3.0048,-2.9739,-2.9552,-2.9248,-2.9098,-2.9577,-3.0327,-3.116,-3.2078,-3.2648,-3.3277,-3.3583,-3.3694,-3.3766,-3.378,-3.386,-3.3921,-3.3735,-3.3471,-3.3694,-3.3915,-3.4133,-2.7503,-2.7523,-2.7842,-2.7973,-2.8026,-2.8306,-2.8693,-2.8829,-2.806,-2.766,-2.7518,-2.7027,-2.6498,-2.6427,-2.6674,-2.679,-2.6785,-2.6794,-2.6794,-2.6794,-2.6794,-2.6794,-2.6794,-2.6794,-2.6794,-2.6794,-2.6779,-2.6753,-2.6686,-2.6645,-2.6592,-2.6539,-2.6459,-2.6525,-2.663,-2.6406,-2.6447,-2.6724,-2.6592,-2.6539,-2.6817,-2.6513,-2.6326,-2.6245,-2.6192,-2.626,-2.6286,-2.6313,-2.6313,-2.637,-2.6613,-2.6769,-2.6839,-2.688,-2.6837,-2.6618,-2.6295,-2.6098,-2.6125,-2.6125,-2.6138,-2.6111,-2.6125,-2.6422,-2.6875,-2.7143,-2.7342,-2.7442,-2.7128,-2.6826,-2.6841,-2.6526,-2.6342,-2.6286,-2.6233,-2.6179,-2.6138,-2.6231,-2.651,-2.6878,-2.7376,-2.7851,-2.8272,-2.842,-2.8468,-2.8501,-2.8525,-2.8621,-2.8692,-2.9013,-2.9393,-2.9908,-3.0352,-3.0026,-2.958,-2.9261,-2.8802,-2.8601,-2.8806,-2.9555,-3.0572,-3.1591,-3.2682,-3.3565,-3.3752,-3.3642,-3.3762,-3.3793,-3.3908,-3.3938,-3.3542,-3.328,-3.3507,-3.3742,-3.3791,-2.739,-2.7503,-2.7503,-2.7503,-2.7503,-2.7503,-2.7809,-2.8115,-2.7655,-2.731,-2.7269,-2.7051,-2.6491,-2.626,-2.675,-2.7138,-2.672,-2.6775,-2.6953,-2.6794,-2.6794,-2.6794,-2.6794,-2.6794,-2.6794,-2.6794,-2.6794,-2.6794,-2.6779,-2.6753,-2.6779,-2.6727,-2.6618,-2.6537,-2.6551,-2.6459,-2.6367,-2.6326,-2.6313,-2.6313,-2.6313,-2.634,-2.6326,-2.6326,-2.6367,-2.6367,-2.6447,-2.6447,-2.659,-2.672,-2.692,-2.7078,-2.6893,-2.7064,-2.725,-2.7237,-2.6696,-2.6385,-2.6286,-2.6286,-2.626,-2.626,-2.6286,-2.6713,-2.7297,-2.7597,-2.7767,-2.8068,-2.7551,-2.7078,-2.6893,-2.6651,-2.6383,-2.6286,-2.626,-2.6233,-2.6152,-2.6218,-2.6445,-2.6878,-2.7382,-2.775,-2.8103,-2.8525,-2.8573,-2.8653,-2.87,-2.8834,-2.8928,-2.9098,-2.9454,-2.9946,-3.0183,-2.9951,-2.9602,-2.9225,-2.863,-2.8026,-2.8291,-2.887,-3.0053,-3.1253,-3.2248,-3.3086,-3.3445,-3.3359,-3.3571,-3.3768,-3.3813,-3.3672,-3.3234,-3.3039,-3.3136,-3.2959,-3.2833,-2.7053,-2.7503,-2.7503,-2.7503,-2.7503,-2.7456,-2.7523,-2.7577,-2.7111,-2.6501,-2.6319,-2.5721,-2.5745,-2.6122,-2.7268,-2.7131,-2.6702,-2.6962,-2.7176,-2.6852,-2.6852,-2.6895,-2.6823,-2.6794,-2.6994,-2.698,-2.6866,-2.6794,-2.691,-2.691,-2.6794,-2.6779,-2.6779,-2.6738,-2.6712,-2.6592,-2.6484,-2.6457,-2.6379,-2.634,-2.634,-2.6418,-2.6472,-2.6498,-2.6498,-2.6566,-2.6659,-2.6688,-2.6862,-2.7281,-2.7045,-2.7407,-2.8029,-2.7347,-2.7292,-2.7225,-2.6903,-2.6313,-2.634,-2.6367,-2.6367,-2.6367,-2.634,-2.6983,-2.7653,-2.8025,-2.8181,-2.8536,-2.7596,-2.6878,-2.6728,-2.6529,-2.6418,-2.6312,-2.6245,-2.626,-2.6233,-2.6165,-2.6418,-2.68,-2.7265,-2.7524,-2.779,-2.8293,-2.87,-2.8779,-2.8873,-2.9029,-2.9183,-2.935,-2.9509,-2.9957,-3.0114,-2.9889,-2.9341,-2.9008,-2.8425,-2.7622,-2.7903,-2.8333,-2.9448,-3.0599,-3.1302,-3.2045,-3.2562,-3.3203,-3.3493,-3.3623,-3.3648,-3.3206,-3.2564,-3.2504,-3.2642,-3.2363,-3.2045,-2.6414,-2.7456,-2.7154,-2.7222,-2.7456,-2.7188,-2.7222,-2.7404,-2.7229,-2.7027,-2.6791,-2.6556,-2.6514,-2.6708,-2.7166,-2.6955,-2.6694,-2.7128,-2.7158,-2.7057,-2.7142,-2.7289,-2.7304,-2.7333,-2.7432,-2.759,-2.73,-2.7387,-2.7401,-2.7128,-2.6794,-2.6808,-2.6794,-2.6779,-2.6794,-2.6712,-2.6686,-2.6659,-2.6606,-2.658,-2.6621,-2.6633,-2.6686,-2.6686,-2.6645,-2.6712,-2.6779,-2.6794,-2.6895,-2.7215,-2.7142,-2.7331,-2.7592,-2.7374,-2.7347,-2.7084,-2.6847,-2.6594,-2.6594,-2.6568,-2.6568,-2.6568,-2.6681,-2.7184,-2.805,-2.8137,-2.8194,-2.8637,-2.7357,-2.6628,-2.651,-2.6496,-2.6484,-2.6418,-2.6299,-2.6338,-2.6353,-2.6245,-2.6338,-2.6747,-2.7163,-2.7458,-2.7825,-2.8398,-2.8873,-2.9036,-2.9175,-2.9373,-2.9525,-2.9681,-2.9792,-2.9968,-2.9976,-2.9861,-2.917,-2.8613,-2.8129,-2.7548,-2.76,-2.8132,-2.8927,-2.9837,-3.0672,-3.1654,-3.2533,-3.3062,-3.3364,-3.3129,-3.2789,-3.2311,-3.1798,-3.1779,-3.1769,-3.1855,-3.1741,-2.5953,-2.7053,-2.6667,-2.6735,-2.704,-2.6679,-2.6816,-2.7255,-2.7276,-2.7265,-2.7307,-2.721,-2.7085,-2.7043,-2.6952,-2.7146,-2.7059,-2.7329,-2.7396,-2.754,-2.7706,-2.794,-2.7897,-2.7884,-2.8013,-2.8694,-2.7578,-2.7665,-2.8041,-2.7866,-2.7343,-2.7041,-2.7128,-2.6953,-2.6823,-2.6779,-2.6779,-2.6753,-2.6753,-2.6753,-2.6753,-2.6779,-2.6779,-2.6779,-2.6779,-2.6794,-2.6794,-2.6794,-2.6808,-2.7144,-2.7,-2.7016,-2.7219,-2.6907,-2.6711,-2.6483,-2.6286,-2.615,-2.6272,-2.6447,-2.6727,-2.6864,-2.7026,-2.7436,-2.8058,-2.7859,-2.7702,-2.8347,-2.7326,-2.6642,-2.6498,-2.6496,-2.6457,-2.6445,-2.6418,-2.6472,-2.6457,-2.6338,-2.6498,-2.6993,-2.7327,-2.753,-2.7993,-2.8637,-2.9036,-2.9243,-2.9464,-2.9665,-2.977,-2.988,-2.9902,-2.9968,-2.9928,-2.9687,-2.8893,-2.826,-2.7746,-2.7488,-2.753,-2.7845,-2.8578,-2.9445,-3.0376,-3.1351,-3.233,-3.2433,-3.2455,-3.2177,-3.1874,-3.1518,-3.1179,-3.0853,-3.0808,-3.0982,-3.1176,-2.5884,-2.5988,-2.5965,-2.5965,-2.607,-2.6,-2.6242,-2.6748,-2.676,-2.675,-2.6837,-2.6798,-2.655,-2.634,-2.7261,-2.7623,-2.7227,-2.8299,-2.8412,-2.8507,-2.8706,-2.8679,-2.852,-2.8331,-2.8202,-2.8637,-2.7932,-2.7962,-2.8466,-2.8383,-2.7991,-2.7724,-2.7668,-2.7289,-2.6997,-2.6878,-2.6794,-2.6794,-2.6794,-2.6794,-2.6794,-2.6794,-2.6794,-2.6794,-2.6794,-2.6794,-2.6794,-2.6794,-2.6859,-2.724,-2.667,-2.6506,-2.6728,-2.6204,-2.5911,-2.5966,-2.5869,-2.5702,-2.5716,-2.6153,-2.6674,-2.6927,-2.7205,-2.7498,-2.7869,-2.7755,-2.7726,-2.7686,-2.6863,-2.6478,-2.6404,-2.6443,-2.6149,-2.6109,-2.6096,-2.6285,-2.6338,-2.6433,-2.663,-2.7199,-2.7454,-2.7504,-2.7978,-2.8559,-2.9129,-2.938,-2.9605,-2.982,-2.9814,-2.9896,-2.9896,-2.9913,-2.9923,-2.9477,-2.8543,-2.8066,-2.7896,-2.7538,-2.7366,-2.766,-2.8138,-2.9062,-3.0071,-3.0841,-3.166,-3.1597,-3.1637,-3.1697,-3.1552,-3.0979,-3.058,-3.0347,-3.0288,-3.0472,-3.0491,-2.485,-2.4862,-2.4862,-2.5264,-2.5861,-2.5499,-2.5687,-2.6151,-2.6208,-2.6408,-2.6719,-2.6985,-2.7046,-2.7053,-2.7236,-2.7642,-2.7442,-2.8008,-2.8367,-2.8737,-2.8991,-2.936,-2.9316,-2.9216,-2.9347,-2.9349,-2.8527,-2.8295,-2.9149,-2.854,-2.8315,-2.8151,-2.8239,-2.79,-2.752,-2.7026,-2.6811,-2.6727,-2.6753,-2.6779,-2.6794,-2.6794,-2.6794,-2.6794,-2.6794,-2.6794,-2.6794,-2.6794,-2.6726,-2.6487,-2.6088,-2.6104,-2.6134,-2.553,-2.5498,-2.5751,-2.5668,-2.5621,-2.5353,-2.5674,-2.5825,-2.6319,-2.6759,-2.7199,-2.7376,-2.6967,-2.7092,-2.6897,-2.6313,-2.5701,-2.5919,-2.5618,-2.5328,-2.5439,-2.5674,-2.6015,-2.6218,-2.6353,-2.6633,-2.71,-2.7188,-2.724,-2.7805,-2.8448,-2.9005,-2.9493,-2.9738,-2.993,-2.9918,-2.9848,-2.9832,-2.9832,-2.9837,-2.9419,-2.8523,-2.8285,-2.8164,-2.7708,-2.7254,-2.753,-2.7946,-2.8828,-2.9773,-3.0488,-3.1041,-3.1218,-3.1369,-3.15,-3.1163,-3.0431,-3.0091,-2.9936,-2.9952,-3.0075,-3.0114,-2.4189,-2.4189,-2.4189,-2.4647,-2.53,-2.4957,-2.5075,-2.5616,-2.5861,-2.6324,-2.6918,-2.7222,-2.7356,-2.7456,-2.7497,-2.7687,-2.7793,-2.8078,-2.8338,-2.8738,-2.926,-2.9635,-2.9606,-2.9431,-2.918,-2.9563,-2.878,-2.8279,-2.9025,-2.8247,-2.8408,-2.8701,-2.8703,-2.8325,-2.8013,-2.7391,-2.6835,-2.6395,-2.6447,-2.6379,-2.6299,-2.6218,-2.6177,-2.6177,-2.615,-2.6123,-2.6123,-2.6069,-2.5975,-2.5716,-2.5411,-2.5231,-2.5113,-2.503,-2.5191,-2.5485,-2.5665,-2.5733,-2.5498,-2.5486,-2.5338,-2.5689,-2.6133,-2.654,-2.6539,-2.5994,-2.605,-2.6426,-2.5437,-2.4838,-2.5398,-2.5147,-2.5007,-2.5189,-2.5688,-2.6002,-2.6165,-2.634,-2.6621,-2.6963,-2.7026,-2.7167,-2.7889,-2.8543,-2.9166,-2.9605,-2.9776,-2.9924,-2.9918,-2.9815,-2.9686,-2.9702,-2.9713,-2.9189,-2.8605,-2.8343,-2.8083,-2.7721,-2.7382,-2.7436,-2.79,-2.8724,-2.9412,-3.0069,-3.0551,-3.0882,-3.0939,-3.0863,-3.0397,-2.9784,-2.9711,-2.9794,-2.9897,-3.0038,-3.014,-2.4189,-2.4189,-2.4189,-2.4225,-2.437,-2.4261,-2.4539,-2.5087,-2.5616,-2.6346,-2.7121,-2.6952,-2.7053,-2.739,-2.7503,-2.7728,-2.8111,-2.8251,-2.8506,-2.8988,-2.9293,-2.9237,-2.9084,-2.8934,-2.9072,-2.8701,-2.8179,-2.8061,-2.8524,-2.8093,-2.8543,-2.8937,-2.8688,-2.8474,-2.8539,-2.7985,-2.6788,-2.5425,-2.5771,-2.5591,-2.5384,-2.53,-2.5328,-2.5315,-2.5342,-2.5412,-2.5412,-2.5536,-2.5424,-2.5048,-2.4878,-2.4805,-2.4824,-2.4188,-2.4347,-2.5071,-2.4686,-2.4653,-2.4842,-2.5414,-2.5439,-2.5263,-2.571,-2.584,-2.5364,-2.5049,-2.5147,-2.5674,-2.4977,-2.4838,-2.4979,-2.4936,-2.4781,-2.4866,-2.5286,-2.577,-2.5907,-2.6527,-2.6832,-2.6951,-2.7029,-2.7273,-2.8002,-2.8709,-2.9364,-2.9754,-2.9858,-2.9918,-2.9918,-2.9815,-2.9691,-2.9437,-2.9421,-2.8971,-2.8465,-2.8263,-2.7999,-2.7645,-2.7403,-2.7336,-2.7652,-2.8357,-2.9024,-2.9669,-3.0012,-3.0308,-3.0231,-3.0114,-2.985,-2.9701,-2.9746,-2.9825,-2.9916,-3.0019,-3.013,-2.4189,-2.4189,-2.4189,-2.4189,-2.4189,-2.4189,-2.4334,-2.4539,-2.5087,-2.5744,-2.6393,-2.6543,-2.6998,-2.7369,-2.7523,-2.7677,-2.7902,-2.829,-2.8566,-2.8747,-2.9333,-2.9483,-2.9309,-2.9164,-2.9164,-2.8835,-2.8283,-2.7811,-2.8059,-2.7683,-2.767,-2.7966,-2.8497,-2.8292,-2.7897,-2.7381,-2.6455,-2.5666,-2.5463,-2.5189,-2.5007,-2.4951,-2.4922,-2.4922,-2.4908,-2.4948,-2.4974,-2.5174,-2.5152,-2.4771,-2.4605,-2.4862,-2.4749,-2.4129,-2.4912,-2.5537,-2.5403,-2.5585,-2.5486,-2.551,-2.5219,-2.5222,-2.5306,-2.5402,-2.5082,-2.4679,-2.4794,-2.4823,-2.4478,-2.4408,-2.4436,-2.4102,-2.3927,-2.3959,-2.4366,-2.5077,-2.555,-2.6525,-2.7104,-2.7041,-2.7081,-2.7372,-2.7938,-2.877,-2.9464,-2.98,-2.9911,-2.9951,-2.9956,-2.9837,-2.9708,-2.9248,-2.8976,-2.8632,-2.829,-2.8089,-2.7891,-2.7624,-2.7246,-2.6958,-2.7407,-2.8097,-2.8766,-2.9467,-2.96,-2.9704,-2.9817,-2.9919,-2.9833,-2.9761,-2.9841,-2.9866,-2.9924,-3.0026,-3.0164,-2.4189,-2.4189,-2.4189,-2.4189,-2.4189,-2.4189,-2.4298,-2.4502,-2.4835,-2.5385,-2.611,-2.654,-2.71,-2.7536,-2.7605,-2.7559,-2.765,-2.8119,-2.7894,-2.8166,-2.9282,-2.9129,-2.9046,-2.9239,-2.8808,-2.8508,-2.802,-2.7623,-2.7536,-2.6964,-2.7053,-2.753,-2.8117,-2.8026,-2.7638,-2.7081,-2.6385,-2.5541,-2.4898,-2.4736,-2.4429,-2.4237,-2.4266,-2.4332,-2.448,-2.4667,-2.4842,-2.5064,-2.5278,-2.4832,-2.4867,-2.5153,-2.4823,-2.4974,-2.5646,-2.5965,-2.6367,-2.6447,-2.6243,-2.6085,-2.5852,-2.5519,-2.5392,-2.4953,-2.4604,-2.4203,-2.4448,-2.4445,-2.4057,-2.4109,-2.419,-2.3743,-2.3633,-2.3667,-2.4086,-2.4806,-2.5189,-2.6136,-2.687,-2.6858,-2.7163,-2.7488,-2.7905,-2.8735,-2.9547,-2.9767,-2.9958,-2.9988,-3.0,-2.9919,-2.9664,-2.9121,-2.8816,-2.8633,-2.8281,-2.7935,-2.7753,-2.7545,-2.7284,-2.7012,-2.7289,-2.7991,-2.8607,-2.9152,-2.9256,-2.9404,-2.9684,-2.9788,-2.9748,-2.9822,-2.994,-2.9956,-2.9948,-3.0053,-3.0176,-2.4189,-2.4189,-2.4189,-2.4189,-2.4189,-2.4236,-2.4503,-2.4909,-2.4906,-2.5498,-2.6516,-2.6428,-2.698,-2.7894,-2.7721,-2.7487,-2.7564,-2.8045,-2.7631,-2.7546,-2.8586,-2.8281,-2.8221,-2.8268,-2.8237,-2.774,-2.7335,-2.7335,-2.7058,-2.6956,-2.6977,-2.7235,-2.796,-2.7762,-2.7367,-2.7063,-2.6266,-2.5325,-2.4481,-2.4331,-2.4047,-2.3603,-2.3799,-2.4013,-2.4394,-2.4558,-2.4758,-2.502,-2.5084,-2.5006,-2.5037,-2.5121,-2.5128,-2.5135,-2.5646,-2.6158,-2.6747,-2.6782,-2.6748,-2.6608,-2.6394,-2.5801,-2.5052,-2.428,-2.3979,-2.4042,-2.4239,-2.4476,-2.4335,-2.4339,-2.433,-2.4081,-2.3833,-2.405,-2.4294,-2.4631,-2.4765,-2.5425,-2.6206,-2.665,-2.7132,-2.7524,-2.7996,-2.8756,-2.958,-2.9543,-2.9788,-3.0234,-3.0223,-3.0119,-2.9732,-2.887,-2.8698,-2.8698,-2.8398,-2.8066,-2.7762,-2.7625,-2.7619,-2.747,-2.7705,-2.7766,-2.8145,-2.8559,-2.8833,-2.9076,-2.9374,-2.96,-2.9728,-2.983,-2.9975,-3.003,-3.0022,-3.0026,-3.0128,-2.4189,-2.4189,-2.4189,-2.4189,-2.4236,-2.4345,-2.4442,-2.4429,-2.4397,-2.5008,-2.602,-2.6016,-2.6733,-2.7582,-2.7507,-2.7223,-2.7208,-2.7268,-2.7156,-2.7399,-2.7934,-2.7885,-2.794,-2.7976,-2.7871,-2.7618,-2.7335,-2.7281,-2.7214,-2.7113,-2.7024,-2.7146,-2.7536,-2.7302,-2.7217,-2.7133,-2.6295,-2.5467,-2.4573,-2.4246,-2.424,-2.4064,-2.4171,-2.4468,-2.5033,-2.5114,-2.5011,-2.5448,-2.5439,-2.4814,-2.5471,-2.5724,-2.5261,-2.5957,-2.667,-2.6708,-2.6812,-2.6748,-2.6616,-2.658,-2.6391,-2.6034,-2.5377,-2.5198,-2.4741,-2.4389,-2.4347,-2.4571,-2.4692,-2.4687,-2.4816,-2.4687,-2.436,-2.4335,-2.4619,-2.4823,-2.5018,-2.5539,-2.6315,-2.6861,-2.7336,-2.7861,-2.831,-2.9,-2.9703,-2.95,-2.9634,-3.0136,-3.0384,-3.0264,-2.9917,-2.905,-2.884,-2.8942,-2.8689,-2.837,-2.7995,-2.7724,-2.7896,-2.7875,-2.7685,-2.772,-2.7783,-2.8061,-2.8545,-2.8845,-2.9089,-2.9359,-2.9785,-2.9844,-2.9962,-3.0033,-3.0095,-3.0098,-3.0113,-2.4381,-2.4418,-2.4345,-2.4357,-2.4454,-2.4562,-2.4538,-2.4489,-2.4626,-2.5063,-2.548,-2.5974,-2.6621,-2.7339,-2.7377,-2.7123,-2.6699,-2.7152,-2.6968,-2.631,-2.7382,-2.7358,-2.75,-2.7699,-2.776,-2.7496,-2.7369,-2.7335,-2.7302,-2.7281,-2.7214,-2.7214,-2.718,-2.7146,-2.7136,-2.6909,-2.6693,-2.6023,-2.5409,-2.4881,-2.4798,-2.4842,-2.4957,-2.5147,-2.5733,-2.5632,-2.5241,-2.5743,-2.5548,-2.4914,-2.5695,-2.5807,-2.5496,-2.6161,-2.6517,-2.6483,-2.6427,-2.6324,-2.6239,-2.6197,-2.6043,-2.5841,-2.5555,-2.5421,-2.5235,-2.4893,-2.4956,-2.5038,-2.5029,-2.5084,-2.5265,-2.5342,-2.4968,-2.4606,-2.491,-2.5153,-2.5575,-2.6004,-2.6577,-2.7156,-2.7708,-2.8257,-2.8835,-2.949,-2.9661,-2.9241,-2.9457,-3.0188,-3.038,-3.0274,-3.0005,-2.9413,-2.9301,-2.9304,-2.9031,-2.8921,-2.8779,-2.8686,-2.8833,-2.867,-2.8049,-2.7862,-2.8084,-2.8248,-2.843,-2.8883,-2.9504,-2.9651,-2.9932,-3.0068,-3.0251,-3.0318,-3.0312,-3.0142,-3.015,-2.461,-2.4765,-2.4598,-2.4563,-2.4719,-2.4696,-2.4696,-2.4766,-2.5013,-2.5217,-2.5226,-2.6035,-2.6698,-2.7049,-2.7023,-2.6712,-2.6504,-2.6743,-2.6356,-2.5088,-2.6542,-2.6905,-2.6808,-2.7031,-2.7147,-2.7203,-2.7201,-2.7134,-2.7369,-2.7403,-2.7403,-2.7469,-2.7369,-2.7302,-2.7271,-2.6912,-2.6806,-2.6865,-2.6438,-2.6013,-2.5621,-2.5429,-2.5218,-2.5149,-2.5485,-2.5702,-2.5245,-2.535,-2.5772,-2.5526,-2.5394,-2.5523,-2.5732,-2.5685,-2.5814,-2.5896,-2.5896,-2.5826,-2.5826,-2.5889,-2.5844,-2.5674,-2.5397,-2.533,-2.5177,-2.4866,-2.4822,-2.5344,-2.5441,-2.5435,-2.5582,-2.5723,-2.5473,-2.5268,-2.5353,-2.5483,-2.5634,-2.6206,-2.6919,-2.7596,-2.8438,-2.8887,-2.8988,-2.9565,-2.9639,-2.9062,-2.9326,-3.0204,-3.0364,-3.0295,-3.017,-2.9839,-2.9892,-2.9892,-2.9885,-2.9794,-2.9769,-2.976,-2.9698,-2.9379,-2.8698,-2.8523,-2.8481,-2.8844,-2.9256,-2.9666,-3.0105,-3.0319,-3.0556,-3.0837,-3.0937,-3.0777,-3.0617,-3.0424,-3.0197,-2.4754,-2.4801,-2.4754,-2.4542,-2.4225,-2.4353,-2.4353,-2.4178,-2.4183,-2.4637,-2.5265,-2.5503,-2.5928,-2.6426,-2.6278,-2.5972,-2.5773,-2.5955,-2.5611,-2.5218,-2.5872,-2.6117,-2.5997,-2.6321,-2.6486,-2.6546,-2.6667,-2.6918,-2.7167,-2.7335,-2.7356,-2.7214,-2.7248,-2.7369,-2.7369,-2.7022,-2.7291,-2.7377,-2.7311,-2.6958,-2.658,-2.6375,-2.6239,-2.6578,-2.704,-2.665,-2.6262,-2.6102,-2.6056,-2.574,-2.5277,-2.5419,-2.5779,-2.5429,-2.5464,-2.5721,-2.5429,-2.5288,-2.5288,-2.5464,-2.5499,-2.5476,-2.5259,-2.5113,-2.4876,-2.4516,-2.4674,-2.5378,-2.5783,-2.5769,-2.5831,-2.5957,-2.6029,-2.5908,-2.582,-2.5787,-2.5771,-2.6476,-2.7237,-2.8088,-2.8999,-2.9314,-2.9364,-2.9342,-2.9398,-2.9563,-2.9807,-3.026,-3.0384,-3.0405,-3.0593,-3.0423,-3.0547,-3.0583,-3.0576,-3.0499,-3.0387,-3.0207,-3.0042,-2.9688,-2.9311,-2.9401,-2.9481,-2.9884,-3.0276,-3.0542,-3.0815,-3.1138,-3.1381,-3.1611,-3.161,-3.1479,-3.1176,-3.093,-3.0529,-2.419,-2.4351,-2.4351,-2.4185,-2.397,-2.4036,-2.4036,-2.3909,-2.3826,-2.414,-2.4684,-2.479,-2.5046,-2.5636,-2.5573,-2.5249,-2.4989,-2.5075,-2.4703,-2.452,-2.4687,-2.5,-2.5242,-2.5669,-2.6156,-2.6346,-2.6769,-2.7087,-2.7113,-2.7248,-2.7268,-2.7146,-2.7268,-2.7302,-2.7341,-2.7538,-2.7657,-2.7503,-2.7712,-2.7556,-2.7245,-2.6976,-2.6455,-2.6905,-2.6747,-2.6528,-2.596,-2.5565,-2.5367,-2.5075,-2.476,-2.4741,-2.4921,-2.4778,-2.4814,-2.4921,-2.4814,-2.4671,-2.4778,-2.4921,-2.5052,-2.4957,-2.4886,-2.4602,-2.4566,-2.4269,-2.4342,-2.4945,-2.5288,-2.533,-2.5732,-2.5956,-2.6194,-2.6193,-2.6245,-2.6288,-2.6474,-2.6918,-2.7388,-2.7855,-2.8699,-2.9349,-2.932,-2.9165,-2.9128,-2.8845,-2.9291,-2.987,-3.007,-3.0572,-3.0773,-3.0895,-3.0955,-3.0995,-3.0917,-3.0886,-3.0873,-3.0656,-3.0405,-3.018,-2.9993,-3.0282,-3.0536,-3.0625,-3.0815,-3.1179,-3.1472,-3.1875,-3.212,-3.2307,-3.2272,-3.2156,-3.1836,-3.1575,-3.1433,-2.3362,-2.3688,-2.3715,-2.3725,-2.373,-2.373,-2.3697,-2.3673,-2.3601,-2.3565,-2.3619,-2.3825,-2.4153,-2.4661,-2.4918,-2.4669,-2.4527,-2.4442,-2.3976,-2.358,-2.3649,-2.4116,-2.4708,-2.524,-2.5604,-2.6173,-2.6701,-2.6905,-2.6985,-2.7201,-2.7335,-2.7268,-2.7201,-2.7134,-2.7403,-2.7777,-2.8001,-2.784,-2.7798,-2.7576,-2.7349,-2.7079,-2.6436,-2.5871,-2.5476,-2.5264,-2.4647,-2.4345,-2.4357,-2.4386,-2.4492,-2.4449,-2.4393,-2.437,-2.4334,-2.4406,-2.4406,-2.4334,-2.4298,-2.437,-2.4334,-2.4261,-2.4189,-2.4189,-2.4202,-2.4243,-2.4295,-2.4449,-2.4756,-2.5063,-2.551,-2.5928,-2.6193,-2.6413,-2.6532,-2.6575,-2.685,-2.7203,-2.7557,-2.786,-2.8553,-2.9316,-2.9305,-2.9122,-2.8804,-2.8474,-2.8661,-2.9127,-2.9717,-3.0497,-3.0998,-3.1095,-3.1134,-3.1173,-3.1193,-3.1176,-3.1106,-3.1147,-3.0932,-3.0747,-3.0713,-3.1046,-3.114,-3.0993,-3.1225,-3.1836,-3.2283,-3.2674,-3.2871,-3.3034,-3.2876,-3.2779,-3.2691,-3.2497,-3.2562,-2.315,-2.3309,-2.3181,-2.3221,-2.3321,-2.3304,-2.3304,-2.32,-2.2754,-2.2498,-2.2618,-2.2635,-2.3038,-2.396,-2.3681,-2.3568,-2.3686,-2.3758,-2.3421,-2.2972,-2.3546,-2.3742,-2.4083,-2.4732,-2.4778,-2.5489,-2.6223,-2.6474,-2.6649,-2.7092,-2.7268,-2.6977,-2.7328,-2.7354,-2.7385,-2.7816,-2.8278,-2.8088,-2.7754,-2.7458,-2.6947,-2.6684,-2.643,-2.6035,-2.5791,-2.5441,-2.5052,-2.4838,-2.4808,-2.4784,-2.4682,-2.4476,-2.4338,-2.4235,-2.4258,-2.4235,-2.4235,-2.4235,-2.4235,-2.42,-2.4189,-2.4189,-2.4189,-2.4189,-2.4213,-2.4213,-2.4243,-2.4243,-2.4479,-2.4683,-2.5075,-2.5604,-2.5963,-2.6185,-2.6362,-2.6297,-2.6413,-2.7138,-2.7753,-2.832,-2.8986,-2.9374,-2.9463,-2.9158,-2.8778,-2.8669,-2.9036,-2.9489,-2.9789,-3.0485,-3.1196,-3.1271,-3.1291,-3.131,-3.1293,-3.1293,-3.1276,-3.1385,-3.1423,-3.1204,-3.1289,-3.1811,-3.1861,-3.1619,-3.2089,-3.277,-3.3148,-3.3293,-3.3636,-3.3746,-3.351,-3.3375,-3.3356,-3.3414,-3.347]},{"header":{"parameterUnit":"m.s-1","parameterCategory":1,"la1":31.0,"la2":29.5877,"lo1":-88.7671,"lo2":-86.6584,"dy":0.0162,"dx":0.0185,"nx":115,"ny":88,"refTime":"2024-08-07T06:00:00:Z","depth":0,"parameterNumber":3,"parameterNumberName":"V-component_of_WINDS"},"data":[0.0,0.0,0.0,0.0,0.0,0.0,0.0,0.0,0.0,0.0,0.0,0.0,0.0,0.0,0.0,0.0,0.0,0.0,0.0,0.0,0.0,0.0,0.0,0.0,0.0,0.0,0.0,0.0,0.0,0.0,0.0,0.0,0.0,0.0,0.0,0.0,0.0,0.0,0.0,0.0,0.0,0.0,0.0,0.0,0.0,0.0,0.0,0.0,0.0,0.0,0.0,0.0,0.0,0.0,0.0,0.0,0.0,0.0,0.0,0.0,0.0,0.0,0.0,0.0,0.0,0.0,0.0,0.0,0.0,0.0,0.0,0.0,0.0,0.0,0.0,0.0,0.0,0.0,0.0,0.0,0.0,0.0,0.0,0.0,0.0,0.0,0.0,0.0,0.0,0.0,0.0,0.0,0.0,0.0,0.0,0.0,0.0,0.0,0.0,0.0,0.0,0.0,0.0,0.0,0.0,0.0,0.0,0.0,0.0,0.0,0.0,0.0,0.0,0.0,0.0,0.0,0.0,0.0,0.0,0.0,0.0,0.0,0.0,0.0,0.0,0.0,0.0,0.0,0.0,0.0,0.0,0.0,0.0,0.0,0.0,0.0,0.0,0.0,0.0,0.0,0.0,0.0,0.0,0.0,0.0,0.0,0.0,0.0,0.0,0.0,0.0,0.0,0.0,0.0,0.0,0.0,0.0,0.0,0.0,0.0,0.0,0.0,0.0,0.0,0.0,0.0,0.0,0.0,0.0,0.0,0.0,0.0,0.0,0.0,0.0,0.0,0.0,0.0,0.0,0.0,0.0,0.0,0.0,0.0,0.0,0.0,0.0,0.0,0.0,0.0,0.0,0.0,0.0,0.0,0.0,0.0,0.0,0.0,0.0,0.0,0.0,0.0,0.0,0.0,0.0,0.0,0.0,0.0,0.0,0.0,0.0,0.0,0.0,0.0,0.0,0.0,0.0,0.0,0.0,0.0,0.0,0.0,0.0,0.0,0.0,0.0,0.0,0.0,0.0,0.0,0.0,0.0,0.0,0.0,0.0,0.0,0.0,0.0,0.0,0.0,0.0,0.0,0.0,0.0,0.0,0.0,0.0,0.0,0.0,0.0,0.0,0.0,0.0,0.0,0.0,0.0,0.0,0.0,0.0,0.0,0.0,0.0,0.0,0.0,0.0,0.0,0.0,0.0,0.0,0.0,0.0,0.0,0.0,0.0,0.0,0.0,0.0,0.0,0.0,0.0,0.0,0.0,0.0,0.0,0.0,0.0,0.0,0.0,0.0,0.0,0.0,0.0,0.0,0.0,0.0,0.0,0.0,0.0,0.0,0.0,0.0,0.0,0.0,0.0,0.0,0.0,0.0,0.0,0.0,0.0,0.0,0.0,0.0,0.0,0.0,0.0,0.0,0.0,0.0,0.0,0.0,0.0,0.0,0.0,0.0,0.0,0.0,0.0,0.0,0.0,0.0,0.0,0.0,0.0,0.0,0.0,0.0,0.0,0.0,0.0,0.0,0.0,0.0,0.0,0.0,0.0,0.0,0.0,0.0,0.0,0.0,0.0,0.0,0.0,0.0,0.0,0.0,0.0,0.0,0.0,0.0,0.0,0.0,0.0,0.0,0.0,0.0,0.0,0.0,0.0,0.0,0.0,0.0,0.0,0.0,0.0,0.0,0.0,0.0,0.0,0.0,0.0,0.0,0.0,0.0,0.0,0.0,0.0,0.0,0.0,0.0,0.0,0.0,0.0,0.0,0.0,0.0,0.0,0.0,0.0,0.0,0.0,0.0,0.0,0.0,0.0,0.0,0.0,0.0,0.0,0.0,0.0,0.0,0.0,0.0,0.0,0.0,0.0,0.0,0.0,0.0,0.0,0.0,0.0,0.0,0.0,0.0,0.0,0.0,0.0,0.0,0.0,0.0,0.0,0.0,0.0,0.0,0.0,0.0,0.0,0.0,0.0,0.0,0.0,0.0,0.0,0.0,0.0,0.0,0.0,0.0,0.0,0.0,0.0,0.0,0.0,0.0,0.0,0.0,0.0,0.0,0.0,0.0,0.0,0.0,0.0,0.0,0.0,0.0,0.0,0.0,0.0,0.0,0.0,0.0,0.0,0.0,0.0,0.0,0.0,0.0,0.0,0.0,0.0,0.0,0.0,0.0,0.0,0.0,0.0,0.0,0.0,0.0,0.0,0.0,0.0,0.0,0.0,0.0,0.0,0.0,0.0,0.0,0.0,0.0,0.0,0.0,0.0,0.0,0.0,0.0,0.0,0.0,0.0,0.0,0.0,0.0,0.0,0.0,0.0,0.0,0.0,0.0,0.0,0.0,0.0,0.0,0.0,0.0,0.0,0.0,0.0,0.0,0.0,0.0,0.0,0.0,0.0,0.0,0.0,0.0,0.0,0.0,0.0,0.0,0.0,0.0,0.0,0.0,0.0,0.0,0.0,0.0,0.0,0.0,0.0,0.0,0.0,0.0,0.0,0.0,0.0,0.0,0.0,0.0,0.0,0.0,0.0,0.0,0.0,0.0,0.0,0.0,0.0,0.0,0.0,0.0,0.0,0.0,0.0,0.0,0.0,0.0,0.0,0.0,0.0,0.0,0.0,0.0,0.0,0.0,0.0,0.0,0.0,0.0,0.0,0.0,0.0,0.0,0.0,0.0,0.0,0.0,0.0,0.0,0.0,0.0,0.0,0.0,0.0,0.0,0.0,0.0,0.0,0.0,0.0,0.0,0.0,0.0,0.0,0.0,0.0,0.0,0.0,0.0,0.0,0.0,0.0,0.0,0.0,0.0,0.0,0.0,0.0,0.0,0.0,0.0,0.0,0.0,0.0,0.0,0.0,0.0,0.0,0.0,0.0,0.0,0.0,0.0,0.0,0.0,0.0,0.0,0.0,0.0,0.0,0.0,0.0,0.0,0.0,0.0,0.0,0.0,0.0,0.0,0.0,0.0,0.0,0.0,0.0,0.0,0.0,0.0,0.0,0.0,0.0,0.0,0.0,0.0,0.0,0.0,0.0,0.0,0.0,0.0,0.0,0.0,0.0,0.0,0.0,0.0,0.0,0.0,0.0,0.0,0.0,0.0,0.0,0.0,0.0,0.0,0.0,0.0,0.0,0.0,0.0,0.0,0.0,0.0,0.0,0.0,0.0,0.0,0.0,0.0,0.0,0.0,0.0,0.0,0.0,0.0,0.0,0.0,0.0,0.0,0.0,0.0,0.0,0.0,0.0,0.0,0.0,0.0,0.0,0.0,0.0,0.0,0.0,0.0,0.0,0.0,0.0,0.0,0.0,0.0,0.0,0.0,0.0,0.0,0.0,0.0,0.0,0.0,0.0,0.0,0.0,0.0,0.0,0.0,0.0,0.0,0.0,0.0,0.0,0.0,0.0,0.0,0.0,0.0,0.0,0.0,0.0,0.0,0.0,0.0,0.0,0.0,0.0,0.0,0.0,0.0,0.0,0.0,0.0,0.0,0.0,0.0,0.0,0.0,0.0,0.0,0.0,0.0,0.0,0.0,0.0,0.0,0.0,0.0,0.0,0.0,0.0,0.0,0.0,0.0,0.0,0.0,0.0,0.0,0.0,0.0,0.0,0.0,0.0,0.0,0.0,0.0,0.0,0.0,0.0,0.0,0.0,0.0,0.0,0.0,0.0,0.0,0.0,0.0,0.0,0.0,0.0,0.0,0.0,0.0,0.0,0.0,0.0,0.0,0.0,0.0,0.0,0.0,0.0,0.0,0.0,0.0,0.0,0.0,0.0,0.0,0.0,0.0,0.0,0.0,0.0,0.0,0.0,0.0,0.0,0.0,0.0,0.0,0.0,0.0,0.0,0.0,0.0,0.0,0.0,0.0,0.0,0.0,0.0,0.0,0.0,0.0,0.0,0.0,0.0,0.0,0.0,0.0,0.0,0.0,0.0,0.0,0.0,0.0,0.0,0.0,0.0,0.0,0.0,0.0,0.0,0.0,0.0,0.0,0.0,0.0,0.0,0.0,0.0,0.0,0.0,0.0,0.0,0.0,0.0,0.0,0.0,0.0,0.0,0.0,0.0,0.0,0.0,0.0,0.0,0.0,0.0,0.0,0.0,0.0,0.0,0.0,0.0,0.0,0.0,0.0,0.0,0.0,0.0,0.0,0.0,0.0,0.0,0.0,0.0,0.0,0.0,0.0,0.0,0.0,0.0,0.0,0.0,0.0,0.0,0.0,0.0,0.0,0.0,0.0,0.0,0.0,0.0,0.0,0.0,0.0,0.0,0.0,0.0,0.0,0.0,-0.3486,0.0,0.0,0.0,0.0,0.0,0.0,0.0,0.0,0.0,0.0,0.0,0.0,0.0,0.0,0.0,0.0,0.0,0.0,0.0,0.0,0.0,0.0,0.0,0.0,0.0,0.0,0.0,0.0,0.0,0.0,0.0,0.0,0.0,0.0,0.0,0.0,0.0,0.0,0.0,0.0,0.0,0.0,0.0,0.0,0.0,0.0,0.0,0.0,0.0,0.0,0.0,0.0,0.0,0.0,0.0,0.0,0.0,0.0,0.0,0.0,0.0,0.0,0.0,0.0,0.0,0.0,0.0,0.0,0.0,0.0,0.0,0.0,0.0,0.0,0.0,0.0,0.0,0.0,0.0,0.0,0.0,0.0,0.0,0.0,0.0,0.0,0.0,0.0,0.0,0.0,0.0,0.0,0.0,0.0,0.0,0.0,0.0,0.0,0.0,0.0,0.0,0.0,0.0,0.0,0.0,0.0,0.0,0.0,0.0,0.0,1.2827,0.5718,0.7536,0.4887,-0.2965,0.0,0.0,0.0,0.0,0.0,0.0,0.0,0.0,0.0,0.0,0.0,0.0,0.0,0.0,0.0,0.0,0.0,0.0,0.0,0.0,0.0,0.0,0.0,0.0,0.0,0.0,0.0,0.0,0.0,0.0,0.0,0.0,0.0,0.0,0.0,0.0,0.0,0.0,0.0,0.0,0.0,0.0,0.0,0.0,0.0,0.0,0.0,0.0,0.0,0.0,0.0,0.0,0.0,0.0,0.0,0.0,0.0,0.0,0.0,0.0,0.0,0.0,0.0,0.0,0.0,0.0,0.0,0.0,0.0,0.0,0.0,0.0,0.0,0.0,0.0,0.0,0.0,0.0,0.0,0.0,0.0,0.0,0.0,0.0,0.0,0.0,0.0,0.0,0.0,0.0,0.0,0.0,0.0,0.0,0.0,0.0,0.0,0.0,0.0,0.0,0.0,0.0,0.0,0.0,0.0,0.0,0.0,0.0,0.0,0.0,0.0,0.0,0.672,0.453,-0.1345,0.0,0.0,0.0,0.0,0.0,0.0,0.0,0.0,0.0,0.0,0.0,0.0,0.0,0.0,0.0,0.0,0.0,0.0,0.0,0.0,0.0,0.0,0.0,0.0,0.0,0.0,0.0,0.0,0.0,0.0,0.0,0.0,0.0,0.0,0.0,0.0,0.0,0.0,0.0,0.0,0.0,0.0,0.0,0.0,0.0,0.0,0.0,0.0,0.0,0.0,0.0,0.0,0.0,0.0,0.0,0.0,0.0,0.0,0.0,0.0,0.0,0.0,0.0,0.0,0.0,0.0,0.0,0.0,0.0,0.0,0.0,0.0,0.0,0.0,0.0,0.0,0.0,0.0,0.0,0.0,0.0,0.0,0.0,0.0,0.0,0.0,0.0,0.0,0.0,0.0,0.0,0.0,0.0,0.0,0.0,0.0,0.0,0.0,0.0,0.0,0.0,0.0,0.0,0.0,0.0,0.0,0.0,0.0,0.0,0.0,0.9156,0.4702,0.3935,0.0,-0.0094,0.0,0.0,0.0,0.0,0.0,0.0,0.0,0.0,0.0,0.0,0.0,0.0,0.0,0.0,0.0,0.0,0.0,0.0,0.0,0.0,0.0,0.0,0.0,0.0,0.0,0.0,0.0,0.0,0.0,0.0,0.0,0.0,0.0,0.0,0.0,0.0,0.0,0.0,0.0,0.0,0.0,0.0,0.0,0.0,0.0,0.0,0.0,0.0,0.0,0.0,0.0,0.0,0.0,0.0,0.0,0.0,0.0,0.0,0.0,0.0,0.0,0.0,0.0,0.0,0.0,0.0,0.0,0.0,0.0,0.0,0.0,0.0,0.0,0.0,0.0,0.0,0.0,0.0,0.0,0.0,0.0,0.0,0.0,0.0,0.0,0.0,0.0,0.0,0.0,0.0,0.0,0.0,0.0,0.0,0.0,0.0,0.0,0.0,0.0,0.0,0.0,0.0,0.0,0.0,0.0,0.0,0.0,0.0,0.0,0.0,0.0,0.1493,0.2093,0.111,0.0,0.0,0.0,0.0,0.0,0.0,0.0,0.0,0.0,0.0,0.0,0.0,0.0,0.0,0.0,0.0,0.0,0.0,0.0,0.0,0.0,0.0,0.0,0.0,0.0,0.0,0.0,0.0,0.0,0.0,0.0,0.0,0.0,0.0,0.0,0.0,0.0,0.0,0.0,0.0,0.0,0.0,0.0,0.0,0.0,0.0,0.0,0.0,0.0,0.0,0.0,0.0,0.0,0.0,0.0,0.0,0.0,0.0,0.0,0.0,0.0,0.0,0.0,0.0,0.0,0.0,0.0,0.0,0.0,0.0,0.0,0.0,0.0,0.0,0.0,0.0,0.0,0.0,0.0,0.0,0.0,0.0,0.0,0.0,0.0,0.0,0.0,0.0,0.0,0.0,0.0,0.0,0.0,0.0,0.0,0.0,0.0,0.0,0.0,0.0,0.0,0.0,0.0,0.0,0.0,0.0,0.0,0.0,0.0,0.0,0.282,0.0,0.1492,0.1185,0.0141,-0.1697,0.0,0.0,0.0,0.0,0.0,0.0,0.0,0.0,0.0,0.0,0.0,0.0,0.0,0.0,0.0,0.0,0.0,0.0,0.0,0.0,0.0,0.0,0.0,0.0,0.0,0.0,0.0,0.0,0.0,0.0,0.0,0.0,0.0,0.0,0.0,0.0,0.0,0.0,0.0,0.0,0.0,0.0,0.0,0.0,0.0,0.0,0.0,0.0,0.0,0.0,0.0,0.0,0.0,0.0,0.0,0.0,0.0,0.0,0.0,0.0,0.0,0.0,0.0,0.0,0.0,0.0,0.0,0.0,0.0,0.0,0.0,0.0,0.0,0.0,0.0,0.0,0.0,0.0,0.0,0.0,0.0,0.0,0.0,0.0,0.0,0.0,0.0,0.0,0.0,0.0,0.0,0.0,0.0,0.0,0.0,0.0,0.0,0.0,0.0,0.0,0.0,0.0,0.0,0.0,0.0,0.0,0.0,0.0,0.0,0.5347,0.4599,0.6302,0.1484,-0.0524,0.0,0.0,0.0,0.0,0.0,0.0,0.0,0.0,0.0,0.0,0.0,0.0,0.0,0.0,0.0,0.0,0.0,0.0,0.0,0.0,0.0,0.0,0.0,0.0,0.0,0.0,0.0,0.0,0.0,0.0,0.0,0.0,0.0,0.0,0.0,0.0,0.0,0.0,0.0,0.0,0.0,0.0,0.0,0.0,0.0,0.0,0.0,0.0,0.0,0.0,0.0,0.0,0.0,0.0,0.0,0.0,0.0,0.0,0.0,0.0,0.0,0.0,0.0,0.0,0.0,0.0,0.0,0.0,0.0,0.0,0.0,0.0,0.0,0.0,0.0,0.0,0.0,0.0,0.0,0.0,0.0,0.0,0.0,0.0,0.0,0.0,0.0,0.0,0.0,0.0,0.0,0.0,0.0,0.0,0.0,0.0,0.0,0.0,0.0,0.0,0.0,0.0,0.0,0.0,0.0,0.0,0.0,0.0,0.0,-0.0748,0.0807,0.2592,0.4861,0.2953,0.1665,0.0,0.0,0.0,0.0,0.0,0.0,0.0,0.0,0.0,0.0,0.0,0.0,0.0,0.0,0.0,0.0,0.0,0.0,0.0,0.0,0.0,0.0,0.0,0.0,0.0,0.0,0.0,0.0,0.0,0.0,0.0,0.0,0.0,0.0,0.0,0.0,0.0,0.0,0.0,0.0,0.0,0.0,0.0,0.0,0.0,0.0,0.0,0.0,0.0,0.0,0.0,0.0,0.0,0.0,0.0,0.0,0.0,0.0,0.0,0.0,0.0,0.0,0.0,0.0,0.0,0.0,0.0,0.0,0.0,0.0,0.0,0.0,0.0,0.0,0.0,0.0,0.0,0.0,0.0,0.0,0.0,0.0,0.0,0.0,0.0,0.0,0.0,0.0,0.0,0.0,0.0,0.0,0.0,0.0,0.0,0.0,0.0,0.0,0.0,0.0,0.0,0.0,0.0,0.0,0.0,0.0,0.0,0.0,0.0,-0.3855,0.0,0.426,0.0,0.405,0.2495,0.0,0.0,0.0,0.0,0.0,0.0,0.0,0.0,0.0,0.0,0.0,0.0,0.0,0.0,0.0,0.0,0.0,0.0,0.0,0.0,0.0,0.0,0.0,0.0,0.0,0.0,0.0,0.0,0.0,0.0,0.0,0.0,0.0,0.0,0.0,0.0,0.0,0.0,0.0,0.0,0.0,0.0,0.0,0.0,0.0,0.0,0.0,0.0,0.0,0.0,0.0,0.0,0.0,0.0,0.0,0.0,0.0,0.0,0.0,0.0,0.0,0.0,0.0,0.0,0.0,0.0,0.0,0.0,0.0,0.0,0.0,0.0,0.0,0.0,0.0,0.0,0.0,0.0,0.0,0.0,0.0,0.0,0.0,0.0,0.0,0.0,0.0,0.0,0.0,0.0,0.0,0.0,0.0,0.0,0.0,0.0,0.0,0.0,0.0,0.0,0.0,0.0,0.0,0.0,0.0,0.0,0.0,0.0,-1.1728,0.0289,0.7158,0.9841,0.8922,0.4609,0.1774,0.0,0.0,0.0,0.0,0.0,0.0,0.0,0.0,0.0,0.0,0.0,0.0,0.0,0.0,0.0,0.0,0.0,0.0,0.0,0.0,0.0,0.0,0.0,0.0,0.0,0.0,0.0,0.0,0.0,0.0,0.0,0.0,0.0,0.0,0.0,0.0,0.0,0.0,0.0,0.0,0.0,0.0,0.0,0.0,0.0,0.0,0.0,0.0,0.0,0.0,0.0,0.0,0.0,0.0,0.0,0.0,0.0,0.0,0.0,0.0,0.0,0.0,0.0,0.0,0.0,0.0,0.0,0.0,0.0,0.0,0.0,0.0,0.0,0.0,0.0,0.0,0.0,0.0,0.0,0.0,0.0,0.0,0.0,0.0,0.0,0.0,0.0,0.0,0.0,0.0,0.0,0.0,0.0,0.0,0.0,0.0,0.0,0.0,0.0,0.0,0.0,0.0,0.0,0.0,0.0,0.0,0.0,0.0,0.0,0.2742,0.7084,0.9279,0.8972,0.5505,0.3479,0.0,0.0,0.0,0.0,0.0,0.0,0.0,0.0,0.0,0.0,0.0,0.0,0.0,0.0,0.0,0.0,0.0,0.0,0.0,0.0,0.0,0.0,0.0,0.0,0.0,0.0,0.0,0.0,0.0,0.0,0.0,0.0,0.0,0.0,0.0,0.0,0.0,0.0,0.0,0.0,0.0,0.0,0.0,0.0,0.0,0.0,0.0,0.0,0.0,0.0,0.0,0.0,0.0,0.0,0.0,0.0,0.0,0.0,0.0,0.0,0.0,0.0,0.0,0.0,0.0,0.0,0.0,0.0,0.0,0.0,0.0,0.0,0.0,0.0,0.0,0.0,0.0,0.0,0.0,0.0,0.0,0.0,0.0,0.0,0.0,0.0,0.0,0.0,0.0,0.0,0.0,0.0,0.0,0.0,0.0,0.0,0.0,0.0,0.0,0.0,0.0,0.0,0.0,0.0,0.0,0.0,0.0,0.0,0.0,0.5917,0.8735,1.012,0.9725,0.6433,0.4599,0.4371,0.0,0.0,0.0,0.0,0.0,0.0,0.0,0.0,0.0,0.0,0.0,0.0,0.0,0.0,0.0,0.0,0.0,0.0,0.0,0.0,0.0,0.0,0.0,0.0,0.0,0.0,0.0,0.0,0.0,0.0,0.0,0.0,0.0,0.0,0.0,0.0,0.0,0.0,0.0,0.0,0.0,0.0,0.0,0.0,0.0,0.0,0.0,0.0,0.0,0.0,0.0,0.0,0.0,0.0,0.0,0.0,0.0,0.0,0.0,0.0,0.0,0.0,0.0,0.0,0.0,0.0,0.0,0.0,0.0,0.0,0.0,0.0,0.0,0.0,0.0,0.0,0.0,0.0,0.0,0.0,0.0,0.0,0.0,0.0,0.0,0.0,0.0,0.0,0.0,0.0,0.0,0.0,0.0,0.0,0.0,0.0,0.0,0.0,0.0,0.0,0.0,0.0,0.0,0.0,0.0,0.0,0.0,0.0,0.9307,1.1728,1.2262,1.0792,0.7309,0.5112,0.0,0.0,0.0,0.0,0.0,0.0,0.0,0.0,0.0,0.0,0.0,0.0,0.0,0.0,0.0,0.0,0.0,0.0,0.0,0.0,0.0,0.0,0.0,0.0,0.0,0.0,0.0,0.0,0.0,0.0,0.0,0.0,0.0,0.0,0.0,0.0,0.0,0.0,0.0,0.0,0.0,0.0,0.0,0.0,0.0,0.0,0.0,0.0,0.0,0.0,0.0,0.0,0.0,0.0,0.0,0.0,0.0,0.0,0.0,0.0,0.0,0.0,0.0,0.0,0.0,0.0,0.0,0.0,0.0,0.0,0.0,0.0,0.0,0.0,0.0,0.0,0.0,0.0,0.0,0.0,0.0,0.0,0.0,0.0,0.0,0.0,0.0,0.0,0.0,0.0,0.0,0.0,0.0,0.0,0.0,0.0,0.0,0.0,0.0,0.0,0.0,0.0,0.0,0.0,0.0,0.0,0.0,0.0,0.0,0.9836,1.1811,1.2266,1.1005,0.7694,0.5605,0.0,0.0,0.0,0.0,0.0,0.0,0.0,0.0,0.0,0.0,0.0,0.0,0.0,0.0,0.0,0.0,0.0,0.0,0.0,0.0,0.0,0.0,0.0,0.0,0.0,0.0,0.0,0.0,0.0,0.0,0.0,0.0,0.0,0.0,0.0,0.0,0.0,0.0,0.0,0.0,0.0,0.0,0.0,0.0,0.0,0.0,0.0,0.0,0.0,0.0,0.0,0.0,0.0,0.0,0.0,0.0,0.0,0.0,0.0,0.0,0.0,0.0,0.0,0.0,0.0,0.0,0.0,0.0,0.0,0.0,0.0,0.0,0.0,0.0,0.0,0.0,0.0,0.0,0.0,0.0,0.0,0.0,0.0,0.0,0.0,0.0,0.0,0.0,0.0,0.0,0.0,0.0,0.0,0.0,0.0,0.0,0.0,0.0,0.0,0.0,0.0,0.0,0.0,0.0,0.0,0.0,0.0,0.0,0.9337,1.1019,1.2237,1.2313,1.1122,0.8469,0.6447,0.0,0.0,0.0,0.0,0.0,0.0,0.0,0.0,0.0,0.0,0.0,0.0,0.0,0.0,0.0,0.0,0.0,0.0,0.0,0.0,0.0,0.0,0.0,0.0,0.0,0.0,0.0,0.0,0.0,0.0,0.0,0.0,0.0,0.0,0.0,0.0,0.0,0.0,0.0,0.0,0.0,0.0,0.0,0.0,0.0,0.0,0.0,0.0,0.0,0.0,0.0,0.0,0.0,0.0,0.0,0.0,0.0,0.0,0.0,0.0,0.0,0.0,0.0,0.0,0.0,0.0,0.0,0.0,0.0,0.0,0.0,0.0,0.0,0.0,0.0,0.0,0.0,0.0,0.0,0.0,0.0,0.0,0.0,0.0,0.0,0.0,0.0,0.0,0.0,0.0,0.0,0.0,0.0,0.0,0.0,0.0,0.0,0.0,0.0,0.0,0.0,0.0,0.0,0.0,0.0,0.0,0.0,0.0,1.0137,1.2442,1.2826,1.2397,1.1132,0.9383,0.7454,0.0,0.0,0.0,0.0,0.0,0.0,0.0,0.0,0.0,0.0,0.0,0.0,0.0,0.0,0.0,0.0,0.0,0.0,0.0,0.0,0.0,0.0,0.0,0.0,0.0,0.0,0.0,0.0,0.0,0.0,0.0,0.0,0.0,0.0,0.0,0.0,0.0,0.0,0.0,0.0,0.0,0.0,0.0,0.0,0.0,0.0,0.0,0.0,0.0,0.0,0.0,0.0,0.0,0.0,0.0,0.0,0.0,0.0,0.0,0.0,0.0,0.0,0.0,0.0,0.0,0.0,0.0,0.0,0.0,0.0,0.0,0.0,0.0,0.0,0.0,0.0,0.0,0.0,0.0,0.0,0.0,0.0,0.0,0.0,0.0,0.0,0.0,0.0,0.0,0.0,0.0,0.0,0.0,0.0,0.0,0.0,0.0,0.0,0.0,0.0,0.0,0.0,0.0,0.0,0.0,0.0,0.0,0.0,1.045,1.2671,1.2917,1.2405,1.1115,0.9665,0.7758,0.0,0.0,0.0,0.0,0.0,0.0,0.0,0.0,0.0,0.0,0.0,0.0,0.0,0.0,0.0,0.0,0.0,0.0,0.0,0.0,0.0,0.0,0.0,0.0,0.0,0.0,0.0,0.0,0.0,0.0,0.0,0.0,0.0,0.0,0.0,0.0,0.0,0.0,0.0,0.0,0.0,0.0,0.0,0.0,0.0,0.0,0.0,0.0,0.3474,0.0,0.0,0.0,0.0,0.0,0.0,0.0,0.0,0.0,0.0,0.0,0.0,0.0,0.0,0.0,0.0,0.0,0.0,0.0,0.0,0.0,0.0,0.0,0.0,0.0,0.0,0.0,0.0,0.0,0.0,0.0,0.0,0.0,0.0,0.0,0.0,0.0,0.0,0.0,0.0,0.0,0.0,0.0,0.0,0.0,0.0,0.0,0.0,0.0,0.0,0.0,0.0,0.0,0.0,0.0,0.0,0.0,0.0,0.0,1.1518,1.2618,1.2887,1.2397,1.1139,1.0533,0.8741,0.0,0.0,0.0,0.0,0.0,0.0,0.0,0.0,0.0,0.0,0.0,0.0,0.0,0.0,0.0,0.0,0.0,0.0,0.0,0.0,0.0,0.0,0.0,0.0,0.0,0.0,0.0,0.0,0.0,0.0,0.0,0.0,0.0,0.0,0.0,0.0,0.0,0.0,0.0,0.0,0.0,0.0,0.0,0.0,0.0,0.0,0.0,0.0,0.0,0.0,0.0,0.0,0.0,0.0,0.0,0.0,0.0,0.0,0.0,0.0,0.0,0.0,0.0,0.0,0.0,0.0,0.0,0.0,0.0,0.0,0.0,0.0,0.0,0.0,0.0,0.0,0.0,0.0,0.0,0.0,0.0,0.0,0.0,0.0,0.0,0.0,0.0,0.0,0.0,0.0,0.0,0.0,0.0,0.0,0.0,0.0,0.0,0.0,0.0,0.0,0.0,0.0,0.0,0.0,0.0,0.0,0.0,1.1174,1.2348,1.2565,1.2879,1.2428,1.1178,1.1291,0.9567,0.5816,0.0,0.0,0.0,0.0,0.0,0.0,0.0,0.0,0.0,0.0,0.0,0.0,0.0,0.0,0.0,0.0,0.0,0.0,0.0,0.0,0.0,0.0,0.0,0.0,0.0,0.0,0.0,0.0,0.0,0.0,0.0,0.0,0.0,0.0,0.0,0.0,0.0,0.0,0.5237,0.5301,0.0,0.0,0.0,0.0,0.0,0.0,0.0,0.0,0.4552,0.0,0.0,0.0,0.0,0.0,0.0,0.0,0.0,0.0,0.0,0.0,0.0,0.0,0.0,0.0,0.0,0.0,0.0,0.0,0.0,0.0,0.0,0.0,0.0,0.0,0.0,0.0,0.0,0.0,0.0,0.0,0.0,0.0,0.0,0.0,0.0,0.0,0.0,0.0,0.0,0.0,0.0,0.0,0.0,0.0,0.0,0.0,0.0,0.0,0.0,0.0,0.0,0.0,0.0,0.0,0.0,0.9543,1.026,1.1338,1.287,1.3139,1.2589,1.1327,1.0732,0.8951,0.5973,0.0,0.0,0.0,0.0,0.0,0.0,0.0,0.0,0.0,0.0,0.0,0.0,0.0,0.0,0.0,0.0,0.0,0.0,0.0,0.0,0.0,0.0,0.0,0.0,0.0,0.0,0.0,0.0,0.0,0.0,0.0,0.0,0.0,0.0,0.0,0.0,0.0,0.0,0.0,0.6395,0.6401,0.0,0.0,0.0,0.0,0.0,0.0,0.0,0.0,0.5006,0.0,0.0,0.0,0.0,0.0,0.0,0.0,0.0,0.0,0.0,0.0,0.0,0.0,0.0,0.0,0.0,0.0,0.0,0.0,0.0,0.0,0.0,0.0,0.0,0.0,0.0,0.0,0.0,0.0,0.0,0.0,0.0,0.0,0.0,0.0,0.0,0.0,0.0,0.0,0.0,0.0,0.0,0.0,0.0,0.0,0.0,0.0,0.0,0.0,0.0,0.0,0.0,0.0,0.0,0.0,0.9717,1.1728,1.2849,1.2986,1.2842,1.2297,1.1327,1.0591,0.8854,0.0,0.0,0.0,0.0,0.0,0.0,0.0,0.0,0.0,0.0,0.0,0.0,0.0,0.0,0.0,0.0,0.0,0.0,0.0,0.0,0.0,0.0,0.0,0.0,0.0,0.0,0.0,0.0,0.0,0.0,0.0,0.0,0.0,0.0,0.0,0.0,0.0,0.0,0.0,0.0,0.6686,0.6872,0.6518,0.0,0.0,0.0,0.0,0.0,0.0,0.5361,0.5449,0.0,0.0,0.0,0.0,0.0,0.0,0.0,0.0,0.0,0.0,0.0,0.0,0.0,0.0,0.0,0.0,0.0,0.0,0.0,0.0,0.0,0.0,0.0,0.0,0.0,0.0,0.0,0.0,0.0,0.0,0.0,0.0,0.0,0.0,0.0,0.0,0.0,0.0,0.0,0.0,0.0,0.0,0.0,0.0,0.0,0.0,0.0,0.0,0.0,0.0,0.0,0.0,0.0,0.0,0.0,0.9942,1.3083,1.4202,1.3133,1.2597,1.2019,1.1358,1.0309,0.8555,0.0,0.0,0.0,0.0,0.0,0.0,0.0,0.0,0.0,0.0,0.0,0.0,0.0,0.0,0.0,0.0,0.0,0.0,0.0,0.0,0.0,0.0,0.0,0.0,0.0,0.0,0.0,0.0,0.0,0.0,0.0,0.0,0.0,0.0,0.0,0.0,0.0,0.0,0.0,0.0,0.0,0.7237,0.7091,0.7055,0.0,0.0,0.0,0.0,0.5504,0.5838,0.0,0.0,0.0,0.0,0.0,0.0,0.0,0.0,0.0,0.0,0.0,0.0,0.0,0.0,0.0,0.0,0.0,0.0,0.0,0.0,0.0,0.0,0.0,0.0,0.0,0.0,0.0,0.0,0.0,0.0,0.0,0.0,0.0,0.0,0.0,0.0,0.0,0.0,0.0,0.0,0.0,0.0,0.0,0.0,0.0,0.0,0.0,0.0,0.0,0.0,0.0,0.0,0.0,0.0,0.0,0.0,1.033,1.2199,1.3255,1.3407,1.2826,1.2182,1.1545,0.9307,0.7427,0.0,0.0,0.0,0.0,0.0,0.0,0.0,0.0,0.0,0.0,0.0,0.0,0.0,0.0,0.0,0.0,0.0,0.0,0.0,0.0,0.0,0.0,0.0,0.0,0.0,0.0,0.0,0.0,0.0,0.0,0.0,0.0,0.0,0.0,0.0,0.0,0.0,0.0,0.0,0.0,0.0,0.7842,0.7405,0.7395,0.7251,0.0,0.0,0.7079,0.6944,0.7168,0.0,0.0,0.0,0.0,0.0,0.0,0.0,0.0,0.0,0.0,0.0,0.0,0.0,0.0,0.0,0.0,0.0,0.0,0.0,0.0,0.0,0.0,0.0,0.0,0.0,0.0,0.0,0.0,0.0,0.0,0.0,0.0,0.0,0.0,0.0,0.0,0.0,0.0,0.0,0.0,0.0,0.0,0.0,0.0,0.0,0.0,0.0,0.0,0.0,0.0,0.0,0.0,0.0,0.0,0.0,0.9562,1.0356,1.2469,1.3543,1.3467,1.2497,1.1856,1.1591,0.9059,0.7155,0.0,0.0,0.0,0.0,0.0,0.0,0.0,0.0,0.0,0.0,0.0,0.0,0.0,0.0,0.0,0.0,0.0,0.0,0.0,0.0,0.0,0.0,0.0,0.0,0.0,0.0,0.0,0.0,0.0,0.0,0.0,0.0,0.0,0.0,0.0,0.0,0.0,0.0,0.0,0.0,0.0,0.0,0.7538,0.7661,0.0,0.0,0.0,0.7499,0.6651,0.0,0.0,0.0,0.0,0.0,0.0,0.0,0.0,0.0,0.0,0.0,0.0,0.0,0.0,0.0,0.0,0.0,0.0,0.0,0.0,0.0,0.0,0.0,0.0,0.0,0.0,0.0,0.0,0.0,0.0,0.0,0.0,0.0,0.0,0.0,0.0,0.0,0.0,0.0,0.0,0.0,0.0,0.0,0.0,0.0,0.0,0.0,0.0,0.0,0.0,0.0,0.0,0.0,0.0,0.0,0.0,0.0,1.0308,1.2786,1.3918,1.3519,1.2328,1.1578,1.1367,0.907,0.0,0.0,0.0,0.0,0.0,0.0,0.0,0.0,0.0,0.0,0.0,0.0,0.0,0.0,0.0,0.0,0.0,0.0,0.0,0.0,0.0,0.0,0.0,0.0,0.0,0.0,0.0,0.5505,0.0,0.0,0.0,0.0,0.0,0.0,0.0,0.0,0.0,0.0,0.0,0.0,0.0,0.0,0.7911,0.7816,0.8026,0.8037,0.0,0.0,0.769,0.669,0.7231,0.7542,0.0,0.0,0.0,0.0,0.0,0.0,0.0,0.0,0.0,0.0,0.0,0.0,0.0,0.0,0.0,0.0,0.0,0.0,0.0,0.0,0.0,0.0,0.0,0.0,0.0,0.0,0.0,0.0,0.0,0.0,0.0,0.0,0.0,0.0,0.0,0.0,0.0,0.0,0.0,0.0,0.0,0.0,0.0,0.0,0.0,0.0,0.0,0.0,0.0,0.0,0.0,0.0,0.0,0.0,0.0,1.0464,1.2839,1.3963,1.3649,1.2444,1.1506,1.0941,0.9332,0.7394,0.0,0.0,0.0,0.0,0.0,0.0,0.0,0.0,0.0,0.0,0.0,0.0,0.0,0.0,0.0,0.0,0.0,0.0,0.0,0.0,0.0,0.0,0.0,0.0,0.0,0.0,0.0,0.0,0.0,0.0,0.0,0.0,0.0,0.0,0.0,0.0,0.0,0.0,0.0,0.0,0.0,0.8973,0.8421,0.8593,0.8596,0.0,0.0,0.7495,0.7891,0.8108,0.8135,0.7764,0.0,0.0,0.0,0.0,0.0,0.0,0.0,0.0,0.0,0.0,0.0,0.0,0.0,0.0,0.0,0.0,0.0,0.0,0.0,0.0,0.0,0.0,0.0,0.0,0.0,0.0,0.0,0.0,0.0,0.0,0.0,0.0,0.0,0.0,0.0,0.0,0.0,0.0,0.0,0.0,0.0,0.0,0.0,0.0,0.0,0.0,0.0,0.0,0.0,0.0,0.0,0.0,0.0,1.0221,0.9885,1.2411,1.3492,1.2932,1.1864,1.1056,1.061,0.8921,0.7133,0.0,0.0,0.0,0.0,0.0,0.0,0.0,0.0,0.0,0.0,0.0,0.0,0.0,0.0,0.0,0.0,0.0,0.0,0.0,0.0,0.0,0.0,0.0,0.0,0.0,0.0,0.0,0.0,0.7562,0.7729,0.7712,0.0,0.0,0.0,0.0,0.0,0.0,0.0,0.0,0.0,0.0,0.9288,0.9569,0.9327,0.0,0.0,0.8339,0.8027,0.8344,0.8354,0.8265,0.8238,0.8417,0.0,0.0,0.0,0.0,0.0,0.0,0.0,0.0,0.0,0.0,0.0,0.0,0.0,0.0,0.0,0.0,0.0,0.0,0.0,0.0,0.0,0.0,0.0,0.0,0.0,0.0,0.0,0.0,0.0,0.0,0.0,0.0,0.0,0.0,0.0,0.0,0.0,0.0,0.0,0.0,0.0,0.0,0.0,0.0,0.0,0.0,0.0,0.0,0.0,0.0,0.0,0.0,1.0222,0.9574,1.2163,1.3194,1.2593,1.1616,1.0793,1.0201,0.8957,0.7416,0.0,0.0,0.0,0.0,0.0,0.0,0.0,0.0,0.0,0.0,0.0,0.0,0.0,0.0,0.0,0.0,0.0,0.0,0.0,0.0,0.0,0.0,0.0,0.0,0.0,0.0,0.0,0.0,0.7819,0.8004,0.7821,0.0,0.0,0.0,0.0,0.0,0.0,0.0,0.0,0.0,0.0,1.0117,1.0416,1.0044,0.9698,0.9609,0.8962,0.8583,0.8877,0.8628,0.8497,0.8682,0.0,0.0,0.0,0.0,0.0,0.0,0.0,0.0,0.0,0.0,0.0,0.0,0.0,0.0,0.0,0.0,0.0,0.0,0.0,0.0,0.0,0.0,0.0,0.0,0.0,0.0,0.0,0.0,0.0,0.0,0.0126,0.0,0.0,0.0,0.0,0.0,0.0,0.0,0.0,0.0,0.0,0.0,0.0,0.0,0.0,0.0,0.0,0.0,0.0,0.0,0.0,0.0,0.0,1.0422,0.9747,1.2194,1.3243,1.2759,1.1816,1.0786,0.9756,0.968,0.8486,0.6027,0.0,0.0,0.0,0.0,0.0,0.0,0.0,0.0,0.0,0.0,0.0,0.0,0.0,0.0,0.0,0.0,0.0,0.0,0.0,0.0,0.0,0.0,0.0,0.0,0.0,0.0,0.6203,0.7103,0.7828,0.0,0.0,0.0,0.0,0.0,0.0,0.0,0.0,0.0,0.0,1.1313,1.1698,1.0767,1.0721,1.0576,1.01,0.9377,0.9052,0.9489,0.9051,0.8785,0.0,0.0,0.0,0.0,0.0,0.0,0.0,0.0,0.0,0.0,0.0,0.0,0.0,0.0,0.0,0.0,0.0,0.0,0.0,0.0,0.0,0.0,0.0,0.0,0.0,0.0,0.0,-0.0719,-0.0444,0.0,0.0,0.0,0.0,0.0,0.0,0.0,0.0,0.0,0.0,0.0,1.0197,1.0552,0.0,0.0,0.0,0.0,0.0,0.0,0.0,0.0,0.0,0.0,0.0,0.0,1.0472,0.9541,1.2059,1.2952,1.1947,1.1168,1.0314,0.9392,0.9365,0.8205,0.5756,0.0,0.0,0.0,0.0,0.0,0.0,0.0,0.0,0.0,0.0,0.0,0.0,0.0,0.0,0.0,0.0,0.0,0.0,0.0,0.0,0.0,0.0,0.0,0.0,0.0,0.721,0.0,0.0,0.0,0.0,0.0,0.0,0.0,0.0,0.0,0.0,0.0,1.1182,1.1479,1.1844,1.218,1.2372,1.1638,1.1122,0.0,0.0,0.0,0.0,0.0,0.0,0.0,0.0,0.0,0.0,0.0,0.0,0.0,0.0,0.9736,0.9482,0.9128,0.8867,0.8709,0.0,0.0,0.0,0.0,0.0,0.0,0.0,0.0,0.0,0.0,0.0,0.0,0.0,0.0,0.2926,0.0,0.2698,0.0,0.0,0.0,0.0,0.0,0.0,0.0,0.0,1.1953,1.323,1.3067,1.3246,1.3644,0.0,1.3009,1.0864,0.0,0.0,0.0,0.0,0.0,0.0,0.0,0.0,1.0703,0.9444,1.1991,1.2768,1.1547,1.0846,1.0076,0.923,0.8896,0.7998,0.6382,0.5089,0.4106,0.0,0.0,0.0,0.0,0.0,0.0,0.0,0.0,0.0,0.0,0.0,0.0,0.0,0.0,0.0,0.0,0.0,0.0,0.0,0.0,0.0,0.0,0.0,0.7936,0.0,0.0,0.0,0.0,0.0,0.0,0.0,0.0,0.0,1.0607,1.1774,1.272,1.2836,1.2814,1.2881,1.304,0.0,0.0,0.0,0.0,0.0,0.0,0.0,0.9011,0.889,0.9326,0.977,1.0005,1.0806,1.1513,1.16,0.0,0.0,1.0351,0.9931,0.9614,0.9465,0.9438,0.9451,0.9363,0.9482,0.9566,0.0,0.0,0.0,0.0,0.0,0.0,0.0,0.0,0.8541,0.8564,0.0,0.6156,0.0,0.0,0.0,0.0,0.0,0.0,0.0,0.0,1.6285,1.753,1.5611,1.5843,1.6081,1.6122,1.463,1.3608,1.302,1.236,0.0,0.0,0.0,0.0,0.0,0.0,1.1115,0.9678,1.2079,1.2804,1.1584,1.0873,1.0128,0.923,0.8401,0.7901,0.7842,0.6504,0.5752,0.5702,0.4005,0.0,0.0,0.0,0.0,0.0,0.0,0.0,0.0,0.0,0.0,0.0,0.0,0.0,0.0,0.0,0.0,0.0,0.0,0.0,0.0,0.8176,0.0,0.0,0.0,0.0,0.0,0.0,0.0,0.0,0.0,0.0,1.1885,1.3333,1.4379,1.4099,0.0,0.0,0.0,0.0,1.1085,1.0648,0.9775,0.9264,0.9478,0.9834,1.0031,1.0073,0.0,0.0,1.1123,1.1993,1.2282,1.1323,1.1513,1.1751,1.1364,1.08,1.0335,1.0077,0.9955,0.9866,0.9834,0.9803,0.9699,1.1061,0.0,0.0,0.0,0.0,0.8012,0.913,1.0937,1.0797,1.0601,1.0341,0.9622,0.0,0.0,0.0,0.0,0.0,0.0,1.2624,1.4236,1.5716,1.6944,1.8044,1.814,1.8387,1.8704,1.7601,1.714,1.7288,1.677,1.4267,0.9907,0.0,0.0,0.0,0.0,1.1535,1.1616,1.2722,1.295,1.2167,1.1418,1.0549,0.9517,0.8606,0.8062,0.7901,0.7503,0.6923,0.6239,0.5602,0.0,0.0,0.0,0.0,0.0,0.0,0.0,0.0,0.0,0.0,0.0,0.0,0.0,0.0,0.0,0.0,0.0,0.0,0.0,0.7869,0.9232,0.9691,0.0,0.0,0.0,0.0,0.0,0.0,0.0,0.0,0.0,1.3783,1.3584,1.3238,0.0,0.0,1.2458,1.2098,1.1971,1.1804,1.1476,0.0,0.0,0.0,0.9676,0.9456,0.9618,1.0137,1.0541,1.0683,1.1176,1.1534,1.1375,1.1495,1.1588,1.1437,1.1149,1.09,1.0778,1.0736,1.073,1.0707,1.0816,1.0851,1.5957,1.2867,1.1002,1.0744,1.159,1.1445,1.2636,1.4703,1.4375,1.4163,1.3947,1.2724,1.1902,1.1307,1.1142,0.0,0.0,0.0,1.4565,1.6593,1.6603,1.7286,1.8494,1.8537,1.8808,1.9202,1.8759,1.8727,1.9098,1.8253,1.6182,1.2916,0.0,0.0,1.0445,1.1896,1.2449,1.211,1.2879,1.3013,1.2408,1.1287,1.0285,0.938,0.8606,0.8141,0.8008,0.7922,0.7622,0.7015,0.6659,0.594,0.0,0.0,0.0,0.0,0.0,0.0,0.0,0.0,0.0,0.0,0.0,0.7036,0.6735,0.0,0.0,0.0,0.8502,0.8658,0.9355,1.0095,0.0,0.0,0.0,0.0,0.0,0.0,0.0,1.1757,1.3561,1.4717,1.443,1.3842,1.3556,1.3905,1.3427,1.2893,1.2554,0.0,1.2361,1.1894,1.1067,1.0445,1.0326,0.9915,0.9769,1.0364,1.0701,1.09,1.09,1.1191,1.1407,1.1351,1.1455,1.1459,1.1345,1.1182,1.1117,1.1117,1.1117,1.1117,1.1117,1.125,1.131,1.9423,1.9121,1.4558,1.3341,1.4363,1.4374,1.6123,1.8914,1.8487,1.8377,1.8317,1.5528,1.4627,1.5112,1.3348,0.0,1.5528,1.5953,1.6938,1.8403,1.8403,1.8154,1.7709,1.7719,1.7947,1.8362,1.8553,1.8762,1.892,1.7734,1.6942,1.6604,1.6417,1.4786,1.1965,1.3434,1.3444,1.1666,1.2625,1.2941,1.2412,1.0759,0.9643,0.9133,0.8559,0.8259,0.8226,0.8084,0.7988,0.7934,0.736,0.6896,0.659,0.0,0.0,0.0,0.0,0.0,0.0,0.0,0.0,0.0,0.0,0.0,0.0,0.0,0.0,0.0,1.0598,0.0,1.1732,1.1063,0.0,0.0,0.0,1.2061,1.3296,1.4112,1.4575,1.4638,0.0,0.0,1.4351,0.0,1.4849,1.6636,1.5449,1.4201,1.3592,1.3189,1.2803,1.2089,1.105,1.0374,1.0588,1.0476,1.0653,1.1498,1.1854,1.1685,1.1453,1.1579,1.1567,1.122,1.1285,1.1387,1.1116,1.1123,1.1117,1.1117,1.1117,1.1117,1.1117,1.1129,1.1135,1.9477,1.8972,1.7942,1.7957,1.8585,1.8276,1.8889,1.9966,1.9442,1.9121,1.8953,1.7881,1.7594,1.785,1.7391,1.7543,1.8177,1.8278,1.8354,1.8414,1.8403,1.8143,1.7719,1.7709,1.7761,1.7854,1.7926,1.8041,1.8166,1.8098,1.7314,1.5928,1.5847,1.4751,1.2594,1.218,1.2188,1.257,1.2171,1.2209,1.2581,1.1368,1.0446,0.9917,0.9193,0.8699,0.8533,0.8676,0.8661,0.8512,0.8162,0.7621,0.6858,0.59,0.0,0.0,0.0,0.0,0.0,0.0,0.0,0.0,0.0,0.7748,0.7261,0.0,0.87,0.0,1.1778,1.3272,1.3498,1.3657,0.0,0.0,1.3368,1.3485,1.4344,1.5366,1.5727,1.4999,1.5916,1.6356,1.5638,1.5332,1.5461,1.6285,1.4513,1.2957,1.2664,1.3096,1.3238,1.266,1.2535,1.2377,1.1664,1.119,1.1003,1.1262,1.131,1.1242,1.122,1.1262,1.1256,1.1135,1.116,1.1178,1.1123,1.1117,1.1117,1.1117,1.1117,1.1117,1.1117,1.1111,1.1111,1.9535,1.9409,1.9142,1.8375,1.7385,1.8567,1.9294,1.9661,1.915,1.899,1.9004,1.8751,1.8684,1.8808,1.8908,1.8975,1.9088,1.888,1.8516,1.8081,1.7874,1.7554,1.714,1.7129,1.7273,1.751,1.754,1.7716,1.8027,1.8218,1.7677,1.6453,1.6441,1.5336,1.3209,1.1828,1.1286,1.1466,1.155,1.1933,1.2547,1.1546,1.0542,0.9658,0.8666,0.7898,0.7382,0.7307,0.7254,0.7275,0.7076,0.6814,0.6502,0.5821,0.5361,0.0,0.0,0.0,0.0,0.0,0.0,0.0,0.0,0.0,0.0,0.0,1.0137,0.0,1.3241,1.4506,1.4269,1.4473,1.4868,1.5303,1.517,1.5472,1.6588,1.7282,1.7318,1.6444,1.7005,1.7093,1.6069,1.5753,1.5658,1.5808,1.4613,1.3778,1.386,1.416,1.4183,1.3873,1.3592,1.3045,1.1976,1.1409,1.1117,1.1117,1.1117,1.1117,1.1117,1.1117,1.1117,1.1117,1.1117,1.1117,1.1117,1.1117,1.1117,1.1099,1.1015,1.0942,1.09,1.09,1.0912,1.9626,1.9956,1.9216,1.7207,1.4681,1.7418,1.815,1.7475,1.7216,1.7552,1.8231,1.8633,1.8818,1.8841,1.9042,1.9098,1.9077,1.8694,1.8268,1.7771,1.7336,1.6891,1.6467,1.6496,1.678,1.7292,1.7396,1.7698,1.8222,1.8194,1.7874,1.7224,1.7099,1.5814,1.3415,1.1813,1.0605,0.977,1.0985,1.1852,1.2227,1.1168,0.9945,0.8619,0.7562,0.6638,0.5857,0.5479,0.5425,0.5673,0.5572,0.5776,0.6398,0.5779,0.5727,0.0,0.5783,0.0,0.0,0.0,0.0,0.0,0.0,0.0,0.0,1.1678,1.2069,1.3511,1.4808,1.5408,1.5055,1.4995,1.56,1.6979,1.7078,1.7578,1.8895,1.9142,1.8831,1.8094,1.8104,1.7653,1.6245,1.6035,1.5974,1.5648,1.5492,1.5451,1.579,1.5492,1.5209,1.5269,1.428,1.3204,1.2069,1.1458,1.1156,1.1106,1.1063,1.1075,1.1105,1.1117,1.1117,1.1117,1.1117,1.1117,1.1117,1.1111,1.113,1.1088,1.0955,1.0821,1.0773,1.0695,1.0592,1.9975,1.9629,1.9603,1.9043,1.8155,1.8569,1.5617,1.0614,1.0714,1.2412,1.5304,1.7744,1.8875,1.9042,1.9075,1.9098,1.9098,1.9114,1.8833,1.8279,1.7957,1.7508,1.6933,1.707,1.72,1.7324,1.7791,1.8176,1.8427,1.8207,1.7321,1.5756,1.5337,1.4116,1.2208,0.0,0.0,0.0,1.1206,1.1628,1.1025,0.9306,0.7925,0.6914,0.6655,0.0,0.5989,0.6182,0.6435,0.6703,0.66,0.0,0.0,0.0,0.0,0.0,0.0,0.0,0.0,0.0,0.0,0.0,1.0757,1.0889,1.1842,1.2932,1.4228,1.573,1.6222,1.6959,1.8119,1.8222,1.8306,1.8644,1.8641,1.8779,1.9098,1.9175,1.8931,1.8128,1.8744,1.8643,1.712,1.7413,1.7491,1.6749,1.6638,1.6621,1.6629,1.6062,1.5727,1.5623,1.4729,1.3758,1.2734,1.1955,1.1372,1.1162,1.0918,1.0888,1.1039,1.1093,1.1099,1.1093,1.1117,1.1099,1.1099,1.1223,1.1236,1.1046,1.1103,1.115,1.0964,1.065,1.0422,1.9724,0.0,1.952,1.8254,0.0,1.6212,1.323,0.8666,1.2128,1.4647,1.648,1.8201,1.9008,1.9034,1.7885,1.7406,1.7441,1.6255,1.6146,1.6893,1.6638,1.6909,1.7568,1.7699,1.779,1.7901,1.8216,1.8425,1.8599,1.8466,1.7657,1.6266,1.6207,1.5352,1.3768,1.3099,1.2194,1.1059,1.1721,1.2253,1.2497,1.1155,0.998,0.9125,0.0,0.0,0.0,0.0,0.0,0.0,0.0,0.0,0.0,0.0,0.0,1.0421,1.0186,1.0274,1.0825,1.0796,1.1346,1.2718,1.3415,1.3838,1.3957,1.5673,1.7036,1.7817,1.7942,1.8298,1.9079,1.9274,1.9308,1.9208,1.9308,1.9341,1.9374,1.9407,1.9121,1.8442,1.871,1.8499,1.7026,1.7182,1.7167,1.6538,1.6349,1.6328,1.6318,1.6162,1.593,1.5549,1.4638,1.3846,1.3282,1.2348,1.1456,1.0929,1.0681,1.0693,1.0731,1.0791,1.0869,1.0869,1.0905,1.0971,1.0971,1.1042,1.1035,1.0933,1.0871,1.0893,1.0811,1.0595,1.0356,1.9326,1.9637,1.9253,1.7321,1.4497,1.4438,1.2714,1.0334,0.0,0.0,0.0,1.8713,1.9098,1.8969,1.7093,1.6296,1.6303,1.431,1.4342,1.6044,1.5859,1.6638,1.8296,1.8369,1.8482,1.8637,1.8754,1.8837,1.8938,1.8857,1.8342,1.7516,1.7676,1.7116,1.5864,1.5404,1.4381,1.2785,1.2364,1.2739,1.3868,1.2964,1.2045,1.1201,1.0409,0.9748,0.9309,0.9101,0.9115,0.9404,0.936,0.9626,1.0292,1.024,1.0545,1.1301,1.1223,1.1584,1.2546,1.2488,1.3076,1.4646,1.6136,1.6869,1.6602,1.8194,1.9257,1.9341,1.9341,1.9341,1.9341,1.9568,1.9634,1.9395,1.958,1.9711,1.9626,1.9648,1.933,1.8677,1.871,1.8307,1.7113,1.7019,1.6691,1.6107,1.5986,1.5764,1.5742,1.5972,1.5891,1.5286,1.4581,1.3963,1.3574,1.2884,1.1753,1.0997,1.0791,1.0713,1.0717,1.0667,1.0638,1.0688,1.0742,1.0789,1.0811,1.0842,1.082,1.081,1.0619,1.054,1.0627,1.0555,1.0392,1.915,1.9191,1.9129,1.8793,1.8282,1.7947,1.7461,1.6735,1.5187,1.4715,1.531,1.7939,1.9098,1.9088,1.8744,1.8616,1.8639,1.8585,1.8608,0.0,1.8649,1.8689,1.8796,1.8985,1.9048,1.9154,1.9608,1.9878,1.9868,1.9436,1.8913,1.8308,1.7919,1.7216,1.6263,1.5808,1.5314,1.4664,1.2923,1.1948,1.175,1.0494,0.9537,0.8925,0.9104,0.9005,0.8798,0.8943,0.9109,0.948,0.9593,1.035,1.1924,1.2033,1.2589,1.3847,1.3927,1.4037,1.4328,1.4319,1.505,1.6725,1.8062,1.8712,1.8533,1.8754,1.9136,1.9519,1.9572,1.9539,1.9604,1.9922,2.0009,1.9634,1.9933,2.0062,1.9702,1.9736,1.9518,1.871,1.933,1.933,1.8104,1.8012,1.7808,1.7073,1.6489,1.609,1.5757,1.5739,1.5592,1.5251,1.5006,1.4568,1.3889,1.3395,1.2735,1.2021,1.1502,1.1315,1.1594,1.1111,1.0735,1.0751,1.0748,1.0788,1.0795,1.0942,1.0916,1.0769,1.0758,1.0804,1.0669,1.0584,1.0526,1.9649,1.9682,2.0031,1.9879,1.932,1.8674,1.8674,1.8957,1.7264,1.663,1.7021,1.8478,1.9098,1.898,1.777,1.7272,1.7327,1.6405,1.6612,1.7704,1.7882,1.8533,1.9512,1.9651,1.9716,1.9727,1.9966,2.0118,2.0085,1.9835,1.932,1.8499,1.7672,1.6946,1.6331,1.6129,1.5693,1.5111,1.395,1.3249,1.3038,1.2421,1.2017,1.171,1.1877,1.2024,1.2163,1.2224,1.2351,1.2513,1.2603,1.3024,1.3791,1.3663,1.3912,1.476,1.4855,1.4922,1.4971,1.5684,1.6437,1.7275,1.8315,1.8991,1.9177,1.9329,1.9533,1.9748,1.9769,1.9769,1.9769,2.0006,2.0082,1.9791,2.005,2.0082,1.9921,1.9933,1.9835,1.9495,1.9769,1.9736,1.8834,1.8778,1.853,1.7696,1.7064,1.6337,1.5551,1.5472,1.5438,1.5151,1.4919,1.4629,1.4175,1.37,1.328,1.2885,1.1998,1.1518,1.1595,1.1021,1.06,1.0527,1.0593,1.0686,1.0699,1.0752,1.0758,1.0724,1.069,1.0713,1.062,1.0586,1.0586,2.0269,2.0334,2.0848,2.0452,1.9507,1.8854,1.8965,1.9419,1.8965,1.8841,1.8875,1.9042,1.9098,1.8916,1.7197,1.6478,1.6415,1.5104,1.5417,1.7026,1.7486,1.85,1.9987,2.0118,2.0118,2.0118,2.0118,2.0118,2.0118,2.0118,1.9561,1.8499,1.7535,1.6846,1.6459,1.6358,1.6001,1.5395,1.4974,1.4689,1.4494,1.4485,1.4485,1.4485,1.4476,1.4662,1.4946,1.4964,1.4964,1.4964,1.4964,1.4964,1.4964,1.468,1.4683,1.5074,1.5152,1.5362,1.5723,1.6863,1.7652,1.7798,1.8432,1.9058,1.9507,1.9781,1.9944,1.9933,1.9933,1.9944,1.9998,2.0172,2.0194,2.0009,2.0151,2.0216,2.0107,2.0118,2.0118,2.0118,2.0118,1.99,1.9405,1.9117,1.8596,1.7731,1.7207,1.6472,1.5482,1.5365,1.5411,1.4998,1.4668,1.4522,1.4485,1.4109,1.3769,1.3692,1.2544,1.1863,1.1565,1.0979,1.0441,1.041,1.0493,1.0576,1.0606,1.0613,1.062,1.0588,1.0626,1.0633,1.0707,1.0713,1.066,2.0828,2.0839,2.0935,2.0302,1.9464,1.9462,1.9208,1.8774,1.8741,1.8908,1.9108,1.9108,1.9098,1.9098,1.8808,1.867,1.8746,1.8925,1.9002,1.9207,1.9662,1.9922,2.0107,2.0118,2.0118,2.0118,2.0118,2.0118,2.0118,2.0085,1.9572,1.8543,1.7901,1.7354,1.6876,1.6505,1.6251,1.6202,1.579,1.5239,1.4531,1.4485,1.4485,1.4485,1.4524,1.4494,1.4634,1.457,1.454,1.457,1.4607,1.4588,1.4588,1.4543,1.4742,1.5184,1.5244,1.5752,1.6992,1.8031,1.8746,1.9171,1.9236,1.9518,1.9944,2.0053,2.0074,2.0085,2.0085,2.0074,2.0107,2.05,2.0544,2.014,2.0478,2.0631,2.0205,2.0118,2.0118,2.0118,2.0118,1.99,1.9396,1.8954,1.8196,1.7239,1.723,1.6778,1.5779,1.5785,1.5651,1.4918,1.4533,1.4543,1.4494,1.4485,1.4327,1.4267,1.326,1.2458,1.2058,1.1351,1.0555,1.053,1.0561,1.0586,1.0586,1.0586,1.0586,1.06,1.062,1.0687,1.0868,1.089,1.0784,2.1313,2.1345,2.1788,2.1714,2.125,2.0516,2.0312,2.0473,1.9835,1.9616,1.9616,1.9297,1.9098,1.9098,1.9098,1.9142,1.9241,1.9506,1.9671,1.9813,2.0009,2.0118,2.0118,2.0118,2.0118,2.0118,2.0118,2.0118,2.0042,1.9791,1.9408,1.89,1.8138,1.7604,1.7354,1.6915,1.656,1.6312,1.59,1.5556,1.5249,1.5203,1.5203,1.5184,1.4983,1.4983,1.5157,1.4992,1.4964,1.5184,1.5203,1.5358,1.5659,1.569,1.5906,1.6416,1.6709,1.7212,1.8053,1.8759,1.92,1.9419,1.9649,1.9922,2.0085,2.0118,2.0118,2.0118,2.0118,2.0118,2.014,2.0292,2.0314,2.0172,2.0303,2.0325,2.0162,2.0118,2.0118,2.0118,2.0118,1.9944,1.9591,1.937,1.8834,1.8094,1.8091,1.7725,1.6552,1.6518,1.6201,1.5404,1.5149,1.4925,1.4639,1.4485,1.4515,1.4288,1.3381,1.2543,1.2358,1.1445,1.0593,1.0586,1.0586,1.0586,1.0586,1.0586,1.0586,1.0626,1.0755,1.0804,1.0583,1.0538,1.0334,2.1827,2.1889,2.2371,2.2463,2.2192,2.127,2.1144,2.1428,2.0709,2.0258,2.0042,1.9584,1.9264,1.9098,1.9098,1.9185,1.9318,1.9506,1.9835,2.0129,2.014,2.0205,2.0367,2.0172,2.0118,2.0118,2.0118,2.0118,2.0042,1.9726,1.9375,1.9034,1.8432,1.7901,1.7467,1.721,1.6899,1.6486,1.6175,1.6019,1.6019,1.6019,1.5918,1.5689,1.5414,1.5404,1.5661,1.5423,1.5395,1.567,1.5849,1.6096,1.6459,1.6617,1.6951,1.7502,1.8164,1.8628,1.8895,1.9436,1.9668,1.9637,1.9933,2.0118,2.0118,2.0118,2.0118,2.0107,2.0172,2.0237,2.0118,2.0118,2.0118,2.0118,2.0118,2.0118,2.0118,2.0118,2.0118,2.0118,2.0118,1.9943,1.967,1.9823,1.9726,1.8771,1.8807,1.865,1.7389,1.7082,1.689,1.5939,1.5841,1.5569,1.4842,1.4654,1.4625,1.4407,1.3644,1.2931,1.2626,1.16,1.0713,1.0776,1.0649,1.0586,1.0586,1.0586,1.066,1.074,1.0836,1.0841,1.0537,1.0376,1.0043,2.2359,2.2316,2.2247,2.1862,2.1219,2.1471,2.1227,2.091,2.0965,2.0709,2.0226,2.0107,1.9704,1.9198,1.9264,1.9208,1.9341,1.9572,2.0085,2.0711,2.0367,2.0453,2.0965,2.0432,2.0118,2.0118,2.0118,2.0118,2.0085,2.0042,1.9528,1.8633,1.8944,1.8442,1.7373,1.7476,1.7398,1.6964,1.6787,1.6798,1.6851,1.6842,1.6422,1.5868,1.568,1.5689,1.5758,1.5721,1.5712,1.5739,1.6239,1.6529,1.6592,1.7053,1.7574,1.8049,1.9113,1.9645,1.9524,2.0088,2.0408,2.0182,2.0204,2.0172,2.0335,2.0302,2.0281,2.0172,2.0518,2.0518,2.0237,2.0172,2.0151,2.0151,2.0107,2.0118,2.0118,2.014,2.0118,2.0107,2.014,1.9974,1.9555,2.032,1.995,1.8945,1.856,1.8275,1.7533,1.7437,1.7168,1.6611,1.6446,1.6413,1.5283,1.4985,1.4987,1.4725,1.4201,1.3636,1.2909,1.2212,1.1476,1.0895,1.0744,1.0649,1.0618,1.066,1.078,1.0868,1.089,1.0821,1.0438,1.0575,1.0117,2.2278,2.2278,2.2216,2.208,2.1963,2.2192,2.2211,2.2075,2.1834,2.1616,2.1322,2.0921,2.0688,2.056,2.0452,2.0291,2.0161,2.0182,2.0505,2.0976,2.0828,2.0635,2.0421,2.0205,2.0118,2.0118,2.0118,2.0118,2.0118,2.0118,1.9911,1.9561,1.9353,1.8967,1.8432,1.7935,1.7638,1.756,1.7045,1.6881,1.7242,1.7035,1.6857,1.6839,1.6354,1.6368,1.6944,1.6741,1.6877,1.7457,1.7698,1.7928,1.832,1.8794,1.9169,1.9372,1.998,2.0303,2.0241,2.0662,2.1094,2.123,2.1262,2.1356,2.1585,2.1439,2.1262,2.1262,2.1325,2.123,2.086,2.0582,2.0421,2.0421,2.0421,2.0346,2.0205,2.0259,2.0421,2.0421,2.041,2.0282,2.0109,2.0101,1.9739,1.8778,1.8572,1.829,1.7901,1.7809,1.7639,1.717,1.7073,1.686,1.5914,1.5489,1.5281,1.4887,1.444,1.4034,1.3425,1.2535,1.1772,1.124,1.0996,1.0735,1.073,1.0808,1.0922,1.1076,1.112,1.0693,1.0265,1.0049,0.9367,2.269,2.2702,2.2702,2.2657,2.2625,2.2781,2.2837,2.2812,2.2519,2.2279,2.2051,2.169,2.1482,2.142,2.1325,2.1333,2.1279,2.1057,2.1239,2.169,2.1522,2.1175,2.0784,2.055,2.0302,2.0151,2.0118,2.0151,2.0237,2.014,2.0074,1.9966,1.9693,1.9452,1.9133,1.861,1.8452,1.8315,1.7662,1.7446,1.7726,1.734,1.722,1.741,1.7177,1.7114,1.756,1.7528,1.7733,1.82,1.8566,1.9011,1.9518,1.99,2.0118,2.0151,2.0518,2.0732,2.0667,2.1051,2.1463,2.1639,2.1815,2.2063,2.2329,2.2206,2.2094,2.197,2.2002,2.1858,2.1431,2.1115,2.0924,2.0862,2.0931,2.0857,2.053,2.0813,2.1,2.1078,2.1355,2.1263,2.0868,2.0522,1.9952,1.9084,1.8773,1.8467,1.8115,1.7998,1.7939,1.7656,1.7555,1.7282,1.6658,1.6249,1.5675,1.5249,1.4922,1.449,1.3765,1.287,1.2143,1.1639,1.1259,1.098,1.0885,1.1002,1.1149,1.1314,1.1032,1.0593,0.9998,0.9314,0.8685,2.3758,2.3722,2.3794,2.3465,2.3099,2.3174,2.3032,2.285,2.2842,2.261,2.2267,2.2298,2.2094,2.1639,2.1753,2.207,2.2518,2.2039,2.2132,2.2816,2.2286,2.1959,2.1803,2.1155,2.0592,2.0107,2.0118,2.027,2.0485,2.0237,2.0009,1.9889,2.0031,1.9791,1.9077,1.9464,1.9628,1.9366,1.8795,1.8469,1.8432,1.7949,1.7696,1.7691,1.8176,1.8166,1.7407,1.8085,1.8325,1.8061,1.8811,1.9551,1.9944,2.0085,2.0118,2.0237,2.0775,2.0935,2.0796,2.1325,2.162,2.1651,2.1765,2.2218,2.2421,2.2561,2.2598,2.2426,2.2365,2.2273,2.1949,2.1828,2.1651,2.1311,2.1558,2.1537,2.1413,2.1606,2.1914,2.1981,2.241,2.2728,2.2161,2.1401,2.0589,1.9544,1.8884,1.8403,1.8115,1.8066,1.8047,1.7988,1.7959,1.7754,1.7383,1.695,1.6258,1.5653,1.5371,1.4962,1.4034,1.3152,1.2451,1.1903,1.1372,1.1069,1.1168,1.1249,1.1206,1.1277,1.0867,1.0421,0.9638,0.8927,0.8356,2.3806,2.3806,2.3893,2.394,2.3863,2.3636,2.3554,2.3548,2.3248,2.2927,2.2841,2.2975,2.3005,2.2944,2.2975,2.3203,2.3632,2.3348,2.3173,2.2997,2.2421,2.1896,2.1365,2.072,2.0302,2.014,2.0118,2.0151,2.0237,2.0151,2.0042,2.0074,2.0291,2.0313,2.0107,2.0117,2.016,2.0193,1.9705,1.9222,1.8944,1.9144,1.9044,1.8687,1.942,1.9541,1.8734,1.9144,1.9342,1.9287,1.9671,1.9944,2.0085,2.0118,2.0205,2.0421,2.0646,2.1019,2.14,2.1815,2.2304,2.2671,2.316,2.3623,2.3842,2.3783,2.385,2.3927,2.3641,2.3165,2.3127,2.3081,2.2754,2.2139,2.19,2.2001,2.2219,2.2306,2.2463,2.2704,2.266,2.2171,2.1486,2.0962,2.0195,1.9002,1.8449,1.813,1.8086,1.8213,1.8247,1.8096,1.8174,1.8091,1.7637,1.7158,1.6611,1.6025,1.5703,1.5291,1.4381,1.3557,1.2838,1.2115,1.1567,1.1348,1.1452,1.1517,1.1517,1.1188,1.0834,1.0116,0.9276,0.8589,0.8059,2.4406,2.4486,2.4541,2.4588,2.457,2.4299,2.4226,2.4148,2.3579,2.3348,2.3427,2.3389,2.3492,2.3599,2.3688,2.3848,2.4083,2.4008,2.3658,2.319,2.301,2.2359,2.1428,2.0506,2.0118,2.0118,2.0118,2.0172,2.027,2.0183,2.0151,2.0291,2.0388,2.0539,2.0764,2.072,2.0794,2.1028,2.059,2.0107,1.989,1.9998,1.9857,1.9595,2.0312,2.0398,1.9846,2.0247,2.0269,1.9966,1.9966,2.0118,2.0118,2.0118,2.0172,2.0388,2.0582,2.0828,2.1273,2.1608,2.2261,2.2944,2.356,2.3959,2.4292,2.435,2.4649,2.4214,2.4033,2.3701,2.3313,2.3567,2.3369,2.2754,2.2808,2.2899,2.3287,2.3282,2.3368,2.3532,2.3368,2.2718,2.2108,2.1073,2.018,1.9065,1.8442,1.81,1.81,1.8223,1.8154,1.8115,1.8154,1.7988,1.7705,1.7305,1.6904,1.6426,1.5986,1.5479,1.4781,1.4066,1.3331,1.24,1.1749,1.1533,1.1606,1.1852,1.1923,1.1364,1.0825,1.0232,0.9539,0.8441,0.7872,2.5511,2.5676,2.5699,2.5485,2.5194,2.5105,2.493,2.4606,2.3984,2.3804,2.3841,2.3571,2.345,2.3628,2.3789,2.3979,2.4096,2.4096,2.3734,2.3442,2.3514,2.3215,2.1803,2.0635,2.0118,2.0118,2.0118,2.0302,2.0603,2.0388,2.0324,2.0635,2.0518,2.0561,2.1094,2.1221,2.1463,2.1851,2.1451,2.1092,2.0965,2.0624,2.0237,2.0226,2.0805,2.1028,2.0794,2.1123,2.0837,1.9737,2.0064,2.027,2.0205,2.0183,2.0237,2.0367,2.0485,2.07,2.0839,2.1368,2.1889,2.2677,2.325,2.3339,2.3914,2.4536,2.4587,2.3821,2.3975,2.3776,2.3016,2.3194,2.3445,2.3289,2.3682,2.4176,2.4436,2.439,2.4318,2.4342,2.4446,2.415,2.3283,2.206,2.0985,1.9948,1.9039,1.8542,1.8316,1.831,1.8125,1.8188,1.835,1.8086,1.7861,1.7412,1.7021,1.6556,1.6137,1.5664,1.5038,1.4318,1.3534,1.2624,1.1964,1.1824,1.1839,1.21,1.2005,1.1528,1.0991,1.0527,0.9695,0.8599,0.7991,2.6765,2.6595,2.671,2.6454,2.5881,2.561,2.5448,2.5206,2.433,2.3967,2.391,2.3596,2.3463,2.3599,2.3789,2.3966,2.4054,2.4125,2.3734,2.328,2.3806,2.2992,2.1522,2.0539,2.0151,2.0183,2.027,2.0399,2.0901,2.0912,2.1008,2.1345,2.1219,2.1293,2.1557,2.1588,2.1788,2.2123,2.203,2.1588,2.1262,2.1494,2.1368,2.0944,2.1526,2.1714,2.142,2.1336,2.1221,2.0784,2.0839,2.0903,2.0882,2.0871,2.0935,2.1094,2.0828,2.1083,2.1882,2.2137,2.2573,2.3382,2.3914,2.4478,2.4492,2.4806,2.5008,2.4861,2.4742,2.42,2.3885,2.376,2.3663,2.3688,2.4174,2.448,2.4482,2.4496,2.4496,2.447,2.3881,2.3323,2.262,2.1847,2.0819,1.9756,1.9214,1.8927,1.8835,1.8686,1.86,1.871,1.8764,1.8379,1.8008,1.7549,1.7116,1.6657,1.6229,1.5845,1.512,1.426,1.3402,1.2528,1.2144,1.1876,1.2105,1.2368,1.2015,1.1651,1.1736,1.1434,0.9933,0.8751,0.8331,2.7591,2.7411,2.7284,2.704,2.6688,2.6202,2.5824,2.546,2.4732,2.4205,2.3947,2.3493,2.336,2.3539,2.37,2.3848,2.4008,2.4083,2.3734,2.3177,2.316,2.2695,2.1834,2.1028,2.07,2.1028,2.0996,2.1239,2.1573,2.1678,2.1803,2.1885,2.1978,2.199,2.1982,2.2013,2.2025,2.2154,2.2197,2.1956,2.1663,2.1956,2.2099,2.1901,2.2328,2.2439,2.2433,2.231,2.1951,2.1411,2.1201,2.1201,2.1201,2.1201,2.1273,2.1474,2.1063,2.1285,2.1882,2.2199,2.2695,2.3399,2.4147,2.4478,2.4607,2.4806,2.5151,2.4723,2.4654,2.4474,2.4107,2.3816,2.3929,2.4318,2.446,2.4398,2.4237,2.4352,2.4386,2.4169,2.3836,2.3302,2.2477,2.18,2.0999,2.0183,1.9737,1.9627,1.9528,1.9347,1.9155,1.9147,1.8941,1.8504,1.7881,1.7375,1.6773,1.634,1.5882,1.5602,1.5257,1.438,1.369,1.2968,1.2416,1.208,1.2297,1.2415,1.2198,1.2124,1.2385,1.1789,1.0272,0.9241,0.8822,2.8279,2.8312,2.7604,2.7384,2.7351,2.6769,2.6185,2.5649,2.5034,2.4499,2.4054,2.3396,2.3241,2.3403,2.3569,2.3717,2.392,2.4054,2.3763,2.322,2.2756,2.2451,2.2967,2.1772,2.1553,2.1966,2.2243,2.2262,2.2366,2.2561,2.2622,2.2622,2.2683,2.2573,2.2463,2.2476,2.2365,2.2216,2.2309,2.2247,2.2123,2.2247,2.2451,2.2684,2.2866,2.3125,2.3339,2.3399,2.2919,2.1557,2.1411,2.1537,2.1506,2.1506,2.1506,2.162,2.1651,2.1577,2.1683,2.2249,2.2573,2.3386,2.3842,2.4047,2.4478,2.4793,2.4763,2.4255,2.4565,2.4505,2.3966,2.3688,2.3935,2.4474,2.446,2.4148,2.3969,2.4253,2.4377,2.3896,2.4174,2.3875,2.3125,2.2342,2.1682,2.0722,2.0376,2.0323,2.0063,1.9669,1.9489,1.9383,1.9042,1.8529,1.7842,1.7141,1.6487,1.5927,1.5384,1.512,1.5281,1.4693,1.4151,1.3508,1.2648,1.2285,1.2371,1.2372,1.2261,1.2311,1.2395,1.1552,1.0481,0.9879,0.9387,2.9512,2.9265,2.8538,2.7966,2.7451,2.6803,2.6445,2.6231,2.5255,2.4752,2.4418,2.3547,2.3253,2.3433,2.3569,2.37,2.3891,2.4037,2.3982,2.3776,2.2604,2.2889,2.3382,2.2512,2.207,2.2255,2.2194,2.2488,2.2955,2.3195,2.3357,2.3636,2.3416,2.319,2.2884,2.295,2.2689,2.2371,2.2555,2.2574,2.242,2.2604,2.2805,2.3,2.3305,2.3488,2.3547,2.3607,2.3429,2.3113,2.275,2.2628,2.2798,2.2628,2.2641,2.2798,2.2756,2.2847,2.331,2.3327,2.3653,2.4205,2.4465,2.4751,2.4835,2.492,2.492,2.4708,2.4892,2.4761,2.4329,2.3839,2.3905,2.4094,2.4039,2.3872,2.3829,2.4463,2.4484,2.3974,2.3759,2.3492,2.2549,2.2332,2.1792,2.123,2.106,2.1008,2.0645,2.0182,1.9922,1.9824,1.9156,1.859,1.7783,1.6935,1.5997,1.5309,1.473,1.436,1.4569,1.4524,1.3777,1.3208,1.2647,1.2475,1.2445,1.2378,1.2268,1.2348,1.2311,1.1639,1.0962,1.0438,0.969,3.0249,2.9993,2.9328,2.8807,2.839,2.7736,2.7095,2.648,2.5659,2.5109,2.4644,2.3629,2.3348,2.3704,2.3658,2.3658,2.3789,2.4008,2.4112,2.3966,2.3335,2.3454,2.3835,2.3484,2.307,2.3105,2.3177,2.3446,2.3682,2.3842,2.3989,2.4218,2.4118,2.3914,2.3543,2.3577,2.3399,2.3022,2.3065,2.3095,2.2944,2.3095,2.3395,2.3603,2.4002,2.425,2.4292,2.4263,2.4263,2.4147,2.3796,2.3543,2.356,2.3352,2.3382,2.3488,2.3446,2.3446,2.3754,2.3989,2.4134,2.4565,2.4821,2.4948,2.5005,2.5005,2.5181,2.5344,2.5397,2.5297,2.5025,2.4545,2.429,2.4263,2.4176,2.4176,2.4262,2.442,2.4224,2.3536,2.3341,2.2974,2.2508,2.2234,2.2123,2.1663,2.1663,2.1632,2.1663,2.1178,2.056,2.015,1.9377,1.8606,1.7765,1.673,1.5453,1.4678,1.3921,1.3603,1.3467,1.3365,1.3157,1.2915,1.2769,1.2512,1.2489,1.2378,1.2305,1.2305,1.2194,1.1855,1.1397,1.072,0.9863,3.0612,3.0538,2.987,2.9591,2.9484,2.8748,2.7895,2.6997,2.6235,2.5691,2.5048,2.3897,2.3796,2.3956,2.3868,2.3734,2.3776,2.3936,2.4125,2.4054,2.3995,2.3953,2.4054,2.3995,2.394,2.4234,2.4089,2.4147,2.4234,2.445,2.4334,2.4392,2.4607,2.4334,2.4131,2.4234,2.4002,2.3501,2.3577,2.359,2.3501,2.359,2.3901,2.4292,2.4593,2.4765,2.4765,2.4778,2.4835,2.4907,2.4565,2.42,2.3988,2.3738,2.3783,2.3813,2.3901,2.3959,2.4089,2.4234,2.445,2.4436,2.4736,2.5058,2.5141,2.5179,2.5339,2.5544,2.5623,2.5515,2.5639,2.5089,2.4862,2.4863,2.4806,2.4863,2.4801,2.4249,2.3723,2.3255,2.325,2.3028,2.2547,2.2197,2.2197,2.2197,2.2197,2.2166,2.2166,2.1831,2.1008,2.0193,1.9321,1.815,1.7229,1.685,1.5526,1.4341,1.3496,1.3123,1.2809,1.2692,1.2783,1.3157,1.3076,1.2746,1.2489,1.2415,1.2342,1.2261,1.1834,1.1328,1.1046,1.0877,0.9906,3.0612,3.0538,2.9884,2.9591,2.9484,2.8826,2.8438,2.8052,2.7062,2.6519,2.6247,2.5206,2.4487,2.4319,2.4321,2.4232,2.4067,2.4083,2.4125,2.4125,2.4125,2.4125,2.4125,2.4112,2.4112,2.4112,2.4157,2.4203,2.4276,2.435,2.4392,2.4534,2.4591,2.4361,2.4203,2.4334,2.429,2.378,2.3943,2.3943,2.3763,2.3956,2.4263,2.4622,2.4778,2.4778,2.4692,2.4664,2.4664,2.4677,2.4591,2.4758,2.4783,2.4442,2.4427,2.4603,2.4607,2.4523,2.4593,2.475,2.485,2.4907,2.492,2.5261,2.5503,2.5578,2.5574,2.556,2.53,2.492,2.4824,2.4786,2.4691,2.4706,2.4763,2.482,2.4748,2.4469,2.399,2.3582,2.3436,2.3137,2.2573,2.2166,2.2123,2.2092,2.2061,2.203,2.1968,2.1526,2.0794,1.9955,1.91,1.7832,1.6569,1.6423,1.5757,1.4389,1.3518,1.303,1.2708,1.2354,1.2451,1.2774,1.2849,1.2556,1.2415,1.2378,1.2157,1.1929,1.1328,1.0754,1.0503,1.0248,0.9426,3.0612,3.0568,3.0251,3.0129,3.0054,2.9763,2.939,2.8955,2.8121,2.7721,2.7338,2.6501,2.5813,2.5465,2.5092,2.471,2.4223,2.4125,2.4125,2.4125,2.4125,2.4125,2.4125,2.4125,2.4125,2.4125,2.4112,2.4141,2.4187,2.4203,2.4261,2.4319,2.4405,2.4305,2.4189,2.4463,2.4447,2.4115,2.4261,2.4319,2.4041,2.4347,2.4549,2.4635,2.4692,2.4649,2.462,2.4591,2.4591,2.4645,2.4871,2.4962,2.4973,2.4957,2.4917,2.5094,2.4953,2.482,2.4791,2.4791,2.475,2.4778,2.4791,2.5074,2.5448,2.5534,2.5664,2.5758,2.5464,2.5015,2.5085,2.4736,2.4618,2.462,2.4677,2.4734,2.475,2.4622,2.4292,2.3884,2.3433,2.2958,2.2438,2.2154,2.2092,2.2018,2.1987,2.1862,2.1769,2.1273,2.0677,1.989,1.9058,1.7908,1.6693,1.6303,1.572,1.4377,1.3509,1.3043,1.2546,1.2206,1.2138,1.2341,1.2285,1.2245,1.2372,1.2342,1.1966,1.152,1.0979,1.0453,1.0045,0.9516,0.8739,3.0687,3.0612,3.0612,3.0612,3.0612,3.0612,3.0282,2.9756,2.9142,2.8716,2.8485,2.7527,2.6899,2.6606,2.5945,2.5196,2.4324,2.4321,2.4269,2.4125,2.4125,2.4125,2.4125,2.4125,2.4125,2.4125,2.4125,2.4125,2.4112,2.4141,2.4112,2.4171,2.4232,2.4263,2.4276,2.4405,2.4534,2.4549,2.4591,2.4591,2.4591,2.4563,2.4549,2.4549,2.4534,2.4534,2.4447,2.4447,2.458,2.4699,2.4885,2.5031,2.4914,2.5017,2.519,2.5233,2.484,2.4658,2.462,2.462,2.4649,2.4649,2.462,2.4965,2.5455,2.5735,2.5724,2.6003,2.5468,2.5031,2.4914,2.4744,2.4603,2.462,2.4649,2.4677,2.4763,2.4664,2.4392,2.3884,2.3335,2.2927,2.2555,2.1987,2.1925,2.1788,2.1726,2.158,2.1454,2.119,2.0624,1.9868,1.8998,1.7996,1.7048,1.6367,1.5464,1.4088,1.3456,1.3043,1.2525,1.1997,1.2017,1.2001,1.1926,1.1936,1.2095,1.2124,1.1643,1.1144,1.0598,0.9904,0.9073,0.8677,0.8224,3.0984,3.0612,3.0612,3.0612,3.0612,3.0628,3.0568,3.036,2.9782,2.9175,2.8785,2.8009,2.7427,2.6932,2.6505,2.5746,2.5119,2.4869,2.4577,2.4178,2.4178,2.4217,2.4151,2.4125,2.4253,2.424,2.4191,2.4125,2.423,2.423,2.4125,2.4112,2.4112,2.4128,2.4157,2.4261,2.4321,2.435,2.4492,2.4563,2.4563,2.4421,2.4363,2.4334,2.4334,2.429,2.4216,2.4242,2.44,2.478,2.4459,2.4786,2.5293,2.4678,2.4681,2.4784,2.476,2.4591,2.4563,2.4534,2.4534,2.4534,2.4563,2.5162,2.5674,2.5906,2.5823,2.5751,2.4957,2.4468,2.4546,2.4416,2.4421,2.4536,2.4635,2.4649,2.4677,2.4721,2.4421,2.3972,2.3442,2.3198,2.2909,2.2254,2.1726,2.1588,2.1463,2.1285,2.1106,2.0839,2.0614,1.9922,1.9324,1.8361,1.7456,1.6748,1.5675,1.415,1.3497,1.3137,1.2652,1.2169,1.1703,1.1663,1.1611,1.1554,1.1614,1.1536,1.1218,1.0749,1.0189,0.9014,0.7686,0.7509,0.7582,3.148,3.0628,3.0896,3.0836,3.0628,3.0866,3.0836,3.0569,3.0307,3.0016,2.9755,2.9493,2.8872,2.8022,2.7523,2.6546,2.561,2.5408,2.4886,2.4416,2.4439,2.4626,2.4639,2.4665,2.47,2.4788,2.4527,2.4605,2.4618,2.4426,2.4125,2.4138,2.4125,2.4112,2.4125,2.4157,2.4187,2.4216,2.4274,2.4303,2.4287,2.4245,2.4187,2.4187,2.4203,2.4157,2.4112,2.4125,2.4217,2.4504,2.4439,2.4609,2.4844,2.4648,2.4678,2.4387,2.4386,2.4316,2.4316,2.4345,2.4345,2.4345,2.4395,2.48,2.5647,2.5783,2.5722,2.5785,2.4958,2.4453,2.4292,2.4279,2.4321,2.4421,2.4578,2.4507,2.452,2.4635,2.4507,2.4031,2.356,2.3245,2.2836,2.2087,2.1463,2.1242,2.1051,2.0807,2.0625,2.0399,2.0237,1.9976,1.9467,1.8886,1.7963,1.715,1.624,1.4918,1.3761,1.3381,1.2917,1.2435,1.1928,1.1482,1.1401,1.1304,1.1204,1.1045,1.0892,1.0343,0.9759,0.8776,0.781,0.6916,0.6892,3.1836,3.0984,3.1292,3.1234,3.097,3.1307,3.119,3.0807,3.0762,3.0615,3.0394,3.0219,2.9753,2.9127,2.8463,2.7624,2.6131,2.6104,2.5435,2.496,2.4892,2.5158,2.5118,2.5162,2.5223,2.578,2.4831,2.4909,2.5192,2.5036,2.4566,2.4347,2.4426,2.4269,2.4151,2.4112,2.4112,2.4141,2.4141,2.4141,2.4141,2.4112,2.4112,2.4112,2.4112,2.4125,2.4125,2.4125,2.4138,2.4495,2.4741,2.481,2.4616,2.4928,2.4909,2.4696,2.462,2.4708,2.4607,2.4447,2.4171,2.4135,2.4334,2.4812,2.5319,2.5306,2.5218,2.5524,2.4876,2.4466,2.4334,2.4279,2.435,2.4392,2.4421,2.4363,2.435,2.4507,2.4334,2.3725,2.3339,2.31,2.2567,2.1776,2.1242,2.0955,2.0679,2.0388,2.027,2.0107,2.0074,1.9976,1.9575,1.905,1.8186,1.7318,1.6507,1.5552,1.4369,1.3393,1.2836,1.2461,1.2042,1.1683,1.133,1.097,1.0781,1.0688,1.0549,1.0127,0.9644,0.9103,0.8255,0.7153,0.6449,3.1892,3.1807,3.1851,3.1851,3.1766,3.1823,3.1623,3.1248,3.1263,3.0705,3.0002,2.9697,2.9552,2.9189,2.9298,2.8605,2.7049,2.7209,2.6321,2.5667,2.5621,2.5709,2.5623,2.5454,2.5393,2.5785,2.5371,2.5454,2.58,2.6122,2.5481,2.5018,2.5022,2.4626,2.4308,2.4148,2.4125,2.4125,2.4125,2.4125,2.4125,2.4125,2.4125,2.4125,2.4125,2.4125,2.4125,2.4125,2.4344,2.4797,2.4925,2.5099,2.5034,2.5471,2.5463,2.5295,2.5533,2.5646,2.5493,2.4818,2.4229,2.4298,2.4603,2.4977,2.5149,2.5101,2.5074,2.5148,2.4832,2.4529,2.4408,2.4337,2.4652,2.4723,2.4765,2.4565,2.4507,2.4434,2.4189,2.3488,2.319,2.313,2.2555,2.1815,2.1115,2.0764,2.0442,2.0161,2.0205,2.0118,2.0118,1.9987,1.9619,1.9051,1.8228,1.741,1.6637,1.566,1.4513,1.3416,1.2528,1.2261,1.2226,1.1762,1.1406,1.088,1.0394,1.0337,1.0214,0.9954,0.9532,0.8953,0.808,0.693,0.6481,3.2753,3.2769,3.2769,3.241,3.1936,3.2201,3.2076,3.1724,3.1652,3.1332,3.0602,3.0367,3.0104,3.0045,2.9985,2.9128,2.7442,2.7704,2.6627,2.5762,2.5593,2.609,2.6051,2.6134,2.6193,2.66,2.637,2.6618,2.7421,2.7381,2.7165,2.6714,2.599,2.5232,2.4779,2.4334,2.4194,2.4171,2.4141,2.4112,2.4125,2.4125,2.4125,2.4125,2.4125,2.4125,2.4125,2.4125,2.449,2.4862,2.5028,2.5208,2.5514,2.6036,2.6232,2.6148,2.6638,2.6764,2.6426,2.5674,2.5048,2.4813,2.5172,2.5474,2.514,2.5093,2.5044,2.5082,2.5245,2.5147,2.4866,2.5175,2.5495,2.5384,2.5175,2.485,2.4664,2.452,2.4245,2.3662,2.3531,2.3471,2.2768,2.1928,2.1219,2.0603,2.0248,1.9998,2.0085,2.0085,2.0074,2.0074,1.9749,1.9426,1.8656,1.776,1.6798,1.5756,1.4682,1.3726,1.281,1.2609,1.2485,1.1971,1.1452,1.0902,1.0458,1.0121,0.9826,0.9485,0.9128,0.869,0.7746,0.6736,0.647,3.3293,3.3293,3.3293,3.2931,3.2382,3.2672,3.2532,3.2132,3.1936,3.1581,3.1102,3.0836,3.0717,3.0628,3.0539,2.9756,2.8468,2.8324,2.7366,2.6916,2.6871,2.7155,2.7129,2.7146,2.733,2.775,2.7611,2.779,2.8647,2.887,2.8408,2.7777,2.7238,2.6529,2.5223,2.4717,2.4429,2.456,2.4447,2.4492,2.4578,2.4664,2.4679,2.4679,2.4708,2.4736,2.4736,2.4793,2.492,2.5271,2.5467,2.5619,2.6006,2.6491,2.6955,2.7269,2.7582,2.7838,2.7524,2.6623,2.5897,2.541,2.5849,2.5797,2.5461,2.5322,2.5377,2.5353,2.5772,2.5946,2.5398,2.5646,2.5783,2.5632,2.5188,2.4892,2.4721,2.4563,2.4287,2.3907,2.3806,2.3616,2.2634,2.1803,2.0996,2.0442,2.0226,2.0042,2.0085,2.0063,1.9976,1.9987,1.9901,1.9595,1.9204,1.8143,1.7083,1.6126,1.51,1.4169,1.3458,1.3128,1.2636,1.2073,1.1536,1.0974,1.039,0.9805,0.933,0.8929,0.8625,0.8333,0.7802,0.69,0.6441,3.3293,3.3293,3.3293,3.3266,3.316,3.324,3.3011,3.2547,3.2132,3.1537,3.0925,3.1073,3.0984,3.0687,3.0612,2.9931,2.9301,2.9383,2.8945,2.8239,2.8288,2.8794,2.8643,2.8433,2.832,2.8889,2.88,2.8806,2.9473,2.9669,2.9236,2.8874,2.8626,2.7982,2.598,2.5254,2.5255,2.5592,2.5215,2.5258,2.5439,2.5522,2.5495,2.5481,2.5453,2.5412,2.5412,2.5591,2.5703,2.5825,2.6446,2.6542,2.6389,2.734,2.7824,2.7966,2.8461,2.8928,2.928,2.7734,2.6749,2.616,2.6624,2.6525,2.598,2.5769,2.5701,2.5618,2.5921,2.5946,2.581,2.5878,2.6,2.5919,2.5564,2.5104,2.4963,2.4361,2.4054,2.3949,2.3861,2.3552,2.2525,2.1585,2.0752,2.0259,2.014,2.0085,2.0085,2.0063,1.9933,1.9716,1.9705,1.9358,1.8885,1.8267,1.7369,1.6447,1.5543,1.4611,1.3787,1.3223,1.2696,1.2176,1.1633,1.1069,1.0225,0.9387,0.8913,0.8447,0.8214,0.7922,0.7493,0.7068,0.6576,3.3293,3.3293,3.3293,3.3293,3.3293,3.3293,3.3187,3.3011,3.2547,3.2005,3.1523,3.1423,3.1058,3.0732,3.0568,3.0138,2.9339,2.9617,2.9324,2.8373,2.9141,2.91,2.9054,2.9228,2.9228,2.9279,2.9352,2.9693,3.0023,3.0343,3.0329,3.0056,2.9445,2.8853,2.7594,2.6557,2.5828,2.6232,2.5911,2.5632,2.5783,2.5837,2.5864,2.5864,2.5906,2.5948,2.6031,2.6354,2.6563,2.668,2.7387,2.7733,2.7729,2.8629,2.9297,2.9507,3.0007,3.0289,3.0039,2.8961,2.807,2.7645,2.7436,2.724,2.6144,2.6177,2.6014,2.5987,2.6365,2.6404,2.6377,2.6709,2.6867,2.6785,2.6416,2.5742,2.5273,2.4305,2.3717,2.3819,2.3802,2.3378,2.2573,2.1828,2.1016,2.0433,2.027,2.0107,2.0064,2.0031,1.9944,1.9543,1.9316,1.8951,1.8548,1.8068,1.7726,1.7011,1.6049,1.5059,1.4267,1.3364,1.2845,1.2357,1.1772,1.118,1.023,0.929,0.8484,0.8009,0.7787,0.7689,0.7461,0.7036,0.6515,3.3293,3.3293,3.3293,3.3293,3.3293,3.3293,3.3214,3.3112,3.3107,3.286,3.2387,3.234,3.2154,3.1677,3.1202,3.0877,2.9977,3.0154,3.0176,2.9167,3.0125,3.0164,2.9947,2.9949,3.0094,2.9976,3.0113,3.0477,3.0582,3.1087,3.0984,3.0509,2.9889,2.9598,2.8808,2.8043,2.7085,2.727,2.6935,2.6526,2.6543,2.6508,2.6481,2.6553,2.6656,2.6802,2.6933,2.7233,2.7647,2.7944,2.8355,2.8935,2.9193,2.9501,3.016,3.0401,3.0803,3.0966,3.0524,3.0273,2.9414,2.8718,2.87,2.7835,2.6675,2.6645,2.6739,2.6794,2.7012,2.7071,2.7103,2.7495,2.7307,2.7225,2.675,2.6084,2.5632,2.4694,2.3982,2.4024,2.3769,2.3271,2.28,2.2099,2.1369,2.0892,2.0445,2.0227,1.9998,1.9944,1.9727,1.9275,1.9028,1.8773,1.8454,1.8055,1.7723,1.7506,1.6556,1.5439,1.4282,1.3314,1.2962,1.2449,1.1635,1.0811,1.0076,0.925,0.8425,0.7782,0.7396,0.733,0.7363,0.7007,0.6552,3.3293,3.3293,3.3293,3.3293,3.3293,3.3282,3.3038,3.2757,3.3736,3.3684,3.3038,3.3979,3.3768,3.317,3.2601,3.2184,3.1989,3.1699,3.1438,3.141,3.1818,3.1409,3.1069,3.1052,3.0816,3.0741,3.0762,3.0762,3.1058,3.1146,3.1102,3.0851,3.0115,3.0165,2.9997,2.9534,2.8728,2.8499,2.7732,2.7501,2.7542,2.7513,2.7499,2.7623,2.7939,2.8314,2.8606,2.8973,2.9305,2.9473,2.9575,2.9478,2.9421,2.9364,2.9698,3.0158,3.0837,3.1013,3.1042,3.088,3.0497,2.9615,2.8946,2.8116,2.7524,2.7234,2.7217,2.7423,2.7627,2.7753,2.7865,2.7641,2.7417,2.7123,2.6746,2.6356,2.6096,2.5425,2.4706,2.4313,2.3952,2.356,2.3181,2.2517,2.1788,2.1073,2.052,1.9964,1.9768,1.9747,1.9447,1.8838,1.8637,1.8637,1.831,1.7923,1.7601,1.7304,1.6719,1.5701,1.4499,1.3467,1.3124,1.2492,1.1321,1.0511,1.0078,0.9262,0.8279,0.7749,0.7335,0.7106,0.7138,0.7036,0.6679,3.3293,3.3293,3.3293,3.3293,3.3282,3.3203,3.3107,3.3165,3.3503,3.349,3.353,3.3829,3.4063,3.3759,3.3592,3.3245,3.308,3.3005,3.287,3.2871,3.2778,3.2434,3.1999,3.1551,3.1227,3.0876,3.0762,3.0836,3.0895,3.0984,3.1087,3.0955,3.0582,3.0791,3.0763,3.0601,3.0116,2.9491,2.8456,2.8325,2.8381,2.83,2.8363,2.8649,2.9117,2.9535,3.0006,3.0531,3.0792,3.0848,3.0968,3.0861,3.0306,3.0459,3.0748,3.0792,3.1116,3.1248,3.1232,3.0645,3.0292,3.0214,2.9387,2.8923,2.8336,2.7995,2.7824,2.8018,2.8094,2.815,2.8297,2.815,2.7839,2.7445,2.7163,2.703,2.677,2.6274,2.5524,2.4776,2.4398,2.4007,2.3598,2.2965,2.218,2.1335,2.0606,2.0041,1.9591,1.956,1.9197,1.8596,1.8417,1.8438,1.8145,1.7771,1.7451,1.7072,1.6637,1.6094,1.4993,1.4086,1.3476,1.2604,1.1569,1.0856,1.0301,0.9504,0.8788,0.7927,0.747,0.7176,0.6913,0.6811,0.6745,3.3176,3.315,3.3203,3.3219,3.3123,3.3043,3.3085,3.317,3.3433,3.3717,3.3966,3.4547,3.4694,3.468,3.465,3.4328,3.3717,3.368,3.3452,3.2928,3.3291,3.2676,3.2198,3.1794,3.1377,3.1011,3.0732,3.0762,3.0791,3.0836,3.0895,3.0895,3.0925,3.0955,3.0807,3.0617,3.0572,3.0068,2.9489,2.9067,2.8907,2.8894,2.9028,2.9379,2.9931,3.0479,3.1031,3.1578,3.1762,3.1816,3.1944,3.1728,3.1276,3.1386,3.1393,3.1422,3.1495,3.1581,3.1549,3.1152,3.0899,3.066,3.0186,3.0095,2.9612,2.9211,2.8899,2.8803,2.8603,2.8477,2.8682,2.877,2.8345,2.7935,2.7848,2.7813,2.7426,2.7046,2.6289,2.5434,2.4949,2.4564,2.4035,2.3353,2.2657,2.1885,2.106,2.0314,1.9776,1.9473,1.9023,1.8424,1.8309,1.8267,1.7965,1.781,1.7593,1.7407,1.7239,1.6553,1.5508,1.462,1.3926,1.2948,1.1849,1.1196,1.0593,1.0173,0.9509,0.8586,0.7683,0.7244,0.6928,0.6613,0.6581,3.3032,3.2939,3.3016,3.2969,3.2803,3.2772,3.2772,3.2866,3.3193,3.3846,3.4325,3.5427,3.5591,3.5251,3.5296,3.4969,3.4463,3.4229,3.3887,3.2769,3.3443,3.3151,3.2448,3.193,3.1575,3.1087,3.0881,3.094,3.0732,3.0702,3.0702,3.0642,3.0732,3.0791,3.0689,3.0485,3.05,3.05,3.0147,2.9793,2.9409,2.9317,2.9396,2.9839,3.0372,3.0904,3.1454,3.187,3.2183,3.2453,3.2358,3.2231,3.199,3.2003,3.1949,3.1908,3.1908,3.1964,3.1964,3.1687,3.1773,3.1635,3.1432,3.121,3.0679,2.9898,2.9451,2.9674,2.959,2.9389,2.9494,2.9656,2.9433,2.8939,2.8656,2.8488,2.8221,2.7797,2.7273,2.6475,2.5888,2.5445,2.4431,2.3729,2.2846,2.225,2.1209,2.0325,1.9908,1.944,1.8944,1.833,1.8318,1.8318,1.818,1.7991,1.7843,1.7705,1.7581,1.7005,1.5949,1.5126,1.4356,1.3335,1.2305,1.1499,1.0883,1.0514,0.9928,0.8879,0.8073,0.7424,0.6998,0.6606,0.6453,3.2924,3.2912,3.2924,3.2643,3.2148,3.1953,3.1953,3.2013,3.1444,3.2326,3.3834,3.4387,3.4801,3.4989,3.5271,3.4939,3.4357,3.4366,3.4453,3.3772,3.3717,3.3429,3.2903,3.2216,3.1776,3.1497,3.1292,3.1102,3.091,3.0762,3.0717,3.0895,3.0866,3.0732,3.0732,3.0543,3.0644,3.0673,3.06,3.047,3.0308,2.9943,2.9854,3.044,3.097,3.169,3.2214,3.2595,3.3501,3.4235,3.3091,3.2462,3.1977,3.2256,3.2228,3.2048,3.2256,3.2367,3.2367,3.2228,3.2201,3.2244,3.2041,3.1784,3.1274,3.0411,3.0132,3.0513,3.0658,3.044,3.0311,3.0459,3.0476,2.9935,2.9442,2.9211,2.8938,2.8454,2.8082,2.7482,2.6865,2.5877,2.4803,2.3974,2.3123,2.1975,2.063,1.9745,1.9591,1.9231,1.8931,1.8461,1.8445,1.8422,1.8282,1.8145,1.7989,1.7794,1.7652,1.7054,1.6373,1.5428,1.4538,1.3737,1.2851,1.1992,1.133,1.095,1.0234,0.9364,0.8507,0.7922,0.709,0.6574,0.6489,3.2321,3.1807,3.1807,3.159,3.1238,3.1113,3.1113,3.1088,3.0634,3.1107,3.2315,3.2823,3.3388,3.402,3.4481,3.4357,3.3771,3.412,3.3691,3.3365,3.3363,3.3252,3.2822,3.2415,3.1872,3.1537,3.1204,3.0955,3.0984,3.0866,3.0821,3.0955,3.0821,3.0791,3.0835,3.0921,3.092,3.0612,3.0845,3.101,3.0998,3.0558,3.0702,3.1294,3.1735,3.2324,3.2782,3.3092,3.3587,3.412,3.3309,3.2982,3.2699,3.2807,3.278,3.2699,3.278,3.2888,3.2807,3.2699,3.2574,3.2672,3.2726,3.25,3.2527,3.1772,3.1297,3.1643,3.172,3.1561,3.1285,3.1277,3.1078,3.0669,3.0392,3.0174,2.9146,2.8119,2.7688,2.7135,2.6298,2.5122,2.4277,2.3882,2.3118,2.2435,2.099,2.0053,1.9715,1.8965,1.8674,1.8472,1.8371,1.8303,1.8166,1.8103,1.8049,1.7878,1.7687,1.7337,1.6754,1.5638,1.4647,1.3997,1.3279,1.24,1.1806,1.1444,1.0981,1.0225,0.933,0.8428,0.7533,0.664,0.6359,3.1428,3.032,3.0423,3.0366,3.0237,3.0237,3.0263,3.0233,3.014,3.0094,3.0299,3.098,3.1762,3.2578,3.3142,3.3036,3.2996,3.3107,3.2699,3.2455,3.255,3.2741,3.2714,3.2379,3.2117,3.168,3.1263,3.1087,3.1043,3.0881,3.0762,3.0821,3.0881,3.094,3.1041,3.1258,3.1372,3.1123,3.1213,3.1513,3.1323,3.1014,3.1436,3.1877,3.2244,3.241,3.2931,3.3203,3.3219,3.3488,3.3556,3.3345,3.3192,3.316,3.3187,3.3134,3.3134,3.3187,3.3214,3.316,3.3187,3.324,3.3293,3.3293,3.3235,3.2987,3.2535,3.2444,3.2555,3.2442,3.2142,3.1806,3.1563,3.12,3.0996,3.0572,2.9173,2.7925,2.7437,2.6904,2.5879,2.4708,2.405,2.3688,2.3118,2.2497,2.1745,2.1017,2.0139,1.9011,1.8259,1.8134,1.8066,1.7998,1.7964,1.7954,1.7959,1.7847,1.7634,1.7485,1.7068,1.599,1.5104,1.4411,1.3658,1.2862,1.2311,1.1933,1.1439,1.0773,0.9699,0.8592,0.7735,0.6907,0.6292,3.0513,2.9501,3.0416,3.0262,2.9516,2.9429,2.9429,2.9363,2.8993,2.8796,2.895,2.9036,2.9687,3.0876,3.1213,3.1347,3.1576,3.1888,3.187,3.1546,3.2408,3.2603,3.262,3.2671,3.2807,3.2333,3.1741,3.1481,3.1409,3.1028,3.0821,3.1102,3.0821,3.085,3.0953,3.1302,3.1753,3.1608,3.1928,3.2363,3.2257,3.1942,3.1568,3.1794,3.1992,3.2272,3.2574,3.2738,3.3298,3.3801,3.3972,3.3688,3.3498,3.3356,3.3388,3.3356,3.3356,3.3356,3.3356,3.3309,3.3293,3.3293,3.3293,3.3293,3.3251,3.3251,3.2987,3.2987,3.3007,3.283,3.2532,3.2117,3.1777,3.1137,3.073,2.9855,2.8699,2.8041,2.7572,2.6933,2.6156,2.5033,2.4072,2.3612,2.2994,2.2248,2.1242,2.0505,1.9998,1.8957,1.792,1.7828,1.7794,1.7759,1.775,1.775,1.774,1.7666,1.7598,1.743,1.7033,1.634,1.554,1.487,1.412,1.3365,1.2891,1.2118,1.1377,1.0599,0.9688,0.8709,0.7893,0.7102,0.643]}]]